<?xml version="1.0" encoding="UTF-8" standalone="no" ?>
<gpx xmlns="http://www.topografix.com/GPX/1/1" xmlns:xsi="http://www.w3.org/2001/XMLSchema-instance" xsi:schemaLocation="http://www.topografix.com/GPX/1/1 http://www.topografix.com/GPX/1/1/gpx.xsd" version="1.1" creator="VisuGPX - https://www.visugpx.com">
  <metadata>
    <name>2012-09-09 08:19</name>
    <desc><![CDATA[<h1>OruxMaps</h1><br /><hr align="center" width="480" style="height: 2px; width: 517px"/><h2>Nom: 2012-09-09 08:19</h2><br /><p>Temps de départ: 09/09/2012 08:19</p><p>Temps d'arrivée: 09/09/2012 11:32</p><p>Distance: 46,2 km (03:13)</p><p>Temps déplacement: 03:02</p><p>Vitesse moyenne: 14,3 km/h</p><p>Vitesse moyenne: 15,2 km/h</p><p>Vitess Max.: 67 km/h</p><p>Altitude minimale: 158 m</p><p>Altitude maximale: 361 m</p><p>Vitesse d'élévation: 591,6 m/h</p><p>Vitesse de descente: -972,2 m/h</p><p>Gain Altitude: 957 m</p><p>Perte Altitude: -974 m</p><p>Temps d'élévation: 01:37</p><p>Temps de descente: 01:00</p><hr align="center" width="480" style="height: 2px; width: 517px"/>]]></desc>
  </metadata>
  <trk>
    <name><![CDATA[2012-09-09 08:19]]></name>
    <desc><![CDATA[<h1>OruxMaps</h1><br /><hr align="center" width="480" style="height: 2px; width: 517px"/><h2>Nom: 2012-09-09 08:19</h2><br /><p>Temps de départ: 09/09/2012 08:19</p><p>Temps d'arrivée: 09/09/2012 11:32</p><p>Distance: 46,2 km (03:13)</p><p>Temps déplacement: 03:02</p><p>Vitesse moyenne: 14,3 km/h</p><p>Vitesse moyenne: 15,2 km/h</p><p>Vitess Max.: 67 km/h</p><p>Altitude minimale: 158 m</p><p>Altitude maximale: 361 m</p><p>Vitesse d'élévation: 591,6 m/h</p><p>Vitesse de descente: -972,2 m/h</p><p>Gain Altitude: 957 m</p><p>Perte Altitude: -974 m</p><p>Temps d'élévation: 01:37</p><p>Temps de descente: 01:00</p><hr align="center" width="480" style="height: 2px; width: 517px"/>]]></desc>
    <trkseg>
      <trkpt lat="43.8656" lon="1.88423">
        <ele>210.2</ele>
        <time>2012-09-09T06:19:10Z</time>
      </trkpt>
      <trkpt lat="43.8657" lon="1.88446">
        <ele>204.63094</ele>
        <time>2012-09-09T06:19:48Z</time>
      </trkpt>
      <trkpt lat="43.86575" lon="1.88471">
        <ele>205.5618</ele>
        <time>2012-09-09T06:19:54Z</time>
      </trkpt>
      <trkpt lat="43.86573" lon="1.88498">
        <ele>204.50801</ele>
        <time>2012-09-09T06:20:02Z</time>
      </trkpt>
      <trkpt lat="43.86555" lon="1.88506">
        <ele>204.3317</ele>
        <time>2012-09-09T06:20:08Z</time>
      </trkpt>
      <trkpt lat="43.86536" lon="1.885">
        <ele>203.96973</ele>
        <time>2012-09-09T06:20:14Z</time>
      </trkpt>
      <trkpt lat="43.86517" lon="1.88487">
        <ele>204.90308</ele>
        <time>2012-09-09T06:20:19Z</time>
      </trkpt>
      <trkpt lat="43.86497" lon="1.88482">
        <ele>204.91508</ele>
        <time>2012-09-09T06:20:24Z</time>
      </trkpt>
      <trkpt lat="43.86477" lon="1.88489">
        <ele>201.90778</ele>
        <time>2012-09-09T06:20:29Z</time>
      </trkpt>
      <trkpt lat="43.86457" lon="1.88489">
        <ele>199.1998</ele>
        <time>2012-09-09T06:20:34Z</time>
      </trkpt>
      <trkpt lat="43.86438" lon="1.88485">
        <ele>199.29361</ele>
        <time>2012-09-09T06:20:39Z</time>
      </trkpt>
      <trkpt lat="43.86418" lon="1.88481">
        <ele>200.51518</ele>
        <time>2012-09-09T06:20:44Z</time>
      </trkpt>
      <trkpt lat="43.86397" lon="1.88477">
        <ele>201.19911</ele>
        <time>2012-09-09T06:20:49Z</time>
      </trkpt>
      <trkpt lat="43.86376" lon="1.88473">
        <ele>202.45555</ele>
        <time>2012-09-09T06:20:54Z</time>
      </trkpt>
      <trkpt lat="43.86354" lon="1.88469">
        <ele>201.6915</ele>
        <time>2012-09-09T06:20:59Z</time>
      </trkpt>
      <trkpt lat="43.86332" lon="1.8847">
        <ele>202.72386</ele>
        <time>2012-09-09T06:21:04Z</time>
      </trkpt>
      <trkpt lat="43.86314" lon="1.88472">
        <ele>204.57669</ele>
        <time>2012-09-09T06:21:08Z</time>
      </trkpt>
      <trkpt lat="43.86295" lon="1.88473">
        <ele>205.27115</ele>
        <time>2012-09-09T06:21:12Z</time>
      </trkpt>
      <trkpt lat="43.86273" lon="1.88473">
        <ele>206.04861</ele>
        <time>2012-09-09T06:21:17Z</time>
      </trkpt>
      <trkpt lat="43.86252" lon="1.88474">
        <ele>205.46535</ele>
        <time>2012-09-09T06:21:22Z</time>
      </trkpt>
      <trkpt lat="43.86234" lon="1.88478">
        <ele>204.94646</ele>
        <time>2012-09-09T06:21:26Z</time>
      </trkpt>
      <trkpt lat="43.86214" lon="1.88478">
        <ele>206.16939</ele>
        <time>2012-09-09T06:21:30Z</time>
      </trkpt>
      <trkpt lat="43.86195" lon="1.88474">
        <ele>208.40047</ele>
        <time>2012-09-09T06:21:34Z</time>
      </trkpt>
      <trkpt lat="43.86177" lon="1.88475">
        <ele>207.94351</ele>
        <time>2012-09-09T06:21:38Z</time>
      </trkpt>
      <trkpt lat="43.86158" lon="1.88476">
        <ele>206.45166</ele>
        <time>2012-09-09T06:21:42Z</time>
      </trkpt>
      <trkpt lat="43.86138" lon="1.88479">
        <ele>204.9765</ele>
        <time>2012-09-09T06:21:46Z</time>
      </trkpt>
      <trkpt lat="43.86119" lon="1.88485">
        <ele>203.61795</ele>
        <time>2012-09-09T06:21:50Z</time>
      </trkpt>
      <trkpt lat="43.86098" lon="1.88493">
        <ele>202.64304</ele>
        <time>2012-09-09T06:21:55Z</time>
      </trkpt>
      <trkpt lat="43.86079" lon="1.88504">
        <ele>203.40729</ele>
        <time>2012-09-09T06:22:00Z</time>
      </trkpt>
      <trkpt lat="43.86057" lon="1.8851">
        <ele>204.51363</ele>
        <time>2012-09-09T06:22:04Z</time>
      </trkpt>
      <trkpt lat="43.86038" lon="1.88515">
        <ele>206.9422</ele>
        <time>2012-09-09T06:22:08Z</time>
      </trkpt>
      <trkpt lat="43.86018" lon="1.88526">
        <ele>209.53406</ele>
        <time>2012-09-09T06:22:12Z</time>
      </trkpt>
      <trkpt lat="43.86" lon="1.88531">
        <ele>209.78383</ele>
        <time>2012-09-09T06:22:16Z</time>
      </trkpt>
      <trkpt lat="43.85982" lon="1.88535">
        <ele>207.09448</ele>
        <time>2012-09-09T06:22:20Z</time>
      </trkpt>
      <trkpt lat="43.85961" lon="1.88539">
        <ele>203.642</ele>
        <time>2012-09-09T06:22:24Z</time>
      </trkpt>
      <trkpt lat="43.85941" lon="1.8854">
        <ele>203.99611</ele>
        <time>2012-09-09T06:22:28Z</time>
      </trkpt>
      <trkpt lat="43.8592" lon="1.8854">
        <ele>204.57649</ele>
        <time>2012-09-09T06:22:32Z</time>
      </trkpt>
      <trkpt lat="43.85901" lon="1.88536">
        <ele>205.51328</ele>
        <time>2012-09-09T06:22:36Z</time>
      </trkpt>
      <trkpt lat="43.85879" lon="1.88534">
        <ele>206.23349</ele>
        <time>2012-09-09T06:22:40Z</time>
      </trkpt>
      <trkpt lat="43.85857" lon="1.88531">
        <ele>206.88365</ele>
        <time>2012-09-09T06:22:44Z</time>
      </trkpt>
      <trkpt lat="43.85839" lon="1.88516">
        <ele>208.69397</ele>
        <time>2012-09-09T06:22:49Z</time>
      </trkpt>
      <trkpt lat="43.85819" lon="1.88511">
        <ele>212.01567</ele>
        <time>2012-09-09T06:22:53Z</time>
      </trkpt>
      <trkpt lat="43.85799" lon="1.88508">
        <ele>213.2034</ele>
        <time>2012-09-09T06:22:57Z</time>
      </trkpt>
      <trkpt lat="43.85778" lon="1.88501">
        <ele>213.13506</ele>
        <time>2012-09-09T06:23:01Z</time>
      </trkpt>
      <trkpt lat="43.85758" lon="1.88499">
        <ele>211.96227</ele>
        <time>2012-09-09T06:23:05Z</time>
      </trkpt>
      <trkpt lat="43.85739" lon="1.88492">
        <ele>211.52315</ele>
        <time>2012-09-09T06:23:08Z</time>
      </trkpt>
      <trkpt lat="43.85718" lon="1.88498">
        <ele>207.00851</ele>
        <time>2012-09-09T06:23:13Z</time>
      </trkpt>
      <trkpt lat="43.85698" lon="1.88498">
        <ele>206.46597</ele>
        <time>2012-09-09T06:23:17Z</time>
      </trkpt>
      <trkpt lat="43.85679" lon="1.88501">
        <ele>207.37048</ele>
        <time>2012-09-09T06:23:21Z</time>
      </trkpt>
      <trkpt lat="43.8566" lon="1.88502">
        <ele>209.4844</ele>
        <time>2012-09-09T06:23:25Z</time>
      </trkpt>
      <trkpt lat="43.85641" lon="1.88505">
        <ele>210.54117</ele>
        <time>2012-09-09T06:23:29Z</time>
      </trkpt>
      <trkpt lat="43.85623" lon="1.88509">
        <ele>209.61458</ele>
        <time>2012-09-09T06:23:33Z</time>
      </trkpt>
      <trkpt lat="43.85605" lon="1.88513">
        <ele>210.70032</ele>
        <time>2012-09-09T06:23:37Z</time>
      </trkpt>
      <trkpt lat="43.85587" lon="1.88517">
        <ele>212.29619</ele>
        <time>2012-09-09T06:23:41Z</time>
      </trkpt>
      <trkpt lat="43.85567" lon="1.88519">
        <ele>214.3781</ele>
        <time>2012-09-09T06:23:45Z</time>
      </trkpt>
      <trkpt lat="43.8555" lon="1.88529">
        <ele>215.09854</ele>
        <time>2012-09-09T06:23:49Z</time>
      </trkpt>
      <trkpt lat="43.85531" lon="1.88531">
        <ele>215.4511</ele>
        <time>2012-09-09T06:23:53Z</time>
      </trkpt>
      <trkpt lat="43.85512" lon="1.8854">
        <ele>215.2881</ele>
        <time>2012-09-09T06:23:58Z</time>
      </trkpt>
      <trkpt lat="43.85494" lon="1.88552">
        <ele>218.263</ele>
        <time>2012-09-09T06:24:03Z</time>
      </trkpt>
      <trkpt lat="43.85474" lon="1.8856">
        <ele>217.71954</ele>
        <time>2012-09-09T06:24:07Z</time>
      </trkpt>
      <trkpt lat="43.85457" lon="1.88567">
        <ele>215.88548</ele>
        <time>2012-09-09T06:24:11Z</time>
      </trkpt>
      <trkpt lat="43.85435" lon="1.88575">
        <ele>217.91492</ele>
        <time>2012-09-09T06:24:16Z</time>
      </trkpt>
      <trkpt lat="43.85417" lon="1.88584">
        <ele>218.80159</ele>
        <time>2012-09-09T06:24:20Z</time>
      </trkpt>
      <trkpt lat="43.85398" lon="1.88591">
        <ele>218.15956</ele>
        <time>2012-09-09T06:24:25Z</time>
      </trkpt>
      <trkpt lat="43.85381" lon="1.88599">
        <ele>218.76689</ele>
        <time>2012-09-09T06:24:29Z</time>
      </trkpt>
      <trkpt lat="43.85363" lon="1.88607">
        <ele>220.19539</ele>
        <time>2012-09-09T06:24:33Z</time>
      </trkpt>
      <trkpt lat="43.85342" lon="1.88616">
        <ele>220.10965</ele>
        <time>2012-09-09T06:24:38Z</time>
      </trkpt>
      <trkpt lat="43.85323" lon="1.88629">
        <ele>221.9517</ele>
        <time>2012-09-09T06:24:43Z</time>
      </trkpt>
      <trkpt lat="43.85305" lon="1.88635">
        <ele>221.98979</ele>
        <time>2012-09-09T06:24:47Z</time>
      </trkpt>
      <trkpt lat="43.85286" lon="1.88646">
        <ele>223.06279</ele>
        <time>2012-09-09T06:24:51Z</time>
      </trkpt>
      <trkpt lat="43.85268" lon="1.88657">
        <ele>224.23666</ele>
        <time>2012-09-09T06:24:55Z</time>
      </trkpt>
      <trkpt lat="43.85251" lon="1.8867">
        <ele>223.94168</ele>
        <time>2012-09-09T06:24:59Z</time>
      </trkpt>
      <trkpt lat="43.85233" lon="1.88678">
        <ele>222.07217</ele>
        <time>2012-09-09T06:25:03Z</time>
      </trkpt>
      <trkpt lat="43.85221" lon="1.88654">
        <ele>221.73651</ele>
        <time>2012-09-09T06:25:07Z</time>
      </trkpt>
      <trkpt lat="43.85216" lon="1.88629">
        <ele>224.44241</ele>
        <time>2012-09-09T06:25:11Z</time>
      </trkpt>
      <trkpt lat="43.85211" lon="1.88603">
        <ele>226.67397</ele>
        <time>2012-09-09T06:25:15Z</time>
      </trkpt>
      <trkpt lat="43.85205" lon="1.88579">
        <ele>228.3449</ele>
        <time>2012-09-09T06:25:19Z</time>
      </trkpt>
      <trkpt lat="43.85199" lon="1.8855">
        <ele>230.05014</ele>
        <time>2012-09-09T06:25:23Z</time>
      </trkpt>
      <trkpt lat="43.85192" lon="1.88521">
        <ele>231.17407</ele>
        <time>2012-09-09T06:25:27Z</time>
      </trkpt>
      <trkpt lat="43.85185" lon="1.88496">
        <ele>231.72499</ele>
        <time>2012-09-09T06:25:30Z</time>
      </trkpt>
      <trkpt lat="43.85179" lon="1.88471">
        <ele>231.14336</ele>
        <time>2012-09-09T06:25:33Z</time>
      </trkpt>
      <trkpt lat="43.85172" lon="1.88443">
        <ele>231.20267</ele>
        <time>2012-09-09T06:25:36Z</time>
      </trkpt>
      <trkpt lat="43.85165" lon="1.88414">
        <ele>229.7308</ele>
        <time>2012-09-09T06:25:39Z</time>
      </trkpt>
      <trkpt lat="43.8516" lon="1.88382">
        <ele>227.938</ele>
        <time>2012-09-09T06:25:42Z</time>
      </trkpt>
      <trkpt lat="43.85147" lon="1.88355">
        <ele>227.0254</ele>
        <time>2012-09-09T06:25:45Z</time>
      </trkpt>
      <trkpt lat="43.85133" lon="1.88332">
        <ele>226.4576</ele>
        <time>2012-09-09T06:25:48Z</time>
      </trkpt>
      <trkpt lat="43.85116" lon="1.88316">
        <ele>226.5743</ele>
        <time>2012-09-09T06:25:51Z</time>
      </trkpt>
      <trkpt lat="43.85101" lon="1.88301">
        <ele>226.76257</ele>
        <time>2012-09-09T06:25:55Z</time>
      </trkpt>
      <trkpt lat="43.85104" lon="1.88275">
        <ele>228.33815</ele>
        <time>2012-09-09T06:25:59Z</time>
      </trkpt>
      <trkpt lat="43.85115" lon="1.88249">
        <ele>228.3445</ele>
        <time>2012-09-09T06:26:03Z</time>
      </trkpt>
      <trkpt lat="43.85113" lon="1.8822">
        <ele>228.9629</ele>
        <time>2012-09-09T06:26:07Z</time>
      </trkpt>
      <trkpt lat="43.85103" lon="1.88198">
        <ele>228.11014</ele>
        <time>2012-09-09T06:26:11Z</time>
      </trkpt>
      <trkpt lat="43.85094" lon="1.88176">
        <ele>226.05165</ele>
        <time>2012-09-09T06:26:15Z</time>
      </trkpt>
      <trkpt lat="43.85086" lon="1.88148">
        <ele>225.08345</ele>
        <time>2012-09-09T06:26:20Z</time>
      </trkpt>
      <trkpt lat="43.85078" lon="1.8812">
        <ele>225.45555</ele>
        <time>2012-09-09T06:26:25Z</time>
      </trkpt>
      <trkpt lat="43.85069" lon="1.88097">
        <ele>224.78438</ele>
        <time>2012-09-09T06:26:29Z</time>
      </trkpt>
      <trkpt lat="43.85061" lon="1.8807">
        <ele>224.12871</ele>
        <time>2012-09-09T06:26:34Z</time>
      </trkpt>
      <trkpt lat="43.85047" lon="1.88047">
        <ele>223.73474</ele>
        <time>2012-09-09T06:26:39Z</time>
      </trkpt>
      <trkpt lat="43.85043" lon="1.88019">
        <ele>225.3305</ele>
        <time>2012-09-09T06:26:44Z</time>
      </trkpt>
      <trkpt lat="43.85038" lon="1.87995">
        <ele>226.22684</ele>
        <time>2012-09-09T06:26:48Z</time>
      </trkpt>
      <trkpt lat="43.85025" lon="1.87975">
        <ele>225.8472</ele>
        <time>2012-09-09T06:26:53Z</time>
      </trkpt>
      <trkpt lat="43.85002" lon="1.87984">
        <ele>224.41454</ele>
        <time>2012-09-09T06:27:01Z</time>
      </trkpt>
      <trkpt lat="43.84983" lon="1.87985">
        <ele>221.92488</ele>
        <time>2012-09-09T06:27:04Z</time>
      </trkpt>
      <trkpt lat="43.84975" lon="1.87961">
        <ele>220.52199</ele>
        <time>2012-09-09T06:27:14Z</time>
      </trkpt>
      <trkpt lat="43.84969" lon="1.87937">
        <ele>219.53607</ele>
        <time>2012-09-09T06:27:19Z</time>
      </trkpt>
      <trkpt lat="43.84962" lon="1.87912">
        <ele>221.67166</ele>
        <time>2012-09-09T06:27:26Z</time>
      </trkpt>
      <trkpt lat="43.8495" lon="1.87889">
        <ele>220.39932</ele>
        <time>2012-09-09T06:27:31Z</time>
      </trkpt>
      <trkpt lat="43.8493" lon="1.87879">
        <ele>217.60596</ele>
        <time>2012-09-09T06:27:34Z</time>
      </trkpt>
      <trkpt lat="43.84909" lon="1.87863">
        <ele>215.31033</ele>
        <time>2012-09-09T06:27:37Z</time>
      </trkpt>
      <trkpt lat="43.84895" lon="1.87841">
        <ele>212.87624</ele>
        <time>2012-09-09T06:27:40Z</time>
      </trkpt>
      <trkpt lat="43.84884" lon="1.87814">
        <ele>211.17435</ele>
        <time>2012-09-09T06:27:43Z</time>
      </trkpt>
      <trkpt lat="43.84873" lon="1.87789">
        <ele>209.96106</ele>
        <time>2012-09-09T06:27:46Z</time>
      </trkpt>
      <trkpt lat="43.84859" lon="1.8777">
        <ele>208.79353</ele>
        <time>2012-09-09T06:27:50Z</time>
      </trkpt>
      <trkpt lat="43.84847" lon="1.87752">
        <ele>206.60571</ele>
        <time>2012-09-09T06:27:57Z</time>
      </trkpt>
      <trkpt lat="43.84829" lon="1.87748">
        <ele>203.109</ele>
        <time>2012-09-09T06:28:14Z</time>
      </trkpt>
      <trkpt lat="43.84829" lon="1.87775">
        <ele>196.3469</ele>
        <time>2012-09-09T06:28:28Z</time>
      </trkpt>
      <trkpt lat="43.84812" lon="1.87785">
        <ele>204.0837</ele>
        <time>2012-09-09T06:28:59Z</time>
      </trkpt>
      <trkpt lat="43.848" lon="1.87805">
        <ele>203.04282</ele>
        <time>2012-09-09T06:29:11Z</time>
      </trkpt>
      <trkpt lat="43.848" lon="1.87832">
        <ele>203.96062</ele>
        <time>2012-09-09T06:29:19Z</time>
      </trkpt>
      <trkpt lat="43.84784" lon="1.87845">
        <ele>204.78871</ele>
        <time>2012-09-09T06:29:41Z</time>
      </trkpt>
      <trkpt lat="43.8477" lon="1.87826">
        <ele>208.86423</ele>
        <time>2012-09-09T06:29:49Z</time>
      </trkpt>
      <trkpt lat="43.84755" lon="1.87808">
        <ele>211.26746</ele>
        <time>2012-09-09T06:29:55Z</time>
      </trkpt>
      <trkpt lat="43.84742" lon="1.87789">
        <ele>211.89084</ele>
        <time>2012-09-09T06:30:01Z</time>
      </trkpt>
      <trkpt lat="43.8473" lon="1.8777">
        <ele>210.67581</ele>
        <time>2012-09-09T06:30:07Z</time>
      </trkpt>
      <trkpt lat="43.84709" lon="1.8777">
        <ele>209.65</ele>
        <time>2012-09-09T06:30:13Z</time>
      </trkpt>
      <trkpt lat="43.84696" lon="1.87787">
        <ele>209.0356</ele>
        <time>2012-09-09T06:30:18Z</time>
      </trkpt>
      <trkpt lat="43.84683" lon="1.87767">
        <ele>210.53459</ele>
        <time>2012-09-09T06:30:25Z</time>
      </trkpt>
      <trkpt lat="43.84682" lon="1.87738">
        <ele>209.71318</ele>
        <time>2012-09-09T06:30:31Z</time>
      </trkpt>
      <trkpt lat="43.84681" lon="1.8771">
        <ele>209.10068</ele>
        <time>2012-09-09T06:30:36Z</time>
      </trkpt>
      <trkpt lat="43.84696" lon="1.87689">
        <ele>208.94592</ele>
        <time>2012-09-09T06:30:40Z</time>
      </trkpt>
      <trkpt lat="43.84709" lon="1.87668">
        <ele>208.95866</ele>
        <time>2012-09-09T06:30:44Z</time>
      </trkpt>
      <trkpt lat="43.84724" lon="1.87643">
        <ele>208.80373</ele>
        <time>2012-09-09T06:30:48Z</time>
      </trkpt>
      <trkpt lat="43.84737" lon="1.87625">
        <ele>209.28908</ele>
        <time>2012-09-09T06:30:51Z</time>
      </trkpt>
      <trkpt lat="43.84751" lon="1.87606">
        <ele>210.17351</ele>
        <time>2012-09-09T06:30:54Z</time>
      </trkpt>
      <trkpt lat="43.84763" lon="1.87585">
        <ele>210.82477</ele>
        <time>2012-09-09T06:30:57Z</time>
      </trkpt>
      <trkpt lat="43.84777" lon="1.87559">
        <ele>211.53557</ele>
        <time>2012-09-09T06:31:01Z</time>
      </trkpt>
      <trkpt lat="43.84793" lon="1.87536">
        <ele>210.51477</ele>
        <time>2012-09-09T06:31:05Z</time>
      </trkpt>
      <trkpt lat="43.84803" lon="1.87508">
        <ele>209.466</ele>
        <time>2012-09-09T06:31:09Z</time>
      </trkpt>
      <trkpt lat="43.84803" lon="1.87482">
        <ele>209.38097</ele>
        <time>2012-09-09T06:31:12Z</time>
      </trkpt>
      <trkpt lat="43.84796" lon="1.87456">
        <ele>209.23416</ele>
        <time>2012-09-09T06:31:15Z</time>
      </trkpt>
      <trkpt lat="43.84784" lon="1.87431">
        <ele>209.40729</ele>
        <time>2012-09-09T06:31:19Z</time>
      </trkpt>
      <trkpt lat="43.84773" lon="1.8741">
        <ele>209.62495</ele>
        <time>2012-09-09T06:31:22Z</time>
      </trkpt>
      <trkpt lat="43.84765" lon="1.87388">
        <ele>209.02458</ele>
        <time>2012-09-09T06:31:25Z</time>
      </trkpt>
      <trkpt lat="43.8476" lon="1.87358">
        <ele>210.20778</ele>
        <time>2012-09-09T06:31:29Z</time>
      </trkpt>
      <trkpt lat="43.8475" lon="1.87328">
        <ele>212.96457</ele>
        <time>2012-09-09T06:31:33Z</time>
      </trkpt>
      <trkpt lat="43.8474" lon="1.87302">
        <ele>212.74817</ele>
        <time>2012-09-09T06:31:37Z</time>
      </trkpt>
      <trkpt lat="43.84735" lon="1.87273">
        <ele>211.42578</ele>
        <time>2012-09-09T06:31:41Z</time>
      </trkpt>
      <trkpt lat="43.84732" lon="1.87245">
        <ele>210.35503</ele>
        <time>2012-09-09T06:31:45Z</time>
      </trkpt>
      <trkpt lat="43.84712" lon="1.8725">
        <ele>209.44783</ele>
        <time>2012-09-09T06:31:51Z</time>
      </trkpt>
      <trkpt lat="43.847" lon="1.87274">
        <ele>209.11526</ele>
        <time>2012-09-09T06:31:56Z</time>
      </trkpt>
      <trkpt lat="43.84689" lon="1.87299">
        <ele>207.01251</ele>
        <time>2012-09-09T06:32:01Z</time>
      </trkpt>
      <trkpt lat="43.84675" lon="1.87318">
        <ele>207.66608</ele>
        <time>2012-09-09T06:32:05Z</time>
      </trkpt>
      <trkpt lat="43.84654" lon="1.87327">
        <ele>209.3338</ele>
        <time>2012-09-09T06:32:09Z</time>
      </trkpt>
      <trkpt lat="43.84636" lon="1.87334">
        <ele>210.35484</ele>
        <time>2012-09-09T06:32:13Z</time>
      </trkpt>
      <trkpt lat="43.84618" lon="1.87344">
        <ele>211.02</ele>
        <time>2012-09-09T06:32:16Z</time>
      </trkpt>
      <trkpt lat="43.84598" lon="1.87353">
        <ele>210.96297</ele>
        <time>2012-09-09T06:32:20Z</time>
      </trkpt>
      <trkpt lat="43.84578" lon="1.8736">
        <ele>210.79219</ele>
        <time>2012-09-09T06:32:24Z</time>
      </trkpt>
      <trkpt lat="43.84555" lon="1.87368">
        <ele>211.54558</ele>
        <time>2012-09-09T06:32:28Z</time>
      </trkpt>
      <trkpt lat="43.84535" lon="1.87374">
        <ele>210.6484</ele>
        <time>2012-09-09T06:32:32Z</time>
      </trkpt>
      <trkpt lat="43.84514" lon="1.8738">
        <ele>212.04071</ele>
        <time>2012-09-09T06:32:36Z</time>
      </trkpt>
      <trkpt lat="43.84495" lon="1.87387">
        <ele>213.9535</ele>
        <time>2012-09-09T06:32:40Z</time>
      </trkpt>
      <trkpt lat="43.84477" lon="1.87392">
        <ele>214.97202</ele>
        <time>2012-09-09T06:32:44Z</time>
      </trkpt>
      <trkpt lat="43.84459" lon="1.87396">
        <ele>216.33203</ele>
        <time>2012-09-09T06:32:49Z</time>
      </trkpt>
      <trkpt lat="43.84439" lon="1.87401">
        <ele>217.79259</ele>
        <time>2012-09-09T06:32:55Z</time>
      </trkpt>
      <trkpt lat="43.84419" lon="1.87406">
        <ele>220.60205</ele>
        <time>2012-09-09T06:33:01Z</time>
      </trkpt>
      <trkpt lat="43.84403" lon="1.87418">
        <ele>222.68497</ele>
        <time>2012-09-09T06:33:08Z</time>
      </trkpt>
      <trkpt lat="43.84384" lon="1.87424">
        <ele>221.85806</ele>
        <time>2012-09-09T06:33:21Z</time>
      </trkpt>
      <trkpt lat="43.84366" lon="1.87429">
        <ele>224.65665</ele>
        <time>2012-09-09T06:33:33Z</time>
      </trkpt>
      <trkpt lat="43.84348" lon="1.87433">
        <ele>228.78085</ele>
        <time>2012-09-09T06:33:43Z</time>
      </trkpt>
      <trkpt lat="43.84329" lon="1.87428">
        <ele>232.28003</ele>
        <time>2012-09-09T06:33:53Z</time>
      </trkpt>
      <trkpt lat="43.84309" lon="1.8742">
        <ele>235.06</ele>
        <time>2012-09-09T06:34:00Z</time>
      </trkpt>
      <trkpt lat="43.84293" lon="1.87407">
        <ele>237.6444</ele>
        <time>2012-09-09T06:34:06Z</time>
      </trkpt>
      <trkpt lat="43.84282" lon="1.87383">
        <ele>239.1975</ele>
        <time>2012-09-09T06:34:12Z</time>
      </trkpt>
      <trkpt lat="43.84265" lon="1.87368">
        <ele>235.15546</ele>
        <time>2012-09-09T06:34:19Z</time>
      </trkpt>
      <trkpt lat="43.84244" lon="1.87378">
        <ele>231.34084</ele>
        <time>2012-09-09T06:34:25Z</time>
      </trkpt>
      <trkpt lat="43.8423" lon="1.87354">
        <ele>230.5256</ele>
        <time>2012-09-09T06:34:31Z</time>
      </trkpt>
      <trkpt lat="43.84221" lon="1.87326">
        <ele>228.478</ele>
        <time>2012-09-09T06:34:34Z</time>
      </trkpt>
      <trkpt lat="43.84212" lon="1.87303">
        <ele>226.83138</ele>
        <time>2012-09-09T06:34:36Z</time>
      </trkpt>
      <trkpt lat="43.84199" lon="1.87279">
        <ele>224.32281</ele>
        <time>2012-09-09T06:34:40Z</time>
      </trkpt>
      <trkpt lat="43.84179" lon="1.87286">
        <ele>222.08813</ele>
        <time>2012-09-09T06:34:45Z</time>
      </trkpt>
      <trkpt lat="43.84163" lon="1.87297">
        <ele>221.47672</ele>
        <time>2012-09-09T06:34:49Z</time>
      </trkpt>
      <trkpt lat="43.84143" lon="1.87308">
        <ele>222.14224</ele>
        <time>2012-09-09T06:34:53Z</time>
      </trkpt>
      <trkpt lat="43.84125" lon="1.87319">
        <ele>221.09282</ele>
        <time>2012-09-09T06:34:56Z</time>
      </trkpt>
      <trkpt lat="43.84116" lon="1.87292">
        <ele>220.85362</ele>
        <time>2012-09-09T06:35:02Z</time>
      </trkpt>
      <trkpt lat="43.84119" lon="1.87263">
        <ele>220.31482</ele>
        <time>2012-09-09T06:35:05Z</time>
      </trkpt>
      <trkpt lat="43.84111" lon="1.87235">
        <ele>219.48593</ele>
        <time>2012-09-09T06:35:08Z</time>
      </trkpt>
      <trkpt lat="43.84096" lon="1.87214">
        <ele>219.84828</ele>
        <time>2012-09-09T06:35:12Z</time>
      </trkpt>
      <trkpt lat="43.84078" lon="1.87209">
        <ele>219.79182</ele>
        <time>2012-09-09T06:35:17Z</time>
      </trkpt>
      <trkpt lat="43.84055" lon="1.87211">
        <ele>218.14024</ele>
        <time>2012-09-09T06:35:22Z</time>
      </trkpt>
      <trkpt lat="43.84034" lon="1.87214">
        <ele>217.15233</ele>
        <time>2012-09-09T06:35:27Z</time>
      </trkpt>
      <trkpt lat="43.84015" lon="1.87217">
        <ele>216.19357</ele>
        <time>2012-09-09T06:35:32Z</time>
      </trkpt>
      <trkpt lat="43.83996" lon="1.87221">
        <ele>217.82452</ele>
        <time>2012-09-09T06:35:36Z</time>
      </trkpt>
      <trkpt lat="43.83977" lon="1.87226">
        <ele>217.40709</ele>
        <time>2012-09-09T06:35:41Z</time>
      </trkpt>
      <trkpt lat="43.83955" lon="1.87229">
        <ele>217.71535</ele>
        <time>2012-09-09T06:35:46Z</time>
      </trkpt>
      <trkpt lat="43.83938" lon="1.87234">
        <ele>217.60017</ele>
        <time>2012-09-09T06:35:50Z</time>
      </trkpt>
      <trkpt lat="43.83918" lon="1.8724">
        <ele>219.26352</ele>
        <time>2012-09-09T06:35:55Z</time>
      </trkpt>
      <trkpt lat="43.83902" lon="1.87221">
        <ele>219.55626</ele>
        <time>2012-09-09T06:36:06Z</time>
      </trkpt>
      <trkpt lat="43.83881" lon="1.87217">
        <ele>218.47237</ele>
        <time>2012-09-09T06:36:12Z</time>
      </trkpt>
      <trkpt lat="43.83869" lon="1.87195">
        <ele>218.81235</ele>
        <time>2012-09-09T06:36:20Z</time>
      </trkpt>
      <trkpt lat="43.83857" lon="1.87173">
        <ele>218.58934</ele>
        <time>2012-09-09T06:36:27Z</time>
      </trkpt>
      <trkpt lat="43.83843" lon="1.87155">
        <ele>217.43977</ele>
        <time>2012-09-09T06:36:34Z</time>
      </trkpt>
      <trkpt lat="43.83836" lon="1.87131">
        <ele>219.35901</ele>
        <time>2012-09-09T06:36:41Z</time>
      </trkpt>
      <trkpt lat="43.83828" lon="1.87108">
        <ele>218.41312</ele>
        <time>2012-09-09T06:36:47Z</time>
      </trkpt>
      <trkpt lat="43.83825" lon="1.87081">
        <ele>220.86548</ele>
        <time>2012-09-09T06:36:54Z</time>
      </trkpt>
      <trkpt lat="43.83819" lon="1.87057">
        <ele>225.96858</ele>
        <time>2012-09-09T06:37:02Z</time>
      </trkpt>
      <trkpt lat="43.83804" lon="1.87039">
        <ele>227.79465</ele>
        <time>2012-09-09T06:37:12Z</time>
      </trkpt>
      <trkpt lat="43.8379" lon="1.87021">
        <ele>227.8891</ele>
        <time>2012-09-09T06:37:20Z</time>
      </trkpt>
      <trkpt lat="43.83772" lon="1.87016">
        <ele>227.45865</ele>
        <time>2012-09-09T06:37:25Z</time>
      </trkpt>
      <trkpt lat="43.83753" lon="1.87015">
        <ele>229.16348</ele>
        <time>2012-09-09T06:37:29Z</time>
      </trkpt>
      <trkpt lat="43.83735" lon="1.87013">
        <ele>229.95172</ele>
        <time>2012-09-09T06:37:33Z</time>
      </trkpt>
      <trkpt lat="43.83716" lon="1.87008">
        <ele>228.96823</ele>
        <time>2012-09-09T06:37:38Z</time>
      </trkpt>
      <trkpt lat="43.83698" lon="1.86998">
        <ele>230.92284</ele>
        <time>2012-09-09T06:37:43Z</time>
      </trkpt>
      <trkpt lat="43.83682" lon="1.86982">
        <ele>234.49849</ele>
        <time>2012-09-09T06:37:48Z</time>
      </trkpt>
      <trkpt lat="43.83675" lon="1.86956">
        <ele>239.43243</ele>
        <time>2012-09-09T06:37:55Z</time>
      </trkpt>
      <trkpt lat="43.83663" lon="1.86936">
        <ele>243.65884</ele>
        <time>2012-09-09T06:38:02Z</time>
      </trkpt>
      <trkpt lat="43.83644" lon="1.86936">
        <ele>242.43594</ele>
        <time>2012-09-09T06:38:07Z</time>
      </trkpt>
      <trkpt lat="43.83621" lon="1.86941">
        <ele>241.84145</ele>
        <time>2012-09-09T06:38:11Z</time>
      </trkpt>
      <trkpt lat="43.83601" lon="1.86945">
        <ele>240.51312</ele>
        <time>2012-09-09T06:38:15Z</time>
      </trkpt>
      <trkpt lat="43.83579" lon="1.86954">
        <ele>240.88657</ele>
        <time>2012-09-09T06:38:19Z</time>
      </trkpt>
      <trkpt lat="43.83556" lon="1.86963">
        <ele>241.57796</ele>
        <time>2012-09-09T06:38:24Z</time>
      </trkpt>
      <trkpt lat="43.83535" lon="1.86973">
        <ele>240.54799</ele>
        <time>2012-09-09T06:38:29Z</time>
      </trkpt>
      <trkpt lat="43.83517" lon="1.86986">
        <ele>240.86441</ele>
        <time>2012-09-09T06:38:33Z</time>
      </trkpt>
      <trkpt lat="43.83499" lon="1.86998">
        <ele>243.85983</ele>
        <time>2012-09-09T06:38:37Z</time>
      </trkpt>
      <trkpt lat="43.83483" lon="1.87011">
        <ele>246.08807</ele>
        <time>2012-09-09T06:38:41Z</time>
      </trkpt>
      <trkpt lat="43.83463" lon="1.87025">
        <ele>246.73724</ele>
        <time>2012-09-09T06:38:45Z</time>
      </trkpt>
      <trkpt lat="43.83443" lon="1.87025">
        <ele>246.26842</ele>
        <time>2012-09-09T06:38:49Z</time>
      </trkpt>
      <trkpt lat="43.83423" lon="1.87022">
        <ele>245.2361</ele>
        <time>2012-09-09T06:38:53Z</time>
      </trkpt>
      <trkpt lat="43.83407" lon="1.87005">
        <ele>245.02158</ele>
        <time>2012-09-09T06:38:57Z</time>
      </trkpt>
      <trkpt lat="43.83391" lon="1.8699">
        <ele>244.383</ele>
        <time>2012-09-09T06:39:01Z</time>
      </trkpt>
      <trkpt lat="43.83374" lon="1.86972">
        <ele>244.30986</ele>
        <time>2012-09-09T06:39:05Z</time>
      </trkpt>
      <trkpt lat="43.83354" lon="1.86955">
        <ele>243.8664</ele>
        <time>2012-09-09T06:39:09Z</time>
      </trkpt>
      <trkpt lat="43.83336" lon="1.86937">
        <ele>243.29288</ele>
        <time>2012-09-09T06:39:13Z</time>
      </trkpt>
      <trkpt lat="43.83317" lon="1.86919">
        <ele>243.51025</ele>
        <time>2012-09-09T06:39:17Z</time>
      </trkpt>
      <trkpt lat="43.83298" lon="1.86899">
        <ele>243.87863</ele>
        <time>2012-09-09T06:39:21Z</time>
      </trkpt>
      <trkpt lat="43.83281" lon="1.86884">
        <ele>243.88582</ele>
        <time>2012-09-09T06:39:25Z</time>
      </trkpt>
      <trkpt lat="43.83265" lon="1.86897">
        <ele>244.34871</ele>
        <time>2012-09-09T06:39:28Z</time>
      </trkpt>
      <trkpt lat="43.8325" lon="1.86917">
        <ele>244.7908</ele>
        <time>2012-09-09T06:39:32Z</time>
      </trkpt>
      <trkpt lat="43.83235" lon="1.86938">
        <ele>244.98303</ele>
        <time>2012-09-09T06:39:36Z</time>
      </trkpt>
      <trkpt lat="43.83219" lon="1.8696">
        <ele>245.43448</ele>
        <time>2012-09-09T06:39:40Z</time>
      </trkpt>
      <trkpt lat="43.83203" lon="1.86982">
        <ele>245.30193</ele>
        <time>2012-09-09T06:39:44Z</time>
      </trkpt>
      <trkpt lat="43.8319" lon="1.86999">
        <ele>245.43205</ele>
        <time>2012-09-09T06:39:47Z</time>
      </trkpt>
      <trkpt lat="43.83176" lon="1.8702">
        <ele>245.53358</ele>
        <time>2012-09-09T06:39:51Z</time>
      </trkpt>
      <trkpt lat="43.83159" lon="1.87041">
        <ele>245.82274</ele>
        <time>2012-09-09T06:39:55Z</time>
      </trkpt>
      <trkpt lat="43.83144" lon="1.87057">
        <ele>246.12834</ele>
        <time>2012-09-09T06:39:58Z</time>
      </trkpt>
      <trkpt lat="43.83129" lon="1.87071">
        <ele>245.81508</ele>
        <time>2012-09-09T06:40:01Z</time>
      </trkpt>
      <trkpt lat="43.83113" lon="1.87087">
        <ele>244.94855</ele>
        <time>2012-09-09T06:40:04Z</time>
      </trkpt>
      <trkpt lat="43.83096" lon="1.87104">
        <ele>244.85403</ele>
        <time>2012-09-09T06:40:08Z</time>
      </trkpt>
      <trkpt lat="43.83082" lon="1.87121">
        <ele>244.90561</ele>
        <time>2012-09-09T06:40:11Z</time>
      </trkpt>
      <trkpt lat="43.83064" lon="1.87144">
        <ele>243.89044</ele>
        <time>2012-09-09T06:40:15Z</time>
      </trkpt>
      <trkpt lat="43.83049" lon="1.8716">
        <ele>243.0444</ele>
        <time>2012-09-09T06:40:18Z</time>
      </trkpt>
      <trkpt lat="43.8303" lon="1.87169">
        <ele>243.15936</ele>
        <time>2012-09-09T06:40:21Z</time>
      </trkpt>
      <trkpt lat="43.83012" lon="1.87182">
        <ele>243.63441</ele>
        <time>2012-09-09T06:40:24Z</time>
      </trkpt>
      <trkpt lat="43.8299" lon="1.872">
        <ele>242.5687</ele>
        <time>2012-09-09T06:40:28Z</time>
      </trkpt>
      <trkpt lat="43.82969" lon="1.87217">
        <ele>241.08775</ele>
        <time>2012-09-09T06:40:32Z</time>
      </trkpt>
      <trkpt lat="43.82953" lon="1.87233">
        <ele>240.09328</ele>
        <time>2012-09-09T06:40:35Z</time>
      </trkpt>
      <trkpt lat="43.82934" lon="1.87245">
        <ele>240.01591</ele>
        <time>2012-09-09T06:40:38Z</time>
      </trkpt>
      <trkpt lat="43.82916" lon="1.87258">
        <ele>239.66139</ele>
        <time>2012-09-09T06:40:41Z</time>
      </trkpt>
      <trkpt lat="43.82899" lon="1.87274">
        <ele>237.24464</ele>
        <time>2012-09-09T06:40:44Z</time>
      </trkpt>
      <trkpt lat="43.82884" lon="1.87293">
        <ele>236.57822</ele>
        <time>2012-09-09T06:40:47Z</time>
      </trkpt>
      <trkpt lat="43.82873" lon="1.87316">
        <ele>238.05019</ele>
        <time>2012-09-09T06:40:50Z</time>
      </trkpt>
      <trkpt lat="43.82862" lon="1.87342">
        <ele>240.26648</ele>
        <time>2012-09-09T06:40:53Z</time>
      </trkpt>
      <trkpt lat="43.82849" lon="1.87363">
        <ele>241.32492</ele>
        <time>2012-09-09T06:40:56Z</time>
      </trkpt>
      <trkpt lat="43.82841" lon="1.87388">
        <ele>243.91208</ele>
        <time>2012-09-09T06:40:59Z</time>
      </trkpt>
      <trkpt lat="43.82831" lon="1.8741">
        <ele>246.4754</ele>
        <time>2012-09-09T06:41:02Z</time>
      </trkpt>
      <trkpt lat="43.82823" lon="1.87433">
        <ele>247.57712</ele>
        <time>2012-09-09T06:41:05Z</time>
      </trkpt>
      <trkpt lat="43.82814" lon="1.87458">
        <ele>247.83879</ele>
        <time>2012-09-09T06:41:08Z</time>
      </trkpt>
      <trkpt lat="43.82796" lon="1.87476">
        <ele>248.43042</ele>
        <time>2012-09-09T06:41:11Z</time>
      </trkpt>
      <trkpt lat="43.82783" lon="1.87497">
        <ele>248.8519</ele>
        <time>2012-09-09T06:41:14Z</time>
      </trkpt>
      <trkpt lat="43.82775" lon="1.87523">
        <ele>248.20782</ele>
        <time>2012-09-09T06:41:17Z</time>
      </trkpt>
      <trkpt lat="43.8276" lon="1.87547">
        <ele>247.39192</ele>
        <time>2012-09-09T06:41:21Z</time>
      </trkpt>
      <trkpt lat="43.8275" lon="1.87573">
        <ele>247.07004</ele>
        <time>2012-09-09T06:41:24Z</time>
      </trkpt>
      <trkpt lat="43.82735" lon="1.87592">
        <ele>246.64362</ele>
        <time>2012-09-09T06:41:27Z</time>
      </trkpt>
      <trkpt lat="43.82722" lon="1.87613">
        <ele>244.91684</ele>
        <time>2012-09-09T06:41:30Z</time>
      </trkpt>
      <trkpt lat="43.82707" lon="1.87637">
        <ele>243.61336</ele>
        <time>2012-09-09T06:41:33Z</time>
      </trkpt>
      <trkpt lat="43.82689" lon="1.87659">
        <ele>242.98898</ele>
        <time>2012-09-09T06:41:37Z</time>
      </trkpt>
      <trkpt lat="43.82674" lon="1.87676">
        <ele>241.52191</ele>
        <time>2012-09-09T06:41:40Z</time>
      </trkpt>
      <trkpt lat="43.82661" lon="1.87695">
        <ele>241.15613</ele>
        <time>2012-09-09T06:41:43Z</time>
      </trkpt>
      <trkpt lat="43.82648" lon="1.87712">
        <ele>241.08305</ele>
        <time>2012-09-09T06:41:46Z</time>
      </trkpt>
      <trkpt lat="43.8263" lon="1.87733">
        <ele>242.2622</ele>
        <time>2012-09-09T06:41:50Z</time>
      </trkpt>
      <trkpt lat="43.82611" lon="1.87752">
        <ele>242.79665</ele>
        <time>2012-09-09T06:41:54Z</time>
      </trkpt>
      <trkpt lat="43.82597" lon="1.87771">
        <ele>243.42671</ele>
        <time>2012-09-09T06:41:57Z</time>
      </trkpt>
      <trkpt lat="43.82576" lon="1.87789">
        <ele>244.41821</ele>
        <time>2012-09-09T06:42:01Z</time>
      </trkpt>
      <trkpt lat="43.82559" lon="1.87808">
        <ele>245.18741</ele>
        <time>2012-09-09T06:42:05Z</time>
      </trkpt>
      <trkpt lat="43.82544" lon="1.87823">
        <ele>245.80406</ele>
        <time>2012-09-09T06:42:08Z</time>
      </trkpt>
      <trkpt lat="43.82525" lon="1.87844">
        <ele>246.76027</ele>
        <time>2012-09-09T06:42:12Z</time>
      </trkpt>
      <trkpt lat="43.82512" lon="1.87861">
        <ele>246.027</ele>
        <time>2012-09-09T06:42:15Z</time>
      </trkpt>
      <trkpt lat="43.82497" lon="1.87878">
        <ele>245.68013</ele>
        <time>2012-09-09T06:42:18Z</time>
      </trkpt>
      <trkpt lat="43.82481" lon="1.87899">
        <ele>244.85349</ele>
        <time>2012-09-09T06:42:22Z</time>
      </trkpt>
      <trkpt lat="43.82466" lon="1.87922">
        <ele>244.36223</ele>
        <time>2012-09-09T06:42:26Z</time>
      </trkpt>
      <trkpt lat="43.82448" lon="1.87942">
        <ele>244.81618</ele>
        <time>2012-09-09T06:42:30Z</time>
      </trkpt>
      <trkpt lat="43.82431" lon="1.87964">
        <ele>245.22777</ele>
        <time>2012-09-09T06:42:34Z</time>
      </trkpt>
      <trkpt lat="43.82418" lon="1.87982">
        <ele>246.42265</ele>
        <time>2012-09-09T06:42:37Z</time>
      </trkpt>
      <trkpt lat="43.82404" lon="1.87998">
        <ele>247.30019</ele>
        <time>2012-09-09T06:42:40Z</time>
      </trkpt>
      <trkpt lat="43.82389" lon="1.88019">
        <ele>248.34732</ele>
        <time>2012-09-09T06:42:44Z</time>
      </trkpt>
      <trkpt lat="43.82377" lon="1.88042">
        <ele>249.87592</ele>
        <time>2012-09-09T06:42:48Z</time>
      </trkpt>
      <trkpt lat="43.82358" lon="1.88046">
        <ele>247.71387</ele>
        <time>2012-09-09T06:42:52Z</time>
      </trkpt>
      <trkpt lat="43.82349" lon="1.8802">
        <ele>245.81834</ele>
        <time>2012-09-09T06:42:55Z</time>
      </trkpt>
      <trkpt lat="43.82344" lon="1.87993">
        <ele>242.5968</ele>
        <time>2012-09-09T06:42:58Z</time>
      </trkpt>
      <trkpt lat="43.82343" lon="1.87966">
        <ele>242.24396</ele>
        <time>2012-09-09T06:43:01Z</time>
      </trkpt>
      <trkpt lat="43.82336" lon="1.87936">
        <ele>243.03032</ele>
        <time>2012-09-09T06:43:05Z</time>
      </trkpt>
      <trkpt lat="43.82327" lon="1.87912">
        <ele>243.22372</ele>
        <time>2012-09-09T06:43:08Z</time>
      </trkpt>
      <trkpt lat="43.8232" lon="1.87889">
        <ele>244.02408</ele>
        <time>2012-09-09T06:43:11Z</time>
      </trkpt>
      <trkpt lat="43.82311" lon="1.87864">
        <ele>244.55704</ele>
        <time>2012-09-09T06:43:14Z</time>
      </trkpt>
      <trkpt lat="43.82302" lon="1.87834">
        <ele>245.69695</ele>
        <time>2012-09-09T06:43:18Z</time>
      </trkpt>
      <trkpt lat="43.82292" lon="1.87812">
        <ele>246.49402</ele>
        <time>2012-09-09T06:43:21Z</time>
      </trkpt>
      <trkpt lat="43.82288" lon="1.87781">
        <ele>248.0131</ele>
        <time>2012-09-09T06:43:24Z</time>
      </trkpt>
      <trkpt lat="43.8228" lon="1.87749">
        <ele>249.1686</ele>
        <time>2012-09-09T06:43:28Z</time>
      </trkpt>
      <trkpt lat="43.82273" lon="1.87724">
        <ele>249.73207</ele>
        <time>2012-09-09T06:43:31Z</time>
      </trkpt>
      <trkpt lat="43.82262" lon="1.87701">
        <ele>250.22134</ele>
        <time>2012-09-09T06:43:34Z</time>
      </trkpt>
      <trkpt lat="43.82248" lon="1.87679">
        <ele>249.2262</ele>
        <time>2012-09-09T06:43:37Z</time>
      </trkpt>
      <trkpt lat="43.82232" lon="1.87656">
        <ele>249.39854</ele>
        <time>2012-09-09T06:43:40Z</time>
      </trkpt>
      <trkpt lat="43.82221" lon="1.87628">
        <ele>249.07594</ele>
        <time>2012-09-09T06:43:43Z</time>
      </trkpt>
      <trkpt lat="43.82206" lon="1.87598">
        <ele>247.42735</ele>
        <time>2012-09-09T06:43:46Z</time>
      </trkpt>
      <trkpt lat="43.82195" lon="1.87578">
        <ele>246.12788</ele>
        <time>2012-09-09T06:43:48Z</time>
      </trkpt>
      <trkpt lat="43.82184" lon="1.87557">
        <ele>244.43443</ele>
        <time>2012-09-09T06:43:50Z</time>
      </trkpt>
      <trkpt lat="43.82173" lon="1.87537">
        <ele>243.18813</ele>
        <time>2012-09-09T06:43:52Z</time>
      </trkpt>
      <trkpt lat="43.82162" lon="1.87515">
        <ele>242.55582</ele>
        <time>2012-09-09T06:43:54Z</time>
      </trkpt>
      <trkpt lat="43.82155" lon="1.8749">
        <ele>241.9814</ele>
        <time>2012-09-09T06:43:56Z</time>
      </trkpt>
      <trkpt lat="43.82139" lon="1.87465">
        <ele>240.92027</ele>
        <time>2012-09-09T06:43:59Z</time>
      </trkpt>
      <trkpt lat="43.82118" lon="1.87455">
        <ele>240.3023</ele>
        <time>2012-09-09T06:44:02Z</time>
      </trkpt>
      <trkpt lat="43.82106" lon="1.87436">
        <ele>240.53847</ele>
        <time>2012-09-09T06:44:05Z</time>
      </trkpt>
      <trkpt lat="43.82092" lon="1.87419">
        <ele>242.15999</ele>
        <time>2012-09-09T06:44:08Z</time>
      </trkpt>
      <trkpt lat="43.82078" lon="1.874">
        <ele>244.34874</ele>
        <time>2012-09-09T06:44:11Z</time>
      </trkpt>
      <trkpt lat="43.82061" lon="1.87389">
        <ele>245.37994</ele>
        <time>2012-09-09T06:44:14Z</time>
      </trkpt>
      <trkpt lat="43.82044" lon="1.87375">
        <ele>246.26341</ele>
        <time>2012-09-09T06:44:17Z</time>
      </trkpt>
      <trkpt lat="43.82028" lon="1.87361">
        <ele>245.95488</ele>
        <time>2012-09-09T06:44:20Z</time>
      </trkpt>
      <trkpt lat="43.82009" lon="1.87344">
        <ele>246.8408</ele>
        <time>2012-09-09T06:44:24Z</time>
      </trkpt>
      <trkpt lat="43.81991" lon="1.87329">
        <ele>245.32776</ele>
        <time>2012-09-09T06:44:28Z</time>
      </trkpt>
      <trkpt lat="43.81971" lon="1.87314">
        <ele>243.49355</ele>
        <time>2012-09-09T06:44:32Z</time>
      </trkpt>
      <trkpt lat="43.81955" lon="1.87302">
        <ele>243.38791</ele>
        <time>2012-09-09T06:44:35Z</time>
      </trkpt>
      <trkpt lat="43.81936" lon="1.87284">
        <ele>243.6868</ele>
        <time>2012-09-09T06:44:39Z</time>
      </trkpt>
      <trkpt lat="43.81918" lon="1.87275">
        <ele>245.05246</ele>
        <time>2012-09-09T06:44:43Z</time>
      </trkpt>
      <trkpt lat="43.81897" lon="1.87263">
        <ele>246.02792</ele>
        <time>2012-09-09T06:44:47Z</time>
      </trkpt>
      <trkpt lat="43.81876" lon="1.87248">
        <ele>246.02914</ele>
        <time>2012-09-09T06:44:51Z</time>
      </trkpt>
      <trkpt lat="43.81859" lon="1.87237">
        <ele>246.55258</ele>
        <time>2012-09-09T06:44:55Z</time>
      </trkpt>
      <trkpt lat="43.81842" lon="1.87223">
        <ele>246.93</ele>
        <time>2012-09-09T06:44:58Z</time>
      </trkpt>
      <trkpt lat="43.8182" lon="1.87214">
        <ele>248.5177</ele>
        <time>2012-09-09T06:45:02Z</time>
      </trkpt>
      <trkpt lat="43.81799" lon="1.87207">
        <ele>251.0517</ele>
        <time>2012-09-09T06:45:06Z</time>
      </trkpt>
      <trkpt lat="43.81782" lon="1.87196">
        <ele>250.814</ele>
        <time>2012-09-09T06:45:09Z</time>
      </trkpt>
      <trkpt lat="43.81765" lon="1.87183">
        <ele>252.69183</ele>
        <time>2012-09-09T06:45:12Z</time>
      </trkpt>
      <trkpt lat="43.8175" lon="1.8717">
        <ele>253.25594</ele>
        <time>2012-09-09T06:45:15Z</time>
      </trkpt>
      <trkpt lat="43.81729" lon="1.87154">
        <ele>254.05989</ele>
        <time>2012-09-09T06:45:19Z</time>
      </trkpt>
      <trkpt lat="43.8171" lon="1.87147">
        <ele>253.80528</ele>
        <time>2012-09-09T06:45:23Z</time>
      </trkpt>
      <trkpt lat="43.81689" lon="1.87138">
        <ele>253.0419</ele>
        <time>2012-09-09T06:45:27Z</time>
      </trkpt>
      <trkpt lat="43.81669" lon="1.87128">
        <ele>252.19919</ele>
        <time>2012-09-09T06:45:31Z</time>
      </trkpt>
      <trkpt lat="43.81648" lon="1.87114">
        <ele>252.42319</ele>
        <time>2012-09-09T06:45:35Z</time>
      </trkpt>
      <trkpt lat="43.81628" lon="1.87105">
        <ele>252.11397</ele>
        <time>2012-09-09T06:45:39Z</time>
      </trkpt>
      <trkpt lat="43.81608" lon="1.8709">
        <ele>252.8927</ele>
        <time>2012-09-09T06:45:43Z</time>
      </trkpt>
      <trkpt lat="43.81588" lon="1.87075">
        <ele>254.79613</ele>
        <time>2012-09-09T06:45:47Z</time>
      </trkpt>
      <trkpt lat="43.8157" lon="1.8706">
        <ele>256.62418</ele>
        <time>2012-09-09T06:45:51Z</time>
      </trkpt>
      <trkpt lat="43.81552" lon="1.87045">
        <ele>257.07523</ele>
        <time>2012-09-09T06:45:55Z</time>
      </trkpt>
      <trkpt lat="43.81533" lon="1.87032">
        <ele>257.3113</ele>
        <time>2012-09-09T06:45:59Z</time>
      </trkpt>
      <trkpt lat="43.81515" lon="1.87019">
        <ele>258.24304</ele>
        <time>2012-09-09T06:46:03Z</time>
      </trkpt>
      <trkpt lat="43.81494" lon="1.87007">
        <ele>259.53354</ele>
        <time>2012-09-09T06:46:07Z</time>
      </trkpt>
      <trkpt lat="43.81474" lon="1.86999">
        <ele>260.15396</ele>
        <time>2012-09-09T06:46:11Z</time>
      </trkpt>
      <trkpt lat="43.81454" lon="1.86989">
        <ele>259.63464</ele>
        <time>2012-09-09T06:46:15Z</time>
      </trkpt>
      <trkpt lat="43.81432" lon="1.86982">
        <ele>258.1379</ele>
        <time>2012-09-09T06:46:19Z</time>
      </trkpt>
      <trkpt lat="43.81411" lon="1.86973">
        <ele>258.9874</ele>
        <time>2012-09-09T06:46:23Z</time>
      </trkpt>
      <trkpt lat="43.81391" lon="1.86963">
        <ele>261.36945</ele>
        <time>2012-09-09T06:46:27Z</time>
      </trkpt>
      <trkpt lat="43.81373" lon="1.86951">
        <ele>262.3169</ele>
        <time>2012-09-09T06:46:31Z</time>
      </trkpt>
      <trkpt lat="43.81354" lon="1.8694">
        <ele>263.50262</ele>
        <time>2012-09-09T06:46:35Z</time>
      </trkpt>
      <trkpt lat="43.81335" lon="1.86943">
        <ele>264.03638</ele>
        <time>2012-09-09T06:46:39Z</time>
      </trkpt>
      <trkpt lat="43.81315" lon="1.86953">
        <ele>266.13586</ele>
        <time>2012-09-09T06:46:44Z</time>
      </trkpt>
      <trkpt lat="43.81295" lon="1.86963">
        <ele>267.49338</ele>
        <time>2012-09-09T06:46:49Z</time>
      </trkpt>
      <trkpt lat="43.81277" lon="1.86975">
        <ele>267.30347</ele>
        <time>2012-09-09T06:46:52Z</time>
      </trkpt>
      <trkpt lat="43.8126" lon="1.8699">
        <ele>267.52386</ele>
        <time>2012-09-09T06:46:57Z</time>
      </trkpt>
      <trkpt lat="43.81243" lon="1.8701">
        <ele>266.8754</ele>
        <time>2012-09-09T06:47:02Z</time>
      </trkpt>
      <trkpt lat="43.81222" lon="1.87029">
        <ele>268.6096</ele>
        <time>2012-09-09T06:47:09Z</time>
      </trkpt>
      <trkpt lat="43.81209" lon="1.87045">
        <ele>266.39954</ele>
        <time>2012-09-09T06:47:13Z</time>
      </trkpt>
      <trkpt lat="43.8119" lon="1.8705">
        <ele>264.38022</ele>
        <time>2012-09-09T06:47:23Z</time>
      </trkpt>
      <trkpt lat="43.81172" lon="1.87037">
        <ele>274.28302</ele>
        <time>2012-09-09T06:47:34Z</time>
      </trkpt>
      <trkpt lat="43.81157" lon="1.87025">
        <ele>281.0674</ele>
        <time>2012-09-09T06:47:43Z</time>
      </trkpt>
      <trkpt lat="43.81143" lon="1.87007">
        <ele>281.4752</ele>
        <time>2012-09-09T06:47:54Z</time>
      </trkpt>
      <trkpt lat="43.81129" lon="1.8699">
        <ele>283.56265</ele>
        <time>2012-09-09T06:48:02Z</time>
      </trkpt>
      <trkpt lat="43.81115" lon="1.86974">
        <ele>286.9709</ele>
        <time>2012-09-09T06:48:13Z</time>
      </trkpt>
      <trkpt lat="43.81099" lon="1.86962">
        <ele>288.20346</ele>
        <time>2012-09-09T06:48:24Z</time>
      </trkpt>
      <trkpt lat="43.81085" lon="1.86947">
        <ele>292.34262</ele>
        <time>2012-09-09T06:48:35Z</time>
      </trkpt>
      <trkpt lat="43.81071" lon="1.8693">
        <ele>295.4617</ele>
        <time>2012-09-09T06:48:44Z</time>
      </trkpt>
      <trkpt lat="43.81056" lon="1.86913">
        <ele>299.4266</ele>
        <time>2012-09-09T06:48:56Z</time>
      </trkpt>
      <trkpt lat="43.81037" lon="1.86909">
        <ele>296.6434</ele>
        <time>2012-09-09T06:49:09Z</time>
      </trkpt>
      <trkpt lat="43.81019" lon="1.86917">
        <ele>297.9032</ele>
        <time>2012-09-09T06:49:21Z</time>
      </trkpt>
      <trkpt lat="43.81001" lon="1.86925">
        <ele>300.78632</ele>
        <time>2012-09-09T06:49:30Z</time>
      </trkpt>
      <trkpt lat="43.80983" lon="1.86935">
        <ele>304.23923</ele>
        <time>2012-09-09T06:49:38Z</time>
      </trkpt>
      <trkpt lat="43.80965" lon="1.86944">
        <ele>310.5214</ele>
        <time>2012-09-09T06:49:47Z</time>
      </trkpt>
      <trkpt lat="43.80948" lon="1.86955">
        <ele>311.55017</ele>
        <time>2012-09-09T06:49:55Z</time>
      </trkpt>
      <trkpt lat="43.80932" lon="1.86968">
        <ele>310.948</ele>
        <time>2012-09-09T06:50:02Z</time>
      </trkpt>
      <trkpt lat="43.80916" lon="1.8698">
        <ele>311.9159</ele>
        <time>2012-09-09T06:50:07Z</time>
      </trkpt>
      <trkpt lat="43.80898" lon="1.86995">
        <ele>312.2896</ele>
        <time>2012-09-09T06:50:13Z</time>
      </trkpt>
      <trkpt lat="43.8088" lon="1.87008">
        <ele>315.50925</ele>
        <time>2012-09-09T06:50:18Z</time>
      </trkpt>
      <trkpt lat="43.80867" lon="1.87026">
        <ele>314.70786</ele>
        <time>2012-09-09T06:50:23Z</time>
      </trkpt>
      <trkpt lat="43.80849" lon="1.87032">
        <ele>313.997</ele>
        <time>2012-09-09T06:50:31Z</time>
      </trkpt>
      <trkpt lat="43.80851" lon="1.87006">
        <ele>314.78934</ele>
        <time>2012-09-09T06:50:38Z</time>
      </trkpt>
      <trkpt lat="43.80841" lon="1.86982">
        <ele>314.87985</ele>
        <time>2012-09-09T06:50:45Z</time>
      </trkpt>
      <trkpt lat="43.80829" lon="1.86958">
        <ele>312.79248</ele>
        <time>2012-09-09T06:50:50Z</time>
      </trkpt>
      <trkpt lat="43.80819" lon="1.86935">
        <ele>310.77692</ele>
        <time>2012-09-09T06:50:54Z</time>
      </trkpt>
      <trkpt lat="43.80836" lon="1.86909">
        <ele>307.491</ele>
        <time>2012-09-09T06:51:00Z</time>
      </trkpt>
      <trkpt lat="43.80852" lon="1.86891">
        <ele>303.19324</ele>
        <time>2012-09-09T06:51:04Z</time>
      </trkpt>
      <trkpt lat="43.80867" lon="1.86872">
        <ele>300.1081</ele>
        <time>2012-09-09T06:51:07Z</time>
      </trkpt>
      <trkpt lat="43.80876" lon="1.86849">
        <ele>297.6143</ele>
        <time>2012-09-09T06:51:11Z</time>
      </trkpt>
      <trkpt lat="43.80874" lon="1.86821">
        <ele>292.3154</ele>
        <time>2012-09-09T06:51:14Z</time>
      </trkpt>
      <trkpt lat="43.80861" lon="1.86787">
        <ele>283.12213</ele>
        <time>2012-09-09T06:51:17Z</time>
      </trkpt>
      <trkpt lat="43.8085" lon="1.86759">
        <ele>277.5187</ele>
        <time>2012-09-09T06:51:19Z</time>
      </trkpt>
      <trkpt lat="43.80842" lon="1.86735">
        <ele>272.69177</ele>
        <time>2012-09-09T06:51:21Z</time>
      </trkpt>
      <trkpt lat="43.80838" lon="1.8671">
        <ele>266.03143</ele>
        <time>2012-09-09T06:51:26Z</time>
      </trkpt>
      <trkpt lat="43.80842" lon="1.86681">
        <ele>263.3694</ele>
        <time>2012-09-09T06:51:31Z</time>
      </trkpt>
      <trkpt lat="43.80848" lon="1.86657">
        <ele>261.60272</ele>
        <time>2012-09-09T06:51:34Z</time>
      </trkpt>
      <trkpt lat="43.80844" lon="1.86629">
        <ele>260.84695</ele>
        <time>2012-09-09T06:51:38Z</time>
      </trkpt>
      <trkpt lat="43.80827" lon="1.86618">
        <ele>259.40775</ele>
        <time>2012-09-09T06:51:44Z</time>
      </trkpt>
      <trkpt lat="43.80812" lon="1.86603">
        <ele>257.49396</ele>
        <time>2012-09-09T06:51:53Z</time>
      </trkpt>
      <trkpt lat="43.80799" lon="1.86585">
        <ele>257.5954</ele>
        <time>2012-09-09T06:52:03Z</time>
      </trkpt>
      <trkpt lat="43.80787" lon="1.86566">
        <ele>261.46674</ele>
        <time>2012-09-09T06:52:13Z</time>
      </trkpt>
      <trkpt lat="43.80773" lon="1.86547">
        <ele>265.2867</ele>
        <time>2012-09-09T06:52:23Z</time>
      </trkpt>
      <trkpt lat="43.80761" lon="1.86527">
        <ele>268.72284</ele>
        <time>2012-09-09T06:52:32Z</time>
      </trkpt>
      <trkpt lat="43.80741" lon="1.86528">
        <ele>270.60162</ele>
        <time>2012-09-09T06:52:43Z</time>
      </trkpt>
      <trkpt lat="43.80731" lon="1.8655">
        <ele>270.52118</ele>
        <time>2012-09-09T06:52:51Z</time>
      </trkpt>
      <trkpt lat="43.80716" lon="1.86563">
        <ele>271.1191</ele>
        <time>2012-09-09T06:52:57Z</time>
      </trkpt>
      <trkpt lat="43.80699" lon="1.86575">
        <ele>274.85138</ele>
        <time>2012-09-09T06:53:04Z</time>
      </trkpt>
      <trkpt lat="43.80679" lon="1.86579">
        <ele>272.95352</ele>
        <time>2012-09-09T06:53:11Z</time>
      </trkpt>
      <trkpt lat="43.80664" lon="1.86594">
        <ele>275.71878</ele>
        <time>2012-09-09T06:53:18Z</time>
      </trkpt>
      <trkpt lat="43.80652" lon="1.86613">
        <ele>278.38925</ele>
        <time>2012-09-09T06:53:25Z</time>
      </trkpt>
      <trkpt lat="43.80632" lon="1.86622">
        <ele>277.96753</ele>
        <time>2012-09-09T06:53:33Z</time>
      </trkpt>
      <trkpt lat="43.80614" lon="1.86634">
        <ele>276.24338</ele>
        <time>2012-09-09T06:53:41Z</time>
      </trkpt>
      <trkpt lat="43.80594" lon="1.86645">
        <ele>278.48993</ele>
        <time>2012-09-09T06:53:49Z</time>
      </trkpt>
      <trkpt lat="43.80576" lon="1.86655">
        <ele>279.54654</ele>
        <time>2012-09-09T06:53:56Z</time>
      </trkpt>
      <trkpt lat="43.80558" lon="1.86662">
        <ele>285.0579</ele>
        <time>2012-09-09T06:54:04Z</time>
      </trkpt>
      <trkpt lat="43.80539" lon="1.86667">
        <ele>288.3274</ele>
        <time>2012-09-09T06:54:13Z</time>
      </trkpt>
      <trkpt lat="43.80522" lon="1.86679">
        <ele>288.655</ele>
        <time>2012-09-09T06:54:20Z</time>
      </trkpt>
      <trkpt lat="43.80503" lon="1.86685">
        <ele>290.6526</ele>
        <time>2012-09-09T06:54:27Z</time>
      </trkpt>
      <trkpt lat="43.80486" lon="1.86693">
        <ele>292.8141</ele>
        <time>2012-09-09T06:54:34Z</time>
      </trkpt>
      <trkpt lat="43.80467" lon="1.86698">
        <ele>295.06213</ele>
        <time>2012-09-09T06:54:42Z</time>
      </trkpt>
      <trkpt lat="43.80449" lon="1.86702">
        <ele>298.32147</ele>
        <time>2012-09-09T06:54:49Z</time>
      </trkpt>
      <trkpt lat="43.8043" lon="1.86708">
        <ele>299.2367</ele>
        <time>2012-09-09T06:54:56Z</time>
      </trkpt>
      <trkpt lat="43.80412" lon="1.86715">
        <ele>304.38507</ele>
        <time>2012-09-09T06:55:04Z</time>
      </trkpt>
      <trkpt lat="43.80395" lon="1.86728">
        <ele>301.54623</ele>
        <time>2012-09-09T06:55:10Z</time>
      </trkpt>
      <trkpt lat="43.80388" lon="1.86754">
        <ele>301.6393</ele>
        <time>2012-09-09T06:55:17Z</time>
      </trkpt>
      <trkpt lat="43.80392" lon="1.86782">
        <ele>302.5088</ele>
        <time>2012-09-09T06:55:20Z</time>
      </trkpt>
      <trkpt lat="43.80394" lon="1.86812">
        <ele>301.02557</ele>
        <time>2012-09-09T06:55:23Z</time>
      </trkpt>
      <trkpt lat="43.80397" lon="1.86841">
        <ele>299.10922</ele>
        <time>2012-09-09T06:55:26Z</time>
      </trkpt>
      <trkpt lat="43.80392" lon="1.86865">
        <ele>298.34894</ele>
        <time>2012-09-09T06:55:28Z</time>
      </trkpt>
      <trkpt lat="43.80377" lon="1.86885">
        <ele>298.26978</ele>
        <time>2012-09-09T06:55:32Z</time>
      </trkpt>
      <trkpt lat="43.80365" lon="1.86903">
        <ele>295.15445</ele>
        <time>2012-09-09T06:55:35Z</time>
      </trkpt>
      <trkpt lat="43.80357" lon="1.86927">
        <ele>297.00394</ele>
        <time>2012-09-09T06:55:40Z</time>
      </trkpt>
      <trkpt lat="43.80346" lon="1.86948">
        <ele>298.97543</ele>
        <time>2012-09-09T06:55:45Z</time>
      </trkpt>
      <trkpt lat="43.80327" lon="1.86955">
        <ele>306.59308</ele>
        <time>2012-09-09T06:55:52Z</time>
      </trkpt>
      <trkpt lat="43.80309" lon="1.86965">
        <ele>310.48654</ele>
        <time>2012-09-09T06:56:00Z</time>
      </trkpt>
      <trkpt lat="43.80291" lon="1.8698">
        <ele>306.14923</ele>
        <time>2012-09-09T06:56:09Z</time>
      </trkpt>
      <trkpt lat="43.80273" lon="1.87001">
        <ele>302.83392</ele>
        <time>2012-09-09T06:56:13Z</time>
      </trkpt>
      <trkpt lat="43.80256" lon="1.87016">
        <ele>304.27994</ele>
        <time>2012-09-09T06:56:16Z</time>
      </trkpt>
      <trkpt lat="43.80239" lon="1.8703">
        <ele>307.5171</ele>
        <time>2012-09-09T06:56:20Z</time>
      </trkpt>
      <trkpt lat="43.80226" lon="1.87047">
        <ele>305.85336</ele>
        <time>2012-09-09T06:56:22Z</time>
      </trkpt>
      <trkpt lat="43.80211" lon="1.87061">
        <ele>302.81052</ele>
        <time>2012-09-09T06:56:27Z</time>
      </trkpt>
      <trkpt lat="43.80193" lon="1.87066">
        <ele>301.4399</ele>
        <time>2012-09-09T06:56:32Z</time>
      </trkpt>
      <trkpt lat="43.80176" lon="1.87085">
        <ele>293.68484</ele>
        <time>2012-09-09T06:56:38Z</time>
      </trkpt>
      <trkpt lat="43.80186" lon="1.87107">
        <ele>289.7857</ele>
        <time>2012-09-09T06:56:45Z</time>
      </trkpt>
      <trkpt lat="43.80203" lon="1.87121">
        <ele>289.4482</ele>
        <time>2012-09-09T06:56:47Z</time>
      </trkpt>
      <trkpt lat="43.80224" lon="1.8715">
        <ele>288.4219</ele>
        <time>2012-09-09T06:56:50Z</time>
      </trkpt>
      <trkpt lat="43.80242" lon="1.87168">
        <ele>287.63736</ele>
        <time>2012-09-09T06:56:53Z</time>
      </trkpt>
      <trkpt lat="43.80267" lon="1.87174">
        <ele>288.53607</ele>
        <time>2012-09-09T06:56:56Z</time>
      </trkpt>
      <trkpt lat="43.80287" lon="1.87177">
        <ele>289.7953</ele>
        <time>2012-09-09T06:56:58Z</time>
      </trkpt>
      <trkpt lat="43.80305" lon="1.87181">
        <ele>290.58484</ele>
        <time>2012-09-09T06:57:00Z</time>
      </trkpt>
      <trkpt lat="43.80305" lon="1.87207">
        <ele>295.01508</ele>
        <time>2012-09-09T06:57:16Z</time>
      </trkpt>
      <trkpt lat="43.80294" lon="1.87227">
        <ele>298.39795</ele>
        <time>2012-09-09T06:57:23Z</time>
      </trkpt>
      <trkpt lat="43.80281" lon="1.87245">
        <ele>299.25482</ele>
        <time>2012-09-09T06:57:34Z</time>
      </trkpt>
      <trkpt lat="43.80263" lon="1.87249">
        <ele>302.12146</ele>
        <time>2012-09-09T06:57:49Z</time>
      </trkpt>
      <trkpt lat="43.8025" lon="1.8727">
        <ele>297.61353</ele>
        <time>2012-09-09T06:58:00Z</time>
      </trkpt>
      <trkpt lat="43.80238" lon="1.8729">
        <ele>296.4179</ele>
        <time>2012-09-09T06:58:11Z</time>
      </trkpt>
      <trkpt lat="43.80225" lon="1.87309">
        <ele>293.93463</ele>
        <time>2012-09-09T06:58:23Z</time>
      </trkpt>
      <trkpt lat="43.80207" lon="1.87315">
        <ele>293.23367</ele>
        <time>2012-09-09T06:58:32Z</time>
      </trkpt>
      <trkpt lat="43.80192" lon="1.8733">
        <ele>304.9217</ele>
        <time>2012-09-09T06:58:43Z</time>
      </trkpt>
      <trkpt lat="43.80181" lon="1.87354">
        <ele>307.47394</ele>
        <time>2012-09-09T06:58:54Z</time>
      </trkpt>
      <trkpt lat="43.80178" lon="1.87379">
        <ele>306.17963</ele>
        <time>2012-09-09T06:59:00Z</time>
      </trkpt>
      <trkpt lat="43.80163" lon="1.87395">
        <ele>311.68454</ele>
        <time>2012-09-09T06:59:12Z</time>
      </trkpt>
      <trkpt lat="43.80146" lon="1.87407">
        <ele>316.265</ele>
        <time>2012-09-09T06:59:24Z</time>
      </trkpt>
      <trkpt lat="43.80133" lon="1.87424">
        <ele>323.53522</ele>
        <time>2012-09-09T06:59:38Z</time>
      </trkpt>
      <trkpt lat="43.80117" lon="1.87442">
        <ele>326.63043</ele>
        <time>2012-09-09T06:59:53Z</time>
      </trkpt>
      <trkpt lat="43.801" lon="1.87455">
        <ele>326.27872</ele>
        <time>2012-09-09T07:00:01Z</time>
      </trkpt>
      <trkpt lat="43.80084" lon="1.87471">
        <ele>328.13226</ele>
        <time>2012-09-09T07:00:08Z</time>
      </trkpt>
      <trkpt lat="43.80072" lon="1.87493">
        <ele>328.5725</ele>
        <time>2012-09-09T07:00:15Z</time>
      </trkpt>
      <trkpt lat="43.80059" lon="1.87515">
        <ele>329.0912</ele>
        <time>2012-09-09T07:00:21Z</time>
      </trkpt>
      <trkpt lat="43.80047" lon="1.87538">
        <ele>325.6069</ele>
        <time>2012-09-09T07:00:28Z</time>
      </trkpt>
      <trkpt lat="43.80038" lon="1.87559">
        <ele>327.34824</ele>
        <time>2012-09-09T07:00:34Z</time>
      </trkpt>
      <trkpt lat="43.80028" lon="1.87583">
        <ele>329.86465</ele>
        <time>2012-09-09T07:00:40Z</time>
      </trkpt>
      <trkpt lat="43.8002" lon="1.87607">
        <ele>329.7393</ele>
        <time>2012-09-09T07:00:45Z</time>
      </trkpt>
      <trkpt lat="43.80013" lon="1.87631">
        <ele>328.1412</ele>
        <time>2012-09-09T07:00:51Z</time>
      </trkpt>
      <trkpt lat="43.80004" lon="1.87652">
        <ele>327.98233</ele>
        <time>2012-09-09T07:00:56Z</time>
      </trkpt>
      <trkpt lat="43.79996" lon="1.87675">
        <ele>327.07727</ele>
        <time>2012-09-09T07:01:01Z</time>
      </trkpt>
      <trkpt lat="43.79991" lon="1.877">
        <ele>325.38968</ele>
        <time>2012-09-09T07:01:10Z</time>
      </trkpt>
      <trkpt lat="43.79982" lon="1.87722">
        <ele>327.32016</ele>
        <time>2012-09-09T07:01:14Z</time>
      </trkpt>
      <trkpt lat="43.7997" lon="1.87744">
        <ele>328.71652</ele>
        <time>2012-09-09T07:01:18Z</time>
      </trkpt>
      <trkpt lat="43.79958" lon="1.87765">
        <ele>331.79858</ele>
        <time>2012-09-09T07:01:22Z</time>
      </trkpt>
      <trkpt lat="43.79942" lon="1.87782">
        <ele>331.22598</ele>
        <time>2012-09-09T07:01:25Z</time>
      </trkpt>
      <trkpt lat="43.7993" lon="1.87801">
        <ele>327.21054</ele>
        <time>2012-09-09T07:01:30Z</time>
      </trkpt>
      <trkpt lat="43.79917" lon="1.87819">
        <ele>326.85413</ele>
        <time>2012-09-09T07:01:34Z</time>
      </trkpt>
      <trkpt lat="43.79905" lon="1.8784">
        <ele>323.88638</ele>
        <time>2012-09-09T07:01:39Z</time>
      </trkpt>
      <trkpt lat="43.79896" lon="1.87868">
        <ele>323.66904</ele>
        <time>2012-09-09T07:01:44Z</time>
      </trkpt>
      <trkpt lat="43.79885" lon="1.87892">
        <ele>323.97058</ele>
        <time>2012-09-09T07:01:49Z</time>
      </trkpt>
      <trkpt lat="43.79873" lon="1.87915">
        <ele>323.52417</ele>
        <time>2012-09-09T07:01:54Z</time>
      </trkpt>
      <trkpt lat="43.7986" lon="1.87938">
        <ele>323.87888</ele>
        <time>2012-09-09T07:01:59Z</time>
      </trkpt>
      <trkpt lat="43.79848" lon="1.8796">
        <ele>324.81033</ele>
        <time>2012-09-09T07:02:04Z</time>
      </trkpt>
      <trkpt lat="43.79837" lon="1.8798">
        <ele>324.27744</ele>
        <time>2012-09-09T07:02:10Z</time>
      </trkpt>
      <trkpt lat="43.79851" lon="1.88001">
        <ele>320.45993</ele>
        <time>2012-09-09T07:02:17Z</time>
      </trkpt>
      <trkpt lat="43.7987" lon="1.88013">
        <ele>319.3776</ele>
        <time>2012-09-09T07:02:22Z</time>
      </trkpt>
      <trkpt lat="43.79889" lon="1.8802">
        <ele>316.33395</ele>
        <time>2012-09-09T07:02:29Z</time>
      </trkpt>
      <trkpt lat="43.79898" lon="1.88045">
        <ele>318.92737</ele>
        <time>2012-09-09T07:02:36Z</time>
      </trkpt>
      <trkpt lat="43.79889" lon="1.88068">
        <ele>320.1311</ele>
        <time>2012-09-09T07:02:41Z</time>
      </trkpt>
      <trkpt lat="43.79882" lon="1.88095">
        <ele>322.12866</ele>
        <time>2012-09-09T07:02:46Z</time>
      </trkpt>
      <trkpt lat="43.79876" lon="1.8812">
        <ele>323.41812</ele>
        <time>2012-09-09T07:02:51Z</time>
      </trkpt>
      <trkpt lat="43.79867" lon="1.88146">
        <ele>325.3496</ele>
        <time>2012-09-09T07:02:57Z</time>
      </trkpt>
      <trkpt lat="43.7986" lon="1.88171">
        <ele>326.6539</ele>
        <time>2012-09-09T07:03:03Z</time>
      </trkpt>
      <trkpt lat="43.79851" lon="1.88197">
        <ele>329.26376</ele>
        <time>2012-09-09T07:03:09Z</time>
      </trkpt>
      <trkpt lat="43.79841" lon="1.88223">
        <ele>331.40543</ele>
        <time>2012-09-09T07:03:15Z</time>
      </trkpt>
      <trkpt lat="43.79834" lon="1.88247">
        <ele>329.97116</ele>
        <time>2012-09-09T07:03:21Z</time>
      </trkpt>
      <trkpt lat="43.79826" lon="1.88271">
        <ele>332.21536</ele>
        <time>2012-09-09T07:03:28Z</time>
      </trkpt>
      <trkpt lat="43.79819" lon="1.88299">
        <ele>334.8382</ele>
        <time>2012-09-09T07:03:35Z</time>
      </trkpt>
      <trkpt lat="43.79812" lon="1.88323">
        <ele>334.25546</ele>
        <time>2012-09-09T07:03:43Z</time>
      </trkpt>
      <trkpt lat="43.79804" lon="1.88349">
        <ele>335.60028</ele>
        <time>2012-09-09T07:03:51Z</time>
      </trkpt>
      <trkpt lat="43.79795" lon="1.88372">
        <ele>339.2923</ele>
        <time>2012-09-09T07:03:59Z</time>
      </trkpt>
      <trkpt lat="43.7979" lon="1.88397">
        <ele>340.98178</ele>
        <time>2012-09-09T07:04:07Z</time>
      </trkpt>
      <trkpt lat="43.79785" lon="1.88422">
        <ele>344.56793</ele>
        <time>2012-09-09T07:04:17Z</time>
      </trkpt>
      <trkpt lat="43.79777" lon="1.88447">
        <ele>346.8556</ele>
        <time>2012-09-09T07:04:25Z</time>
      </trkpt>
      <trkpt lat="43.79773" lon="1.88472">
        <ele>352.06766</ele>
        <time>2012-09-09T07:04:33Z</time>
      </trkpt>
      <trkpt lat="43.79764" lon="1.88495">
        <ele>356.2794</ele>
        <time>2012-09-09T07:04:43Z</time>
      </trkpt>
      <trkpt lat="43.79757" lon="1.88518">
        <ele>355.65982</ele>
        <time>2012-09-09T07:04:53Z</time>
      </trkpt>
      <trkpt lat="43.7976" lon="1.88543">
        <ele>355.1466</ele>
        <time>2012-09-09T07:05:03Z</time>
      </trkpt>
      <trkpt lat="43.79775" lon="1.8856">
        <ele>355.30283</ele>
        <time>2012-09-09T07:05:09Z</time>
      </trkpt>
      <trkpt lat="43.79791" lon="1.88578">
        <ele>355.01563</ele>
        <time>2012-09-09T07:05:15Z</time>
      </trkpt>
      <trkpt lat="43.79805" lon="1.88595">
        <ele>355.79004</ele>
        <time>2012-09-09T07:05:21Z</time>
      </trkpt>
      <trkpt lat="43.79821" lon="1.88609">
        <ele>356.9285</ele>
        <time>2012-09-09T07:05:25Z</time>
      </trkpt>
      <trkpt lat="43.7984" lon="1.88623">
        <ele>359.06604</ele>
        <time>2012-09-09T07:05:29Z</time>
      </trkpt>
      <trkpt lat="43.79856" lon="1.88635">
        <ele>359.4014</ele>
        <time>2012-09-09T07:05:34Z</time>
      </trkpt>
      <trkpt lat="43.79872" lon="1.88651">
        <ele>359.87585</ele>
        <time>2012-09-09T07:05:38Z</time>
      </trkpt>
      <trkpt lat="43.79887" lon="1.88667">
        <ele>359.12634</ele>
        <time>2012-09-09T07:05:42Z</time>
      </trkpt>
      <trkpt lat="43.79906" lon="1.88683">
        <ele>357.70248</ele>
        <time>2012-09-09T07:05:46Z</time>
      </trkpt>
      <trkpt lat="43.79924" lon="1.88703">
        <ele>357.39883</ele>
        <time>2012-09-09T07:05:50Z</time>
      </trkpt>
      <trkpt lat="43.79943" lon="1.88713">
        <ele>358.32034</ele>
        <time>2012-09-09T07:05:54Z</time>
      </trkpt>
      <trkpt lat="43.79965" lon="1.88721">
        <ele>359.6963</ele>
        <time>2012-09-09T07:05:58Z</time>
      </trkpt>
      <trkpt lat="43.7998" lon="1.88736">
        <ele>360.6828</ele>
        <time>2012-09-09T07:06:02Z</time>
      </trkpt>
      <trkpt lat="43.79998" lon="1.88745">
        <ele>360.9543</ele>
        <time>2012-09-09T07:06:06Z</time>
      </trkpt>
      <trkpt lat="43.80016" lon="1.88754">
        <ele>361.17285</ele>
        <time>2012-09-09T07:06:11Z</time>
      </trkpt>
      <trkpt lat="43.80034" lon="1.88768">
        <ele>359.91095</ele>
        <time>2012-09-09T07:06:15Z</time>
      </trkpt>
      <trkpt lat="43.8005" lon="1.88783">
        <ele>358.8777</ele>
        <time>2012-09-09T07:06:19Z</time>
      </trkpt>
      <trkpt lat="43.80065" lon="1.888">
        <ele>357.43942</ele>
        <time>2012-09-09T07:06:23Z</time>
      </trkpt>
      <trkpt lat="43.80062" lon="1.88825">
        <ele>357.76248</ele>
        <time>2012-09-09T07:06:28Z</time>
      </trkpt>
      <trkpt lat="43.80048" lon="1.88847">
        <ele>359.4624</ele>
        <time>2012-09-09T07:06:33Z</time>
      </trkpt>
      <trkpt lat="43.80039" lon="1.8887">
        <ele>359.5904</ele>
        <time>2012-09-09T07:06:36Z</time>
      </trkpt>
      <trkpt lat="43.80026" lon="1.88893">
        <ele>358.0522</ele>
        <time>2012-09-09T07:06:39Z</time>
      </trkpt>
      <trkpt lat="43.80016" lon="1.88922">
        <ele>356.91687</ele>
        <time>2012-09-09T07:06:41Z</time>
      </trkpt>
      <trkpt lat="43.8" lon="1.88948">
        <ele>355.75323</ele>
        <time>2012-09-09T07:06:43Z</time>
      </trkpt>
      <trkpt lat="43.79985" lon="1.88972">
        <ele>354.6237</ele>
        <time>2012-09-09T07:06:45Z</time>
      </trkpt>
      <trkpt lat="43.79968" lon="1.88991">
        <ele>353.49457</ele>
        <time>2012-09-09T07:06:47Z</time>
      </trkpt>
      <trkpt lat="43.79948" lon="1.88993">
        <ele>352.65945</ele>
        <time>2012-09-09T07:06:49Z</time>
      </trkpt>
      <trkpt lat="43.7993" lon="1.89002">
        <ele>351.70218</ele>
        <time>2012-09-09T07:06:51Z</time>
      </trkpt>
      <trkpt lat="43.79908" lon="1.89023">
        <ele>351.01498</ele>
        <time>2012-09-09T07:06:54Z</time>
      </trkpt>
      <trkpt lat="43.79896" lon="1.89042">
        <ele>350.33344</ele>
        <time>2012-09-09T07:06:56Z</time>
      </trkpt>
      <trkpt lat="43.7988" lon="1.89059">
        <ele>349.60007</ele>
        <time>2012-09-09T07:06:58Z</time>
      </trkpt>
      <trkpt lat="43.79861" lon="1.8908">
        <ele>346.8922</ele>
        <time>2012-09-09T07:07:01Z</time>
      </trkpt>
      <trkpt lat="43.79845" lon="1.891">
        <ele>343.85767</ele>
        <time>2012-09-09T07:07:04Z</time>
      </trkpt>
      <trkpt lat="43.79827" lon="1.89123">
        <ele>340.65744</ele>
        <time>2012-09-09T07:07:06Z</time>
      </trkpt>
      <trkpt lat="43.79807" lon="1.89147">
        <ele>336.52606</ele>
        <time>2012-09-09T07:07:08Z</time>
      </trkpt>
      <trkpt lat="43.79791" lon="1.89161">
        <ele>333.48965</ele>
        <time>2012-09-09T07:07:10Z</time>
      </trkpt>
      <trkpt lat="43.79765" lon="1.89169">
        <ele>330.2942</ele>
        <time>2012-09-09T07:07:12Z</time>
      </trkpt>
      <trkpt lat="43.79746" lon="1.89153">
        <ele>323.58878</ele>
        <time>2012-09-09T07:07:16Z</time>
      </trkpt>
      <trkpt lat="43.79723" lon="1.89153">
        <ele>319.1406</ele>
        <time>2012-09-09T07:07:19Z</time>
      </trkpt>
      <trkpt lat="43.79702" lon="1.89164">
        <ele>316.33432</ele>
        <time>2012-09-09T07:07:22Z</time>
      </trkpt>
      <trkpt lat="43.79683" lon="1.89177">
        <ele>314.64572</ele>
        <time>2012-09-09T07:07:25Z</time>
      </trkpt>
      <trkpt lat="43.79659" lon="1.89185">
        <ele>313.3896</ele>
        <time>2012-09-09T07:07:28Z</time>
      </trkpt>
      <trkpt lat="43.79634" lon="1.89194">
        <ele>312.33</ele>
        <time>2012-09-09T07:07:31Z</time>
      </trkpt>
      <trkpt lat="43.79611" lon="1.89199">
        <ele>310.02313</ele>
        <time>2012-09-09T07:07:33Z</time>
      </trkpt>
      <trkpt lat="43.79588" lon="1.89208">
        <ele>307.98175</ele>
        <time>2012-09-09T07:07:35Z</time>
      </trkpt>
      <trkpt lat="43.79565" lon="1.89215">
        <ele>306.62723</ele>
        <time>2012-09-09T07:07:37Z</time>
      </trkpt>
      <trkpt lat="43.79546" lon="1.8922">
        <ele>305.27783</ele>
        <time>2012-09-09T07:07:39Z</time>
      </trkpt>
      <trkpt lat="43.79524" lon="1.89239">
        <ele>301.84534</ele>
        <time>2012-09-09T07:07:42Z</time>
      </trkpt>
      <trkpt lat="43.79511" lon="1.89258">
        <ele>300.53174</ele>
        <time>2012-09-09T07:07:44Z</time>
      </trkpt>
      <trkpt lat="43.79494" lon="1.89272">
        <ele>299.53036</ele>
        <time>2012-09-09T07:07:46Z</time>
      </trkpt>
      <trkpt lat="43.79472" lon="1.89269">
        <ele>295.1312</ele>
        <time>2012-09-09T07:08:05Z</time>
      </trkpt>
      <trkpt lat="43.79453" lon="1.89265">
        <ele>293.4212</ele>
        <time>2012-09-09T07:08:09Z</time>
      </trkpt>
      <trkpt lat="43.79435" lon="1.89261">
        <ele>291.73944</ele>
        <time>2012-09-09T07:08:22Z</time>
      </trkpt>
      <trkpt lat="43.79413" lon="1.89258">
        <ele>293.19867</ele>
        <time>2012-09-09T07:08:30Z</time>
      </trkpt>
      <trkpt lat="43.79389" lon="1.89256">
        <ele>293.67288</ele>
        <time>2012-09-09T07:08:33Z</time>
      </trkpt>
      <trkpt lat="43.79371" lon="1.89255">
        <ele>292.2448</ele>
        <time>2012-09-09T07:08:36Z</time>
      </trkpt>
      <trkpt lat="43.79351" lon="1.89249">
        <ele>288.1939</ele>
        <time>2012-09-09T07:08:39Z</time>
      </trkpt>
      <trkpt lat="43.7933" lon="1.89239">
        <ele>283.58792</ele>
        <time>2012-09-09T07:08:43Z</time>
      </trkpt>
      <trkpt lat="43.79311" lon="1.8923">
        <ele>281.31522</ele>
        <time>2012-09-09T07:08:46Z</time>
      </trkpt>
      <trkpt lat="43.79291" lon="1.89219">
        <ele>279.1103</ele>
        <time>2012-09-09T07:08:50Z</time>
      </trkpt>
      <trkpt lat="43.79274" lon="1.89207">
        <ele>277.73245</ele>
        <time>2012-09-09T07:08:53Z</time>
      </trkpt>
      <trkpt lat="43.79257" lon="1.89197">
        <ele>276.27618</ele>
        <time>2012-09-09T07:08:56Z</time>
      </trkpt>
      <trkpt lat="43.79241" lon="1.89179">
        <ele>274.80106</ele>
        <time>2012-09-09T07:09:00Z</time>
      </trkpt>
      <trkpt lat="43.79226" lon="1.89156">
        <ele>271.70972</ele>
        <time>2012-09-09T07:09:04Z</time>
      </trkpt>
      <trkpt lat="43.7921" lon="1.89137">
        <ele>269.86346</ele>
        <time>2012-09-09T07:09:07Z</time>
      </trkpt>
      <trkpt lat="43.79193" lon="1.89117">
        <ele>269.4904</ele>
        <time>2012-09-09T07:09:11Z</time>
      </trkpt>
      <trkpt lat="43.79175" lon="1.89115">
        <ele>268.47964</ele>
        <time>2012-09-09T07:09:16Z</time>
      </trkpt>
      <trkpt lat="43.79157" lon="1.89116">
        <ele>267.39822</ele>
        <time>2012-09-09T07:09:22Z</time>
      </trkpt>
      <trkpt lat="43.79139" lon="1.89106">
        <ele>269.75696</ele>
        <time>2012-09-09T07:09:32Z</time>
      </trkpt>
      <trkpt lat="43.79119" lon="1.89103">
        <ele>269.60468</ele>
        <time>2012-09-09T07:09:38Z</time>
      </trkpt>
      <trkpt lat="43.79098" lon="1.89099">
        <ele>270.18735</ele>
        <time>2012-09-09T07:09:43Z</time>
      </trkpt>
      <trkpt lat="43.79078" lon="1.89092">
        <ele>275.53702</ele>
        <time>2012-09-09T07:09:47Z</time>
      </trkpt>
      <trkpt lat="43.7906" lon="1.89084">
        <ele>277.73904</ele>
        <time>2012-09-09T07:09:51Z</time>
      </trkpt>
      <trkpt lat="43.79042" lon="1.89076">
        <ele>277.8479</ele>
        <time>2012-09-09T07:09:55Z</time>
      </trkpt>
      <trkpt lat="43.79026" lon="1.89063">
        <ele>279.10092</ele>
        <time>2012-09-09T07:10:00Z</time>
      </trkpt>
      <trkpt lat="43.79008" lon="1.89048">
        <ele>279.23978</ele>
        <time>2012-09-09T07:10:07Z</time>
      </trkpt>
      <trkpt lat="43.7899" lon="1.89031">
        <ele>276.5976</ele>
        <time>2012-09-09T07:10:13Z</time>
      </trkpt>
      <trkpt lat="43.78962" lon="1.89029">
        <ele>274.9047</ele>
        <time>2012-09-09T07:10:18Z</time>
      </trkpt>
      <trkpt lat="43.78943" lon="1.8902">
        <ele>273.47855</ele>
        <time>2012-09-09T07:10:21Z</time>
      </trkpt>
      <trkpt lat="43.78924" lon="1.89004">
        <ele>271.73782</ele>
        <time>2012-09-09T07:10:24Z</time>
      </trkpt>
      <trkpt lat="43.78903" lon="1.8899">
        <ele>271.47064</ele>
        <time>2012-09-09T07:10:27Z</time>
      </trkpt>
      <trkpt lat="43.78876" lon="1.88982">
        <ele>271.02356</ele>
        <time>2012-09-09T07:10:30Z</time>
      </trkpt>
      <trkpt lat="43.78858" lon="1.88973">
        <ele>270.357</ele>
        <time>2012-09-09T07:10:32Z</time>
      </trkpt>
      <trkpt lat="43.7884" lon="1.88967">
        <ele>268.91266</ele>
        <time>2012-09-09T07:10:37Z</time>
      </trkpt>
      <trkpt lat="43.78825" lon="1.88984">
        <ele>262.7487</ele>
        <time>2012-09-09T07:13:54Z</time>
      </trkpt>
      <trkpt lat="43.78838" lon="1.89002">
        <ele>266.98697</ele>
        <time>2012-09-09T07:14:03Z</time>
      </trkpt>
      <trkpt lat="43.78854" lon="1.89017">
        <ele>263.83945</ele>
        <time>2012-09-09T07:14:09Z</time>
      </trkpt>
      <trkpt lat="43.78873" lon="1.89025">
        <ele>266.29388</ele>
        <time>2012-09-09T07:14:15Z</time>
      </trkpt>
      <trkpt lat="43.78892" lon="1.89033">
        <ele>268.482</ele>
        <time>2012-09-09T07:14:22Z</time>
      </trkpt>
      <trkpt lat="43.7889" lon="1.8906">
        <ele>270.63544</ele>
        <time>2012-09-09T07:14:32Z</time>
      </trkpt>
      <trkpt lat="43.78896" lon="1.89083">
        <ele>274.1947</ele>
        <time>2012-09-09T07:14:43Z</time>
      </trkpt>
      <trkpt lat="43.7891" lon="1.891">
        <ele>274.40497</ele>
        <time>2012-09-09T07:14:52Z</time>
      </trkpt>
      <trkpt lat="43.78926" lon="1.89112">
        <ele>275.61075</ele>
        <time>2012-09-09T07:15:01Z</time>
      </trkpt>
      <trkpt lat="43.78941" lon="1.89127">
        <ele>277.9046</ele>
        <time>2012-09-09T07:15:11Z</time>
      </trkpt>
      <trkpt lat="43.78956" lon="1.89144">
        <ele>280.70795</ele>
        <time>2012-09-09T07:15:23Z</time>
      </trkpt>
      <trkpt lat="43.78968" lon="1.89164">
        <ele>282.43228</ele>
        <time>2012-09-09T07:15:36Z</time>
      </trkpt>
      <trkpt lat="43.78951" lon="1.89152">
        <ele>281.13272</ele>
        <time>2012-09-09T07:16:57Z</time>
      </trkpt>
      <trkpt lat="43.78932" lon="1.89154">
        <ele>285.06674</ele>
        <time>2012-09-09T07:17:05Z</time>
      </trkpt>
      <trkpt lat="43.78917" lon="1.89172">
        <ele>281.8185</ele>
        <time>2012-09-09T07:17:13Z</time>
      </trkpt>
      <trkpt lat="43.78903" lon="1.8919">
        <ele>285.0419</ele>
        <time>2012-09-09T07:17:23Z</time>
      </trkpt>
      <trkpt lat="43.78891" lon="1.89209">
        <ele>281.62894</ele>
        <time>2012-09-09T07:17:30Z</time>
      </trkpt>
      <trkpt lat="43.78875" lon="1.89224">
        <ele>284.03</ele>
        <time>2012-09-09T07:17:39Z</time>
      </trkpt>
      <trkpt lat="43.78863" lon="1.89243">
        <ele>286.40497</ele>
        <time>2012-09-09T07:17:45Z</time>
      </trkpt>
      <trkpt lat="43.78847" lon="1.89255">
        <ele>295.27756</ele>
        <time>2012-09-09T07:17:56Z</time>
      </trkpt>
      <trkpt lat="43.78829" lon="1.89264">
        <ele>302.37643</ele>
        <time>2012-09-09T07:18:06Z</time>
      </trkpt>
      <trkpt lat="43.78811" lon="1.89272">
        <ele>305.72598</ele>
        <time>2012-09-09T07:18:15Z</time>
      </trkpt>
      <trkpt lat="43.78793" lon="1.89282">
        <ele>307.56647</ele>
        <time>2012-09-09T07:18:24Z</time>
      </trkpt>
      <trkpt lat="43.78777" lon="1.89297">
        <ele>305.12738</ele>
        <time>2012-09-09T07:18:29Z</time>
      </trkpt>
      <trkpt lat="43.78754" lon="1.8932">
        <ele>303.6725</ele>
        <time>2012-09-09T07:18:32Z</time>
      </trkpt>
      <trkpt lat="43.78731" lon="1.89313">
        <ele>300.76785</ele>
        <time>2012-09-09T07:18:36Z</time>
      </trkpt>
      <trkpt lat="43.78709" lon="1.89295">
        <ele>294.95987</ele>
        <time>2012-09-09T07:18:39Z</time>
      </trkpt>
      <trkpt lat="43.78687" lon="1.89268">
        <ele>290.11746</ele>
        <time>2012-09-09T07:18:42Z</time>
      </trkpt>
      <trkpt lat="43.78669" lon="1.89246">
        <ele>286.8723</ele>
        <time>2012-09-09T07:18:44Z</time>
      </trkpt>
      <trkpt lat="43.78652" lon="1.89221">
        <ele>284.0157</ele>
        <time>2012-09-09T07:18:46Z</time>
      </trkpt>
      <trkpt lat="43.78634" lon="1.89214">
        <ele>282.21176</ele>
        <time>2012-09-09T07:18:47Z</time>
      </trkpt>
      <trkpt lat="43.78606" lon="1.89194">
        <ele>278.20035</ele>
        <time>2012-09-09T07:18:49Z</time>
      </trkpt>
      <trkpt lat="43.78583" lon="1.89162">
        <ele>274.35645</ele>
        <time>2012-09-09T07:18:51Z</time>
      </trkpt>
      <trkpt lat="43.78565" lon="1.89123">
        <ele>270.1505</ele>
        <time>2012-09-09T07:18:53Z</time>
      </trkpt>
      <trkpt lat="43.78545" lon="1.89087">
        <ele>266.06592</ele>
        <time>2012-09-09T07:18:55Z</time>
      </trkpt>
      <trkpt lat="43.7852" lon="1.89058">
        <ele>262.02457</ele>
        <time>2012-09-09T07:18:57Z</time>
      </trkpt>
      <trkpt lat="43.78494" lon="1.89029">
        <ele>258.95758</ele>
        <time>2012-09-09T07:18:59Z</time>
      </trkpt>
      <trkpt lat="43.78464" lon="1.89029">
        <ele>256.84488</ele>
        <time>2012-09-09T07:19:01Z</time>
      </trkpt>
      <trkpt lat="43.78437" lon="1.89025">
        <ele>254.66899</ele>
        <time>2012-09-09T07:19:03Z</time>
      </trkpt>
      <trkpt lat="43.78411" lon="1.89021">
        <ele>253.2263</ele>
        <time>2012-09-09T07:19:05Z</time>
      </trkpt>
      <trkpt lat="43.78387" lon="1.89016">
        <ele>252.27106</ele>
        <time>2012-09-09T07:19:07Z</time>
      </trkpt>
      <trkpt lat="43.78366" lon="1.89002">
        <ele>251.80246</ele>
        <time>2012-09-09T07:19:09Z</time>
      </trkpt>
      <trkpt lat="43.78358" lon="1.8897">
        <ele>251.37013</ele>
        <time>2012-09-09T07:19:11Z</time>
      </trkpt>
      <trkpt lat="43.78352" lon="1.88942">
        <ele>250.53427</ele>
        <time>2012-09-09T07:19:14Z</time>
      </trkpt>
      <trkpt lat="43.78368" lon="1.88929">
        <ele>250.86247</ele>
        <time>2012-09-09T07:19:24Z</time>
      </trkpt>
      <trkpt lat="43.78386" lon="1.88923">
        <ele>251.94559</ele>
        <time>2012-09-09T07:19:33Z</time>
      </trkpt>
      <trkpt lat="43.78402" lon="1.88912">
        <ele>253.44223</ele>
        <time>2012-09-09T07:19:40Z</time>
      </trkpt>
      <trkpt lat="43.7842" lon="1.88904">
        <ele>253.29288</ele>
        <time>2012-09-09T07:19:50Z</time>
      </trkpt>
      <trkpt lat="43.7844" lon="1.88901">
        <ele>253.23624</ele>
        <time>2012-09-09T07:19:58Z</time>
      </trkpt>
      <trkpt lat="43.7846" lon="1.88895">
        <ele>254.42194</ele>
        <time>2012-09-09T07:20:05Z</time>
      </trkpt>
      <trkpt lat="43.7848" lon="1.88886">
        <ele>259.2942</ele>
        <time>2012-09-09T07:20:14Z</time>
      </trkpt>
      <trkpt lat="43.78496" lon="1.88872">
        <ele>259.3181</ele>
        <time>2012-09-09T07:20:20Z</time>
      </trkpt>
      <trkpt lat="43.78498" lon="1.88847">
        <ele>262.63287</ele>
        <time>2012-09-09T07:20:28Z</time>
      </trkpt>
      <trkpt lat="43.78495" lon="1.88822">
        <ele>258.15256</ele>
        <time>2012-09-09T07:20:41Z</time>
      </trkpt>
      <trkpt lat="43.78504" lon="1.888">
        <ele>259.44193</ele>
        <time>2012-09-09T07:20:50Z</time>
      </trkpt>
      <trkpt lat="43.78515" lon="1.88778">
        <ele>261.72253</ele>
        <time>2012-09-09T07:21:00Z</time>
      </trkpt>
      <trkpt lat="43.78525" lon="1.88756">
        <ele>264.53433</ele>
        <time>2012-09-09T07:21:11Z</time>
      </trkpt>
      <trkpt lat="43.78534" lon="1.88733">
        <ele>270.80228</ele>
        <time>2012-09-09T07:21:20Z</time>
      </trkpt>
      <trkpt lat="43.78534" lon="1.88707">
        <ele>274.50198</ele>
        <time>2012-09-09T07:21:31Z</time>
      </trkpt>
      <trkpt lat="43.78542" lon="1.88682">
        <ele>274.3501</ele>
        <time>2012-09-09T07:21:40Z</time>
      </trkpt>
      <trkpt lat="43.78555" lon="1.88664">
        <ele>276.41898</ele>
        <time>2012-09-09T07:21:48Z</time>
      </trkpt>
      <trkpt lat="43.78568" lon="1.88646">
        <ele>276.2981</ele>
        <time>2012-09-09T07:21:55Z</time>
      </trkpt>
      <trkpt lat="43.78582" lon="1.88628">
        <ele>274.3414</ele>
        <time>2012-09-09T07:22:02Z</time>
      </trkpt>
      <trkpt lat="43.78592" lon="1.88605">
        <ele>271.48087</ele>
        <time>2012-09-09T07:22:10Z</time>
      </trkpt>
      <trkpt lat="43.78599" lon="1.88581">
        <ele>270.588</ele>
        <time>2012-09-09T07:22:18Z</time>
      </trkpt>
      <trkpt lat="43.78605" lon="1.88556">
        <ele>271.56482</ele>
        <time>2012-09-09T07:22:26Z</time>
      </trkpt>
      <trkpt lat="43.78611" lon="1.88532">
        <ele>272.14346</ele>
        <time>2012-09-09T07:22:33Z</time>
      </trkpt>
      <trkpt lat="43.78614" lon="1.88504">
        <ele>273.2121</ele>
        <time>2012-09-09T07:22:43Z</time>
      </trkpt>
      <trkpt lat="43.78625" lon="1.88483">
        <ele>279.91708</ele>
        <time>2012-09-09T07:22:50Z</time>
      </trkpt>
      <trkpt lat="43.78633" lon="1.88459">
        <ele>281.8211</ele>
        <time>2012-09-09T07:22:59Z</time>
      </trkpt>
      <trkpt lat="43.78635" lon="1.88432">
        <ele>283.55313</ele>
        <time>2012-09-09T07:23:09Z</time>
      </trkpt>
      <trkpt lat="43.78645" lon="1.8841">
        <ele>283.3591</ele>
        <time>2012-09-09T07:23:22Z</time>
      </trkpt>
      <trkpt lat="43.78661" lon="1.88392">
        <ele>283.72592</ele>
        <time>2012-09-09T07:23:31Z</time>
      </trkpt>
      <trkpt lat="43.78675" lon="1.88373">
        <ele>286.8639</ele>
        <time>2012-09-09T07:23:41Z</time>
      </trkpt>
      <trkpt lat="43.7869" lon="1.88358">
        <ele>288.92917</ele>
        <time>2012-09-09T07:23:51Z</time>
      </trkpt>
      <trkpt lat="43.78705" lon="1.88344">
        <ele>293.99435</ele>
        <time>2012-09-09T07:24:01Z</time>
      </trkpt>
      <trkpt lat="43.78718" lon="1.8832">
        <ele>294.72955</ele>
        <time>2012-09-09T07:24:14Z</time>
      </trkpt>
      <trkpt lat="43.78729" lon="1.883">
        <ele>298.5272</ele>
        <time>2012-09-09T07:24:23Z</time>
      </trkpt>
      <trkpt lat="43.7874" lon="1.88279">
        <ele>303.98514</ele>
        <time>2012-09-09T07:24:30Z</time>
      </trkpt>
      <trkpt lat="43.78748" lon="1.88256">
        <ele>307.4822</ele>
        <time>2012-09-09T07:24:39Z</time>
      </trkpt>
      <trkpt lat="43.7876" lon="1.88237">
        <ele>311.24646</ele>
        <time>2012-09-09T07:24:52Z</time>
      </trkpt>
      <trkpt lat="43.78768" lon="1.88214">
        <ele>313.7097</ele>
        <time>2012-09-09T07:25:05Z</time>
      </trkpt>
      <trkpt lat="43.78772" lon="1.88189">
        <ele>315.38718</ele>
        <time>2012-09-09T07:25:15Z</time>
      </trkpt>
      <trkpt lat="43.7877" lon="1.88163">
        <ele>314.07712</ele>
        <time>2012-09-09T07:25:28Z</time>
      </trkpt>
      <trkpt lat="43.78773" lon="1.88138">
        <ele>313.30887</ele>
        <time>2012-09-09T07:25:40Z</time>
      </trkpt>
      <trkpt lat="43.78769" lon="1.88112">
        <ele>315.74265</ele>
        <time>2012-09-09T07:25:52Z</time>
      </trkpt>
      <trkpt lat="43.78769" lon="1.88087">
        <ele>321.06494</ele>
        <time>2012-09-09T07:26:05Z</time>
      </trkpt>
      <trkpt lat="43.78769" lon="1.88061">
        <ele>324.51556</ele>
        <time>2012-09-09T07:26:17Z</time>
      </trkpt>
      <trkpt lat="43.7876" lon="1.88039">
        <ele>322.67194</ele>
        <time>2012-09-09T07:26:29Z</time>
      </trkpt>
      <trkpt lat="43.78756" lon="1.88015">
        <ele>327.43588</ele>
        <time>2012-09-09T07:26:41Z</time>
      </trkpt>
      <trkpt lat="43.78739" lon="1.88028">
        <ele>325.373</ele>
        <time>2012-09-09T07:26:53Z</time>
      </trkpt>
      <trkpt lat="43.78719" lon="1.88028">
        <ele>324.64432</ele>
        <time>2012-09-09T07:27:02Z</time>
      </trkpt>
      <trkpt lat="43.78698" lon="1.88023">
        <ele>326.4077</ele>
        <time>2012-09-09T07:27:09Z</time>
      </trkpt>
      <trkpt lat="43.78677" lon="1.88025">
        <ele>328.46164</ele>
        <time>2012-09-09T07:27:16Z</time>
      </trkpt>
      <trkpt lat="43.7866" lon="1.88034">
        <ele>330.3357</ele>
        <time>2012-09-09T07:27:23Z</time>
      </trkpt>
      <trkpt lat="43.78644" lon="1.88047">
        <ele>333.20847</ele>
        <time>2012-09-09T07:27:29Z</time>
      </trkpt>
      <trkpt lat="43.7863" lon="1.88065">
        <ele>331.99127</ele>
        <time>2012-09-09T07:27:35Z</time>
      </trkpt>
      <trkpt lat="43.78616" lon="1.88083">
        <ele>332.98853</ele>
        <time>2012-09-09T07:27:41Z</time>
      </trkpt>
      <trkpt lat="43.78604" lon="1.88108">
        <ele>334.18634</ele>
        <time>2012-09-09T07:27:46Z</time>
      </trkpt>
      <trkpt lat="43.78588" lon="1.88094">
        <ele>330.86383</ele>
        <time>2012-09-09T07:27:52Z</time>
      </trkpt>
      <trkpt lat="43.7859" lon="1.88068">
        <ele>329.4398</ele>
        <time>2012-09-09T07:28:00Z</time>
      </trkpt>
      <trkpt lat="43.78583" lon="1.88036">
        <ele>324.7504</ele>
        <time>2012-09-09T07:28:16Z</time>
      </trkpt>
      <trkpt lat="43.78572" lon="1.8801">
        <ele>321.07593</ele>
        <time>2012-09-09T07:28:19Z</time>
      </trkpt>
      <trkpt lat="43.7855" lon="1.87998">
        <ele>318.05704</ele>
        <time>2012-09-09T07:28:22Z</time>
      </trkpt>
      <trkpt lat="43.7853" lon="1.88001">
        <ele>316.71332</ele>
        <time>2012-09-09T07:28:24Z</time>
      </trkpt>
      <trkpt lat="43.78509" lon="1.87985">
        <ele>314.045</ele>
        <time>2012-09-09T07:28:26Z</time>
      </trkpt>
      <trkpt lat="43.7849" lon="1.87972">
        <ele>311.0003</ele>
        <time>2012-09-09T07:28:28Z</time>
      </trkpt>
      <trkpt lat="43.78472" lon="1.87958">
        <ele>308.84393</ele>
        <time>2012-09-09T07:28:30Z</time>
      </trkpt>
      <trkpt lat="43.78467" lon="1.87926">
        <ele>307.90594</ele>
        <time>2012-09-09T07:28:32Z</time>
      </trkpt>
      <trkpt lat="43.78462" lon="1.87892">
        <ele>305.23846</ele>
        <time>2012-09-09T07:28:35Z</time>
      </trkpt>
      <trkpt lat="43.78474" lon="1.87868">
        <ele>303.02872</ele>
        <time>2012-09-09T07:28:38Z</time>
      </trkpt>
      <trkpt lat="43.78458" lon="1.87853">
        <ele>300.5384</ele>
        <time>2012-09-09T07:28:42Z</time>
      </trkpt>
      <trkpt lat="43.7844" lon="1.87846">
        <ele>299.93625</ele>
        <time>2012-09-09T07:28:47Z</time>
      </trkpt>
      <trkpt lat="43.78421" lon="1.8784">
        <ele>301.07315</ele>
        <time>2012-09-09T07:28:52Z</time>
      </trkpt>
      <trkpt lat="43.78402" lon="1.87835">
        <ele>300.9799</ele>
        <time>2012-09-09T07:28:58Z</time>
      </trkpt>
      <trkpt lat="43.78383" lon="1.87834">
        <ele>299.60782</ele>
        <time>2012-09-09T07:29:03Z</time>
      </trkpt>
      <trkpt lat="43.78364" lon="1.87833">
        <ele>298.81583</ele>
        <time>2012-09-09T07:29:08Z</time>
      </trkpt>
      <trkpt lat="43.78343" lon="1.87832">
        <ele>298.93704</ele>
        <time>2012-09-09T07:29:13Z</time>
      </trkpt>
      <trkpt lat="43.78322" lon="1.87834">
        <ele>298.5533</ele>
        <time>2012-09-09T07:29:18Z</time>
      </trkpt>
      <trkpt lat="43.783" lon="1.87835">
        <ele>296.66342</ele>
        <time>2012-09-09T07:29:23Z</time>
      </trkpt>
      <trkpt lat="43.7828" lon="1.87831">
        <ele>296.9771</ele>
        <time>2012-09-09T07:29:27Z</time>
      </trkpt>
      <trkpt lat="43.78259" lon="1.87829">
        <ele>298.34897</ele>
        <time>2012-09-09T07:29:32Z</time>
      </trkpt>
      <trkpt lat="43.78239" lon="1.87831">
        <ele>296.19376</ele>
        <time>2012-09-09T07:29:37Z</time>
      </trkpt>
      <trkpt lat="43.78218" lon="1.87831">
        <ele>295.2363</ele>
        <time>2012-09-09T07:29:41Z</time>
      </trkpt>
      <trkpt lat="43.78197" lon="1.87831">
        <ele>294.6017</ele>
        <time>2012-09-09T07:29:45Z</time>
      </trkpt>
      <trkpt lat="43.7818" lon="1.87823">
        <ele>294.6929</ele>
        <time>2012-09-09T07:29:48Z</time>
      </trkpt>
      <trkpt lat="43.78161" lon="1.87806">
        <ele>294.07745</ele>
        <time>2012-09-09T07:29:52Z</time>
      </trkpt>
      <trkpt lat="43.78145" lon="1.87791">
        <ele>292.9108</ele>
        <time>2012-09-09T07:29:55Z</time>
      </trkpt>
      <trkpt lat="43.78129" lon="1.8778">
        <ele>292.11237</ele>
        <time>2012-09-09T07:29:58Z</time>
      </trkpt>
      <trkpt lat="43.78112" lon="1.87773">
        <ele>290.34094</ele>
        <time>2012-09-09T07:30:07Z</time>
      </trkpt>
      <trkpt lat="43.78132" lon="1.8778">
        <ele>288.43195</ele>
        <time>2012-09-09T07:30:16Z</time>
      </trkpt>
      <trkpt lat="43.78147" lon="1.87794">
        <ele>287.80347</ele>
        <time>2012-09-09T07:30:21Z</time>
      </trkpt>
      <trkpt lat="43.78162" lon="1.87814">
        <ele>288.23315</ele>
        <time>2012-09-09T07:30:26Z</time>
      </trkpt>
      <trkpt lat="43.78176" lon="1.87833">
        <ele>289.57965</ele>
        <time>2012-09-09T07:30:31Z</time>
      </trkpt>
      <trkpt lat="43.78187" lon="1.87853">
        <ele>290.51297</ele>
        <time>2012-09-09T07:30:37Z</time>
      </trkpt>
      <trkpt lat="43.78193" lon="1.87879">
        <ele>290.81406</ele>
        <time>2012-09-09T07:30:44Z</time>
      </trkpt>
      <trkpt lat="43.78179" lon="1.87906">
        <ele>288.01224</ele>
        <time>2012-09-09T07:30:49Z</time>
      </trkpt>
      <trkpt lat="43.78153" lon="1.87926">
        <ele>285.63953</ele>
        <time>2012-09-09T07:30:52Z</time>
      </trkpt>
      <trkpt lat="43.78131" lon="1.87945">
        <ele>281.93472</ele>
        <time>2012-09-09T07:30:54Z</time>
      </trkpt>
      <trkpt lat="43.78108" lon="1.87963">
        <ele>278.92578</ele>
        <time>2012-09-09T07:30:56Z</time>
      </trkpt>
      <trkpt lat="43.78085" lon="1.87979">
        <ele>276.15826</ele>
        <time>2012-09-09T07:30:58Z</time>
      </trkpt>
      <trkpt lat="43.78068" lon="1.8799">
        <ele>274.27026</ele>
        <time>2012-09-09T07:31:00Z</time>
      </trkpt>
      <trkpt lat="43.78051" lon="1.87984">
        <ele>273.48953</ele>
        <time>2012-09-09T07:31:02Z</time>
      </trkpt>
      <trkpt lat="43.78034" lon="1.87976">
        <ele>272.30035</ele>
        <time>2012-09-09T07:31:04Z</time>
      </trkpt>
      <trkpt lat="43.78015" lon="1.87969">
        <ele>271.39395</ele>
        <time>2012-09-09T07:31:06Z</time>
      </trkpt>
      <trkpt lat="43.77995" lon="1.87964">
        <ele>270.6716</ele>
        <time>2012-09-09T07:31:08Z</time>
      </trkpt>
      <trkpt lat="43.77976" lon="1.87967">
        <ele>269.93402</ele>
        <time>2012-09-09T07:31:10Z</time>
      </trkpt>
      <trkpt lat="43.77967" lon="1.87995">
        <ele>268.44415</ele>
        <time>2012-09-09T07:31:12Z</time>
      </trkpt>
      <trkpt lat="43.77947" lon="1.88005">
        <ele>268.01236</ele>
        <time>2012-09-09T07:31:15Z</time>
      </trkpt>
      <trkpt lat="43.7793" lon="1.88014">
        <ele>269.2547</ele>
        <time>2012-09-09T07:31:19Z</time>
      </trkpt>
      <trkpt lat="43.77914" lon="1.88029">
        <ele>268.45428</ele>
        <time>2012-09-09T07:31:24Z</time>
      </trkpt>
      <trkpt lat="43.77907" lon="1.88055">
        <ele>266.97665</ele>
        <time>2012-09-09T07:31:34Z</time>
      </trkpt>
      <trkpt lat="43.77909" lon="1.88081">
        <ele>269.8528</ele>
        <time>2012-09-09T07:31:40Z</time>
      </trkpt>
      <trkpt lat="43.7791" lon="1.88107">
        <ele>270.08026</ele>
        <time>2012-09-09T07:31:46Z</time>
      </trkpt>
      <trkpt lat="43.77914" lon="1.88135">
        <ele>269.6754</ele>
        <time>2012-09-09T07:31:52Z</time>
      </trkpt>
      <trkpt lat="43.77919" lon="1.88162">
        <ele>269.87918</ele>
        <time>2012-09-09T07:31:58Z</time>
      </trkpt>
      <trkpt lat="43.77928" lon="1.88188">
        <ele>270.29</ele>
        <time>2012-09-09T07:32:04Z</time>
      </trkpt>
      <trkpt lat="43.77939" lon="1.88208">
        <ele>271.31738</ele>
        <time>2012-09-09T07:32:10Z</time>
      </trkpt>
      <trkpt lat="43.7795" lon="1.88228">
        <ele>272.4216</ele>
        <time>2012-09-09T07:32:16Z</time>
      </trkpt>
      <trkpt lat="43.77963" lon="1.88249">
        <ele>272.73364</ele>
        <time>2012-09-09T07:32:22Z</time>
      </trkpt>
      <trkpt lat="43.77979" lon="1.88265">
        <ele>272.76965</ele>
        <time>2012-09-09T07:32:28Z</time>
      </trkpt>
      <trkpt lat="43.77991" lon="1.88284">
        <ele>272.03635</ele>
        <time>2012-09-09T07:32:35Z</time>
      </trkpt>
      <trkpt lat="43.78001" lon="1.88306">
        <ele>271.89743</ele>
        <time>2012-09-09T07:32:39Z</time>
      </trkpt>
      <trkpt lat="43.78012" lon="1.88329">
        <ele>271.38486</ele>
        <time>2012-09-09T07:32:42Z</time>
      </trkpt>
      <trkpt lat="43.78024" lon="1.88357">
        <ele>270.6264</ele>
        <time>2012-09-09T07:32:45Z</time>
      </trkpt>
      <trkpt lat="43.78032" lon="1.88382">
        <ele>269.6711</ele>
        <time>2012-09-09T07:32:47Z</time>
      </trkpt>
      <trkpt lat="43.78035" lon="1.8841">
        <ele>268.865</ele>
        <time>2012-09-09T07:32:49Z</time>
      </trkpt>
      <trkpt lat="43.78037" lon="1.88438">
        <ele>268.06155</ele>
        <time>2012-09-09T07:32:51Z</time>
      </trkpt>
      <trkpt lat="43.78036" lon="1.88472">
        <ele>267.30338</ele>
        <time>2012-09-09T07:32:53Z</time>
      </trkpt>
      <trkpt lat="43.78036" lon="1.88505">
        <ele>265.84564</ele>
        <time>2012-09-09T07:32:55Z</time>
      </trkpt>
      <trkpt lat="43.78032" lon="1.88533">
        <ele>264.9632</ele>
        <time>2012-09-09T07:32:57Z</time>
      </trkpt>
      <trkpt lat="43.7804" lon="1.88558">
        <ele>263.5298</ele>
        <time>2012-09-09T07:33:00Z</time>
      </trkpt>
      <trkpt lat="43.78059" lon="1.88576">
        <ele>261.25476</ele>
        <time>2012-09-09T07:33:03Z</time>
      </trkpt>
      <trkpt lat="43.78085" lon="1.88589">
        <ele>258.70905</ele>
        <time>2012-09-09T07:33:06Z</time>
      </trkpt>
      <trkpt lat="43.78103" lon="1.88601">
        <ele>256.73633</ele>
        <time>2012-09-09T07:33:08Z</time>
      </trkpt>
      <trkpt lat="43.78115" lon="1.88637">
        <ele>254.07784</ele>
        <time>2012-09-09T07:33:11Z</time>
      </trkpt>
      <trkpt lat="43.78122" lon="1.88665">
        <ele>252.49377</ele>
        <time>2012-09-09T07:33:13Z</time>
      </trkpt>
      <trkpt lat="43.7813" lon="1.88688">
        <ele>250.959</ele>
        <time>2012-09-09T07:33:15Z</time>
      </trkpt>
      <trkpt lat="43.78147" lon="1.88708">
        <ele>250.1874</ele>
        <time>2012-09-09T07:33:18Z</time>
      </trkpt>
      <trkpt lat="43.78164" lon="1.88722">
        <ele>248.5775</ele>
        <time>2012-09-09T07:33:21Z</time>
      </trkpt>
      <trkpt lat="43.78178" lon="1.88738">
        <ele>247.25769</ele>
        <time>2012-09-09T07:33:24Z</time>
      </trkpt>
      <trkpt lat="43.78194" lon="1.88759">
        <ele>246.77121</ele>
        <time>2012-09-09T07:33:27Z</time>
      </trkpt>
      <trkpt lat="43.78207" lon="1.88782">
        <ele>246.30504</ele>
        <time>2012-09-09T07:33:30Z</time>
      </trkpt>
      <trkpt lat="43.78218" lon="1.88816">
        <ele>244.45526</ele>
        <time>2012-09-09T07:33:33Z</time>
      </trkpt>
      <trkpt lat="43.78224" lon="1.88841">
        <ele>244.02483</ele>
        <time>2012-09-09T07:33:35Z</time>
      </trkpt>
      <trkpt lat="43.78241" lon="1.88866">
        <ele>243.52141</ele>
        <time>2012-09-09T07:33:38Z</time>
      </trkpt>
      <trkpt lat="43.78257" lon="1.88886">
        <ele>243.48404</ele>
        <time>2012-09-09T07:33:41Z</time>
      </trkpt>
      <trkpt lat="43.78274" lon="1.88897">
        <ele>243.74142</ele>
        <time>2012-09-09T07:33:46Z</time>
      </trkpt>
      <trkpt lat="43.78295" lon="1.889">
        <ele>243.72682</ele>
        <time>2012-09-09T07:33:51Z</time>
      </trkpt>
      <trkpt lat="43.78313" lon="1.88914">
        <ele>243.73817</ele>
        <time>2012-09-09T07:33:55Z</time>
      </trkpt>
      <trkpt lat="43.78329" lon="1.88925">
        <ele>244.15855</ele>
        <time>2012-09-09T07:33:59Z</time>
      </trkpt>
      <trkpt lat="43.78341" lon="1.88945">
        <ele>245.09837</ele>
        <time>2012-09-09T07:34:04Z</time>
      </trkpt>
      <trkpt lat="43.78348" lon="1.88974">
        <ele>247.7669</ele>
        <time>2012-09-09T07:34:09Z</time>
      </trkpt>
      <trkpt lat="43.7836" lon="1.88994">
        <ele>248.7626</ele>
        <time>2012-09-09T07:34:12Z</time>
      </trkpt>
      <trkpt lat="43.78376" lon="1.89013">
        <ele>248.45418</ele>
        <time>2012-09-09T07:34:16Z</time>
      </trkpt>
      <trkpt lat="43.78396" lon="1.8902">
        <ele>248.15074</ele>
        <time>2012-09-09T07:34:20Z</time>
      </trkpt>
      <trkpt lat="43.78414" lon="1.89025">
        <ele>247.86957</ele>
        <time>2012-09-09T07:34:24Z</time>
      </trkpt>
      <trkpt lat="43.78434" lon="1.89027">
        <ele>248.0556</ele>
        <time>2012-09-09T07:34:28Z</time>
      </trkpt>
      <trkpt lat="43.78455" lon="1.89032">
        <ele>249.01408</ele>
        <time>2012-09-09T07:34:32Z</time>
      </trkpt>
      <trkpt lat="43.78475" lon="1.8904">
        <ele>248.87202</ele>
        <time>2012-09-09T07:34:36Z</time>
      </trkpt>
      <trkpt lat="43.78494" lon="1.89044">
        <ele>248.94974</ele>
        <time>2012-09-09T07:34:40Z</time>
      </trkpt>
      <trkpt lat="43.78511" lon="1.89062">
        <ele>248.7221</ele>
        <time>2012-09-09T07:34:46Z</time>
      </trkpt>
      <trkpt lat="43.78527" lon="1.89075">
        <ele>248.7891</ele>
        <time>2012-09-09T07:34:53Z</time>
      </trkpt>
      <trkpt lat="43.78543" lon="1.8909">
        <ele>250.0507</ele>
        <time>2012-09-09T07:35:00Z</time>
      </trkpt>
      <trkpt lat="43.78557" lon="1.89108">
        <ele>253.80023</ele>
        <time>2012-09-09T07:35:07Z</time>
      </trkpt>
      <trkpt lat="43.78566" lon="1.89131">
        <ele>256.32968</ele>
        <time>2012-09-09T07:35:16Z</time>
      </trkpt>
      <trkpt lat="43.78577" lon="1.89153">
        <ele>260.77136</ele>
        <time>2012-09-09T07:35:24Z</time>
      </trkpt>
      <trkpt lat="43.78564" lon="1.89171">
        <ele>266.11987</ele>
        <time>2012-09-09T07:35:37Z</time>
      </trkpt>
      <trkpt lat="43.78546" lon="1.8917">
        <ele>267.88684</ele>
        <time>2012-09-09T07:35:50Z</time>
      </trkpt>
      <trkpt lat="43.7854" lon="1.89195">
        <ele>274.47064</ele>
        <time>2012-09-09T07:36:07Z</time>
      </trkpt>
      <trkpt lat="43.78522" lon="1.89202">
        <ele>275.34235</ele>
        <time>2012-09-09T07:36:32Z</time>
      </trkpt>
      <trkpt lat="43.78505" lon="1.89213">
        <ele>278.86584</ele>
        <time>2012-09-09T07:36:47Z</time>
      </trkpt>
      <trkpt lat="43.78488" lon="1.8922">
        <ele>288.7462</ele>
        <time>2012-09-09T07:37:01Z</time>
      </trkpt>
      <trkpt lat="43.78482" lon="1.89244">
        <ele>288.38998</ele>
        <time>2012-09-09T07:37:12Z</time>
      </trkpt>
      <trkpt lat="43.78488" lon="1.89268">
        <ele>296.55133</ele>
        <time>2012-09-09T07:37:27Z</time>
      </trkpt>
      <trkpt lat="43.78484" lon="1.89295">
        <ele>294.88965</ele>
        <time>2012-09-09T07:37:41Z</time>
      </trkpt>
      <trkpt lat="43.78478" lon="1.89318">
        <ele>297.6971</ele>
        <time>2012-09-09T07:37:52Z</time>
      </trkpt>
      <trkpt lat="43.78473" lon="1.89343">
        <ele>300.29227</ele>
        <time>2012-09-09T07:38:05Z</time>
      </trkpt>
      <trkpt lat="43.78468" lon="1.89367">
        <ele>302.4762</ele>
        <time>2012-09-09T07:38:16Z</time>
      </trkpt>
      <trkpt lat="43.78461" lon="1.89392">
        <ele>300.79736</ele>
        <time>2012-09-09T07:38:28Z</time>
      </trkpt>
      <trkpt lat="43.78455" lon="1.89417">
        <ele>305.39532</ele>
        <time>2012-09-09T07:38:38Z</time>
      </trkpt>
      <trkpt lat="43.78456" lon="1.89443">
        <ele>308.3328</ele>
        <time>2012-09-09T07:38:50Z</time>
      </trkpt>
      <trkpt lat="43.78457" lon="1.89468">
        <ele>309.21533</ele>
        <time>2012-09-09T07:39:01Z</time>
      </trkpt>
      <trkpt lat="43.78459" lon="1.89493">
        <ele>310.1421</ele>
        <time>2012-09-09T07:39:10Z</time>
      </trkpt>
      <trkpt lat="43.78459" lon="1.89519">
        <ele>314.33347</ele>
        <time>2012-09-09T07:39:22Z</time>
      </trkpt>
      <trkpt lat="43.78463" lon="1.89544">
        <ele>313.6816</ele>
        <time>2012-09-09T07:39:33Z</time>
      </trkpt>
      <trkpt lat="43.7847" lon="1.89567">
        <ele>319.36182</ele>
        <time>2012-09-09T07:39:43Z</time>
      </trkpt>
      <trkpt lat="43.78478" lon="1.89589">
        <ele>317.40668</ele>
        <time>2012-09-09T07:39:48Z</time>
      </trkpt>
      <trkpt lat="43.7849" lon="1.89613">
        <ele>315.81375</ele>
        <time>2012-09-09T07:39:51Z</time>
      </trkpt>
      <trkpt lat="43.785" lon="1.89635">
        <ele>314.82504</ele>
        <time>2012-09-09T07:39:55Z</time>
      </trkpt>
      <trkpt lat="43.78513" lon="1.8966">
        <ele>313.17694</ele>
        <time>2012-09-09T07:40:00Z</time>
      </trkpt>
      <trkpt lat="43.78528" lon="1.89675">
        <ele>311.95795</ele>
        <time>2012-09-09T07:40:04Z</time>
      </trkpt>
      <trkpt lat="43.78546" lon="1.8965">
        <ele>309.48257</ele>
        <time>2012-09-09T07:40:06Z</time>
      </trkpt>
      <trkpt lat="43.78561" lon="1.89634">
        <ele>307.19644</ele>
        <time>2012-09-09T07:40:08Z</time>
      </trkpt>
      <trkpt lat="43.78577" lon="1.8962">
        <ele>305.6605</ele>
        <time>2012-09-09T07:40:10Z</time>
      </trkpt>
      <trkpt lat="43.78598" lon="1.89597">
        <ele>304.85834</ele>
        <time>2012-09-09T07:40:13Z</time>
      </trkpt>
      <trkpt lat="43.78622" lon="1.89577">
        <ele>304.8715</ele>
        <time>2012-09-09T07:40:16Z</time>
      </trkpt>
      <trkpt lat="43.78639" lon="1.89569">
        <ele>303.63123</ele>
        <time>2012-09-09T07:40:20Z</time>
      </trkpt>
      <trkpt lat="43.78627" lon="1.89592">
        <ele>302.42117</ele>
        <time>2012-09-09T07:40:26Z</time>
      </trkpt>
      <trkpt lat="43.78615" lon="1.89615">
        <ele>301.052</ele>
        <time>2012-09-09T07:40:30Z</time>
      </trkpt>
      <trkpt lat="43.786" lon="1.89643">
        <ele>300.09732</ele>
        <time>2012-09-09T07:40:34Z</time>
      </trkpt>
      <trkpt lat="43.78591" lon="1.8967">
        <ele>300.0817</ele>
        <time>2012-09-09T07:40:37Z</time>
      </trkpt>
      <trkpt lat="43.78589" lon="1.89698">
        <ele>298.38446</ele>
        <time>2012-09-09T07:40:40Z</time>
      </trkpt>
      <trkpt lat="43.78593" lon="1.8973">
        <ele>296.34344</ele>
        <time>2012-09-09T07:40:43Z</time>
      </trkpt>
      <trkpt lat="43.78602" lon="1.89764">
        <ele>293.84488</ele>
        <time>2012-09-09T07:40:46Z</time>
      </trkpt>
      <trkpt lat="43.78598" lon="1.89799">
        <ele>292.07986</ele>
        <time>2012-09-09T07:40:49Z</time>
      </trkpt>
      <trkpt lat="43.78593" lon="1.89823">
        <ele>291.1262</ele>
        <time>2012-09-09T07:40:51Z</time>
      </trkpt>
      <trkpt lat="43.78579" lon="1.8984">
        <ele>290.59598</ele>
        <time>2012-09-09T07:40:53Z</time>
      </trkpt>
      <trkpt lat="43.78562" lon="1.89849">
        <ele>290.41476</ele>
        <time>2012-09-09T07:40:57Z</time>
      </trkpt>
      <trkpt lat="43.78557" lon="1.89877">
        <ele>285.41425</ele>
        <time>2012-09-09T07:41:07Z</time>
      </trkpt>
      <trkpt lat="43.7854" lon="1.89895">
        <ele>282.49023</ele>
        <time>2012-09-09T07:41:13Z</time>
      </trkpt>
      <trkpt lat="43.78528" lon="1.89915">
        <ele>281.7365</ele>
        <time>2012-09-09T07:41:16Z</time>
      </trkpt>
      <trkpt lat="43.78538" lon="1.89946">
        <ele>277.99435</ele>
        <time>2012-09-09T07:41:20Z</time>
      </trkpt>
      <trkpt lat="43.78552" lon="1.89968">
        <ele>273.09683</ele>
        <time>2012-09-09T07:41:22Z</time>
      </trkpt>
      <trkpt lat="43.7857" lon="1.8999">
        <ele>268.93573</ele>
        <time>2012-09-09T07:41:24Z</time>
      </trkpt>
      <trkpt lat="43.7859" lon="1.90018">
        <ele>265.53885</ele>
        <time>2012-09-09T07:41:26Z</time>
      </trkpt>
      <trkpt lat="43.78607" lon="1.90042">
        <ele>262.30936</ele>
        <time>2012-09-09T07:41:28Z</time>
      </trkpt>
      <trkpt lat="43.78625" lon="1.90063">
        <ele>259.824</ele>
        <time>2012-09-09T07:41:30Z</time>
      </trkpt>
      <trkpt lat="43.78641" lon="1.90083">
        <ele>258.59476</ele>
        <time>2012-09-09T07:41:32Z</time>
      </trkpt>
      <trkpt lat="43.7863" lon="1.90106">
        <ele>257.98404</ele>
        <time>2012-09-09T07:41:38Z</time>
      </trkpt>
      <trkpt lat="43.78615" lon="1.90125">
        <ele>257.73947</ele>
        <time>2012-09-09T07:41:43Z</time>
      </trkpt>
      <trkpt lat="43.78598" lon="1.90147">
        <ele>259.5656</ele>
        <time>2012-09-09T07:41:48Z</time>
      </trkpt>
      <trkpt lat="43.7858" lon="1.9016">
        <ele>259.52505</ele>
        <time>2012-09-09T07:41:52Z</time>
      </trkpt>
      <trkpt lat="43.78559" lon="1.9015">
        <ele>255.64182</ele>
        <time>2012-09-09T07:41:55Z</time>
      </trkpt>
      <trkpt lat="43.7854" lon="1.90152">
        <ele>253.40477</ele>
        <time>2012-09-09T07:41:57Z</time>
      </trkpt>
      <trkpt lat="43.78524" lon="1.90175">
        <ele>251.21608</ele>
        <time>2012-09-09T07:42:00Z</time>
      </trkpt>
      <trkpt lat="43.78506" lon="1.90193">
        <ele>250.05365</ele>
        <time>2012-09-09T07:42:03Z</time>
      </trkpt>
      <trkpt lat="43.78491" lon="1.90213">
        <ele>249.5695</ele>
        <time>2012-09-09T07:42:06Z</time>
      </trkpt>
      <trkpt lat="43.78477" lon="1.90231">
        <ele>248.6184</ele>
        <time>2012-09-09T07:42:09Z</time>
      </trkpt>
      <trkpt lat="43.78462" lon="1.90254">
        <ele>247.57379</ele>
        <time>2012-09-09T07:42:13Z</time>
      </trkpt>
      <trkpt lat="43.7845" lon="1.90278">
        <ele>246.86397</ele>
        <time>2012-09-09T07:42:17Z</time>
      </trkpt>
      <trkpt lat="43.78441" lon="1.90304">
        <ele>246.23117</ele>
        <time>2012-09-09T07:42:21Z</time>
      </trkpt>
      <trkpt lat="43.78429" lon="1.90329">
        <ele>245.39462</ele>
        <time>2012-09-09T07:42:25Z</time>
      </trkpt>
      <trkpt lat="43.78419" lon="1.90351">
        <ele>244.47586</ele>
        <time>2012-09-09T07:42:28Z</time>
      </trkpt>
      <trkpt lat="43.78407" lon="1.90376">
        <ele>243.30544</ele>
        <time>2012-09-09T07:42:31Z</time>
      </trkpt>
      <trkpt lat="43.78397" lon="1.90398">
        <ele>243.23042</ele>
        <time>2012-09-09T07:42:34Z</time>
      </trkpt>
      <trkpt lat="43.78384" lon="1.90424">
        <ele>242.76666</ele>
        <time>2012-09-09T07:42:38Z</time>
      </trkpt>
      <trkpt lat="43.78373" lon="1.90446">
        <ele>241.52812</ele>
        <time>2012-09-09T07:42:41Z</time>
      </trkpt>
      <trkpt lat="43.78362" lon="1.90474">
        <ele>240.64444</ele>
        <time>2012-09-09T07:42:45Z</time>
      </trkpt>
      <trkpt lat="43.7836" lon="1.90499">
        <ele>241.88281</ele>
        <time>2012-09-09T07:42:48Z</time>
      </trkpt>
      <trkpt lat="43.78371" lon="1.90521">
        <ele>242.8012</ele>
        <time>2012-09-09T07:42:53Z</time>
      </trkpt>
      <trkpt lat="43.78382" lon="1.90541">
        <ele>238.93597</ele>
        <time>2012-09-09T07:43:00Z</time>
      </trkpt>
      <trkpt lat="43.78398" lon="1.90555">
        <ele>237.48077</ele>
        <time>2012-09-09T07:43:11Z</time>
      </trkpt>
      <trkpt lat="43.78416" lon="1.90555">
        <ele>239.50166</ele>
        <time>2012-09-09T07:43:19Z</time>
      </trkpt>
      <trkpt lat="43.78434" lon="1.9056">
        <ele>240.54918</ele>
        <time>2012-09-09T07:43:28Z</time>
      </trkpt>
      <trkpt lat="43.78454" lon="1.90563">
        <ele>242.44737</ele>
        <time>2012-09-09T07:43:35Z</time>
      </trkpt>
      <trkpt lat="43.78472" lon="1.90572">
        <ele>243.20987</ele>
        <time>2012-09-09T07:43:42Z</time>
      </trkpt>
      <trkpt lat="43.78489" lon="1.90589">
        <ele>239.44072</ele>
        <time>2012-09-09T07:43:47Z</time>
      </trkpt>
      <trkpt lat="43.78504" lon="1.90608">
        <ele>237.86577</ele>
        <time>2012-09-09T07:43:53Z</time>
      </trkpt>
      <trkpt lat="43.78505" lon="1.90635">
        <ele>237.3589</ele>
        <time>2012-09-09T07:44:10Z</time>
      </trkpt>
      <trkpt lat="43.78511" lon="1.90662">
        <ele>237.08626</ele>
        <time>2012-09-09T07:44:18Z</time>
      </trkpt>
      <trkpt lat="43.78525" lon="1.90683">
        <ele>241.88689</ele>
        <time>2012-09-09T07:44:27Z</time>
      </trkpt>
      <trkpt lat="43.7854" lon="1.907">
        <ele>244.30673</ele>
        <time>2012-09-09T07:44:35Z</time>
      </trkpt>
      <trkpt lat="43.78557" lon="1.90712">
        <ele>245.66539</ele>
        <time>2012-09-09T07:44:43Z</time>
      </trkpt>
      <trkpt lat="43.78577" lon="1.90713">
        <ele>246.90878</ele>
        <time>2012-09-09T07:44:50Z</time>
      </trkpt>
      <trkpt lat="43.78584" lon="1.90737">
        <ele>248.20222</ele>
        <time>2012-09-09T07:45:01Z</time>
      </trkpt>
      <trkpt lat="43.78575" lon="1.90761">
        <ele>261.92355</ele>
        <time>2012-09-09T07:45:16Z</time>
      </trkpt>
      <trkpt lat="43.78574" lon="1.90789">
        <ele>258.8592</ele>
        <time>2012-09-09T07:45:25Z</time>
      </trkpt>
      <trkpt lat="43.78571" lon="1.90816">
        <ele>258.04706</ele>
        <time>2012-09-09T07:45:32Z</time>
      </trkpt>
      <trkpt lat="43.78567" lon="1.90841">
        <ele>259.91507</ele>
        <time>2012-09-09T07:45:37Z</time>
      </trkpt>
      <trkpt lat="43.78567" lon="1.90868">
        <ele>260.36353</ele>
        <time>2012-09-09T07:45:42Z</time>
      </trkpt>
      <trkpt lat="43.78572" lon="1.90893">
        <ele>256.96814</ele>
        <time>2012-09-09T07:45:48Z</time>
      </trkpt>
      <trkpt lat="43.78576" lon="1.9092">
        <ele>257.84747</ele>
        <time>2012-09-09T07:45:57Z</time>
      </trkpt>
      <trkpt lat="43.78572" lon="1.90947">
        <ele>261.88254</ele>
        <time>2012-09-09T07:46:06Z</time>
      </trkpt>
      <trkpt lat="43.7857" lon="1.90972">
        <ele>265.04065</ele>
        <time>2012-09-09T07:46:15Z</time>
      </trkpt>
      <trkpt lat="43.78571" lon="1.90997">
        <ele>264.136</ele>
        <time>2012-09-09T07:46:24Z</time>
      </trkpt>
      <trkpt lat="43.7857" lon="1.91022">
        <ele>263.31195</ele>
        <time>2012-09-09T07:46:35Z</time>
      </trkpt>
      <trkpt lat="43.78567" lon="1.91049">
        <ele>270.79224</ele>
        <time>2012-09-09T07:46:46Z</time>
      </trkpt>
      <trkpt lat="43.78582" lon="1.91062">
        <ele>274.31018</ele>
        <time>2012-09-09T07:46:57Z</time>
      </trkpt>
      <trkpt lat="43.78601" lon="1.91068">
        <ele>272.88995</ele>
        <time>2012-09-09T07:47:01Z</time>
      </trkpt>
      <trkpt lat="43.78621" lon="1.91072">
        <ele>271.71265</ele>
        <time>2012-09-09T07:47:06Z</time>
      </trkpt>
      <trkpt lat="43.78639" lon="1.91072">
        <ele>269.28442</ele>
        <time>2012-09-09T07:47:13Z</time>
      </trkpt>
      <trkpt lat="43.78658" lon="1.9108">
        <ele>267.95065</ele>
        <time>2012-09-09T07:47:22Z</time>
      </trkpt>
      <trkpt lat="43.78676" lon="1.91086">
        <ele>266.7842</ele>
        <time>2012-09-09T07:47:32Z</time>
      </trkpt>
      <trkpt lat="43.78696" lon="1.91086">
        <ele>260.91623</ele>
        <time>2012-09-09T07:47:45Z</time>
      </trkpt>
      <trkpt lat="43.78714" lon="1.91091">
        <ele>263.78632</ele>
        <time>2012-09-09T07:47:55Z</time>
      </trkpt>
      <trkpt lat="43.78726" lon="1.9111">
        <ele>282.46317</ele>
        <time>2012-09-09T07:48:15Z</time>
      </trkpt>
      <trkpt lat="43.78733" lon="1.91134">
        <ele>288.46423</ele>
        <time>2012-09-09T07:48:31Z</time>
      </trkpt>
      <trkpt lat="43.78743" lon="1.91156">
        <ele>291.41275</ele>
        <time>2012-09-09T07:48:45Z</time>
      </trkpt>
      <trkpt lat="43.7875" lon="1.9118">
        <ele>291.80292</ele>
        <time>2012-09-09T07:49:00Z</time>
      </trkpt>
      <trkpt lat="43.78757" lon="1.91205">
        <ele>292.7855</ele>
        <time>2012-09-09T07:49:15Z</time>
      </trkpt>
      <trkpt lat="43.78755" lon="1.91231">
        <ele>299.41125</ele>
        <time>2012-09-09T07:49:29Z</time>
      </trkpt>
      <trkpt lat="43.78753" lon="1.91258">
        <ele>303.79968</ele>
        <time>2012-09-09T07:49:42Z</time>
      </trkpt>
      <trkpt lat="43.78749" lon="1.91282">
        <ele>308.99045</ele>
        <time>2012-09-09T07:49:55Z</time>
      </trkpt>
      <trkpt lat="43.78746" lon="1.91307">
        <ele>310.66486</ele>
        <time>2012-09-09T07:50:07Z</time>
      </trkpt>
      <trkpt lat="43.78744" lon="1.91332">
        <ele>322.19943</ele>
        <time>2012-09-09T07:50:29Z</time>
      </trkpt>
      <trkpt lat="43.78746" lon="1.91357">
        <ele>324.06763</ele>
        <time>2012-09-09T07:50:48Z</time>
      </trkpt>
      <trkpt lat="43.78756" lon="1.91378">
        <ele>328.0496</ele>
        <time>2012-09-09T07:51:07Z</time>
      </trkpt>
      <trkpt lat="43.78754" lon="1.91405">
        <ele>327.193</ele>
        <time>2012-09-09T07:51:40Z</time>
      </trkpt>
      <trkpt lat="43.7874" lon="1.91422">
        <ele>332.88446</ele>
        <time>2012-09-09T07:52:04Z</time>
      </trkpt>
      <trkpt lat="43.78726" lon="1.9144">
        <ele>327.89786</ele>
        <time>2012-09-09T07:52:19Z</time>
      </trkpt>
      <trkpt lat="43.78716" lon="1.91465">
        <ele>330.14032</ele>
        <time>2012-09-09T07:52:27Z</time>
      </trkpt>
      <trkpt lat="43.78702" lon="1.91487">
        <ele>328.36597</ele>
        <time>2012-09-09T07:52:33Z</time>
      </trkpt>
      <trkpt lat="43.78691" lon="1.91509">
        <ele>326.85062</ele>
        <time>2012-09-09T07:52:38Z</time>
      </trkpt>
      <trkpt lat="43.7868" lon="1.91536">
        <ele>324.01602</ele>
        <time>2012-09-09T07:52:42Z</time>
      </trkpt>
      <trkpt lat="43.78669" lon="1.91556">
        <ele>322.1871</ele>
        <time>2012-09-09T07:52:46Z</time>
      </trkpt>
      <trkpt lat="43.78657" lon="1.91577">
        <ele>319.72562</ele>
        <time>2012-09-09T07:52:50Z</time>
      </trkpt>
      <trkpt lat="43.78673" lon="1.9159">
        <ele>318.54318</ele>
        <time>2012-09-09T07:53:03Z</time>
      </trkpt>
      <trkpt lat="43.78691" lon="1.91597">
        <ele>314.82684</ele>
        <time>2012-09-09T07:53:15Z</time>
      </trkpt>
      <trkpt lat="43.78706" lon="1.91613">
        <ele>317.92227</ele>
        <time>2012-09-09T07:53:23Z</time>
      </trkpt>
      <trkpt lat="43.78717" lon="1.91632">
        <ele>320.57492</ele>
        <time>2012-09-09T07:53:31Z</time>
      </trkpt>
      <trkpt lat="43.78736" lon="1.91643">
        <ele>319.60306</ele>
        <time>2012-09-09T07:53:40Z</time>
      </trkpt>
      <trkpt lat="43.78752" lon="1.91654">
        <ele>321.50815</ele>
        <time>2012-09-09T07:53:48Z</time>
      </trkpt>
      <trkpt lat="43.7877" lon="1.91665">
        <ele>321.6867</ele>
        <time>2012-09-09T07:53:56Z</time>
      </trkpt>
      <trkpt lat="43.78784" lon="1.91682">
        <ele>323.09796</ele>
        <time>2012-09-09T07:54:04Z</time>
      </trkpt>
      <trkpt lat="43.78803" lon="1.9169">
        <ele>324.89404</ele>
        <time>2012-09-09T07:54:11Z</time>
      </trkpt>
      <trkpt lat="43.78821" lon="1.91694">
        <ele>326.3238</ele>
        <time>2012-09-09T07:54:16Z</time>
      </trkpt>
      <trkpt lat="43.78842" lon="1.91689">
        <ele>330.7265</ele>
        <time>2012-09-09T07:54:22Z</time>
      </trkpt>
      <trkpt lat="43.78863" lon="1.91685">
        <ele>335.31366</ele>
        <time>2012-09-09T07:54:28Z</time>
      </trkpt>
      <trkpt lat="43.78882" lon="1.91679">
        <ele>337.30823</ele>
        <time>2012-09-09T07:54:32Z</time>
      </trkpt>
      <trkpt lat="43.78901" lon="1.91669">
        <ele>336.40683</ele>
        <time>2012-09-09T07:54:37Z</time>
      </trkpt>
      <trkpt lat="43.78922" lon="1.9166">
        <ele>333.55844</ele>
        <time>2012-09-09T07:54:43Z</time>
      </trkpt>
      <trkpt lat="43.78943" lon="1.91653">
        <ele>332.4815</ele>
        <time>2012-09-09T07:54:49Z</time>
      </trkpt>
      <trkpt lat="43.78964" lon="1.91653">
        <ele>329.3836</ele>
        <time>2012-09-09T07:54:54Z</time>
      </trkpt>
      <trkpt lat="43.78985" lon="1.91659">
        <ele>326.3831</ele>
        <time>2012-09-09T07:54:57Z</time>
      </trkpt>
      <trkpt lat="43.79003" lon="1.91664">
        <ele>326.85324</ele>
        <time>2012-09-09T07:55:02Z</time>
      </trkpt>
      <trkpt lat="43.79023" lon="1.91676">
        <ele>329.3979</ele>
        <time>2012-09-09T07:55:07Z</time>
      </trkpt>
      <trkpt lat="43.79043" lon="1.91687">
        <ele>328.92313</ele>
        <time>2012-09-09T07:55:12Z</time>
      </trkpt>
      <trkpt lat="43.79061" lon="1.91697">
        <ele>326.89026</ele>
        <time>2012-09-09T07:55:17Z</time>
      </trkpt>
      <trkpt lat="43.79081" lon="1.917">
        <ele>341.4155</ele>
        <time>2012-09-09T07:55:28Z</time>
      </trkpt>
      <trkpt lat="43.791" lon="1.91704">
        <ele>348.90146</ele>
        <time>2012-09-09T07:55:37Z</time>
      </trkpt>
      <trkpt lat="43.79118" lon="1.91709">
        <ele>353.59753</ele>
        <time>2012-09-09T07:55:43Z</time>
      </trkpt>
      <trkpt lat="43.79136" lon="1.91724">
        <ele>355.95627</ele>
        <time>2012-09-09T07:55:49Z</time>
      </trkpt>
      <trkpt lat="43.79155" lon="1.91733">
        <ele>357.4874</ele>
        <time>2012-09-09T07:55:55Z</time>
      </trkpt>
      <trkpt lat="43.79174" lon="1.91742">
        <ele>353.4009</ele>
        <time>2012-09-09T07:56:00Z</time>
      </trkpt>
      <trkpt lat="43.79202" lon="1.9175">
        <ele>352.06592</ele>
        <time>2012-09-09T07:56:04Z</time>
      </trkpt>
      <trkpt lat="43.79222" lon="1.91753">
        <ele>352.4761</ele>
        <time>2012-09-09T07:56:09Z</time>
      </trkpt>
      <trkpt lat="43.79241" lon="1.91755">
        <ele>351.55182</ele>
        <time>2012-09-09T07:56:13Z</time>
      </trkpt>
      <trkpt lat="43.79261" lon="1.91756">
        <ele>350.76816</ele>
        <time>2012-09-09T07:56:18Z</time>
      </trkpt>
      <trkpt lat="43.79287" lon="1.91769">
        <ele>351.01178</ele>
        <time>2012-09-09T07:56:22Z</time>
      </trkpt>
      <trkpt lat="43.79304" lon="1.91779">
        <ele>351.9014</ele>
        <time>2012-09-09T07:56:26Z</time>
      </trkpt>
      <trkpt lat="43.79323" lon="1.91788">
        <ele>353.1473</ele>
        <time>2012-09-09T07:56:30Z</time>
      </trkpt>
      <trkpt lat="43.79344" lon="1.91799">
        <ele>353.06308</ele>
        <time>2012-09-09T07:56:35Z</time>
      </trkpt>
      <trkpt lat="43.79361" lon="1.91812">
        <ele>350.29175</ele>
        <time>2012-09-09T07:56:37Z</time>
      </trkpt>
      <trkpt lat="43.79379" lon="1.91827">
        <ele>345.86996</ele>
        <time>2012-09-09T07:56:40Z</time>
      </trkpt>
      <trkpt lat="43.79394" lon="1.91841">
        <ele>345.6686</ele>
        <time>2012-09-09T07:56:44Z</time>
      </trkpt>
      <trkpt lat="43.7941" lon="1.91858">
        <ele>348.04022</ele>
        <time>2012-09-09T07:56:49Z</time>
      </trkpt>
      <trkpt lat="43.79428" lon="1.91869">
        <ele>349.2278</ele>
        <time>2012-09-09T07:56:54Z</time>
      </trkpt>
      <trkpt lat="43.79446" lon="1.91867">
        <ele>348.71564</ele>
        <time>2012-09-09T07:56:56Z</time>
      </trkpt>
      <trkpt lat="43.79463" lon="1.9188">
        <ele>348.04565</ele>
        <time>2012-09-09T07:56:59Z</time>
      </trkpt>
      <trkpt lat="43.79481" lon="1.91863">
        <ele>345.51273</ele>
        <time>2012-09-09T07:57:05Z</time>
      </trkpt>
      <trkpt lat="43.79554" lon="1.91507">
        <ele>345.75952</ele>
        <time>2012-09-09T07:57:36Z</time>
      </trkpt>
      <trkpt lat="43.79555" lon="1.91473">
        <ele>332.37848</ele>
        <time>2012-09-09T07:57:41Z</time>
      </trkpt>
      <trkpt lat="43.7956" lon="1.91442">
        <ele>327.12997</ele>
        <time>2012-09-09T07:57:44Z</time>
      </trkpt>
      <trkpt lat="43.79557" lon="1.91417">
        <ele>323.16687</ele>
        <time>2012-09-09T07:57:46Z</time>
      </trkpt>
      <trkpt lat="43.79559" lon="1.91393">
        <ele>319.40012</ele>
        <time>2012-09-09T07:57:48Z</time>
      </trkpt>
      <trkpt lat="43.79563" lon="1.91368">
        <ele>316.65005</ele>
        <time>2012-09-09T07:57:50Z</time>
      </trkpt>
      <trkpt lat="43.79572" lon="1.91344">
        <ele>313.74457</ele>
        <time>2012-09-09T07:57:53Z</time>
      </trkpt>
      <trkpt lat="43.79576" lon="1.91316">
        <ele>312.05316</ele>
        <time>2012-09-09T07:57:56Z</time>
      </trkpt>
      <trkpt lat="43.79566" lon="1.91293">
        <ele>309.9549</ele>
        <time>2012-09-09T07:57:58Z</time>
      </trkpt>
      <trkpt lat="43.79556" lon="1.9127">
        <ele>306.7294</ele>
        <time>2012-09-09T07:58:01Z</time>
      </trkpt>
      <trkpt lat="43.79538" lon="1.91259">
        <ele>305.17532</ele>
        <time>2012-09-09T07:58:05Z</time>
      </trkpt>
      <trkpt lat="43.79557" lon="1.91241">
        <ele>302.70126</ele>
        <time>2012-09-09T07:58:16Z</time>
      </trkpt>
      <trkpt lat="43.79579" lon="1.91236">
        <ele>303.1961</ele>
        <time>2012-09-09T07:58:20Z</time>
      </trkpt>
      <trkpt lat="43.79593" lon="1.91218">
        <ele>302.464</ele>
        <time>2012-09-09T07:58:23Z</time>
      </trkpt>
      <trkpt lat="43.79608" lon="1.91197">
        <ele>298.38324</ele>
        <time>2012-09-09T07:58:26Z</time>
      </trkpt>
      <trkpt lat="43.79624" lon="1.91173">
        <ele>294.03513</ele>
        <time>2012-09-09T07:58:29Z</time>
      </trkpt>
      <trkpt lat="43.79636" lon="1.91153">
        <ele>291.28226</ele>
        <time>2012-09-09T07:58:31Z</time>
      </trkpt>
      <trkpt lat="43.79659" lon="1.91131">
        <ele>288.95813</ele>
        <time>2012-09-09T07:58:34Z</time>
      </trkpt>
      <trkpt lat="43.79667" lon="1.91107">
        <ele>286.48987</ele>
        <time>2012-09-09T07:58:38Z</time>
      </trkpt>
      <trkpt lat="43.79656" lon="1.91084">
        <ele>278.4055</ele>
        <time>2012-09-09T07:58:46Z</time>
      </trkpt>
      <trkpt lat="43.79642" lon="1.91064">
        <ele>275.43726</ele>
        <time>2012-09-09T07:58:51Z</time>
      </trkpt>
      <trkpt lat="43.79627" lon="1.91041">
        <ele>272.83804</ele>
        <time>2012-09-09T07:58:56Z</time>
      </trkpt>
      <trkpt lat="43.79614" lon="1.91017">
        <ele>271.36554</ele>
        <time>2012-09-09T07:59:00Z</time>
      </trkpt>
      <trkpt lat="43.7961" lon="1.90991">
        <ele>269.92337</ele>
        <time>2012-09-09T07:59:05Z</time>
      </trkpt>
      <trkpt lat="43.79604" lon="1.90964">
        <ele>269.19812</ele>
        <time>2012-09-09T07:59:10Z</time>
      </trkpt>
      <trkpt lat="43.79596" lon="1.90939">
        <ele>269.16196</ele>
        <time>2012-09-09T07:59:15Z</time>
      </trkpt>
      <trkpt lat="43.7959" lon="1.90913">
        <ele>269.8754</ele>
        <time>2012-09-09T07:59:21Z</time>
      </trkpt>
      <trkpt lat="43.79584" lon="1.90889">
        <ele>271.5049</ele>
        <time>2012-09-09T07:59:26Z</time>
      </trkpt>
      <trkpt lat="43.79599" lon="1.90871">
        <ele>271.9797</ele>
        <time>2012-09-09T07:59:36Z</time>
      </trkpt>
      <trkpt lat="43.79601" lon="1.90844">
        <ele>270.05255</ele>
        <time>2012-09-09T07:59:44Z</time>
      </trkpt>
      <trkpt lat="43.79595" lon="1.90819">
        <ele>274.19315</ele>
        <time>2012-09-09T07:59:58Z</time>
      </trkpt>
      <trkpt lat="43.79589" lon="1.90793">
        <ele>279.4015</ele>
        <time>2012-09-09T08:00:10Z</time>
      </trkpt>
      <trkpt lat="43.79581" lon="1.90769">
        <ele>277.4976</ele>
        <time>2012-09-09T08:00:23Z</time>
      </trkpt>
      <trkpt lat="43.79581" lon="1.90744">
        <ele>279.55612</ele>
        <time>2012-09-09T08:00:37Z</time>
      </trkpt>
      <trkpt lat="43.79578" lon="1.90719">
        <ele>287.1898</ele>
        <time>2012-09-09T08:00:54Z</time>
      </trkpt>
      <trkpt lat="43.79586" lon="1.90695">
        <ele>291.01974</ele>
        <time>2012-09-09T08:01:06Z</time>
      </trkpt>
      <trkpt lat="43.79591" lon="1.90669">
        <ele>287.10208</ele>
        <time>2012-09-09T08:01:22Z</time>
      </trkpt>
      <trkpt lat="43.79587" lon="1.90644">
        <ele>289.05856</ele>
        <time>2012-09-09T08:01:33Z</time>
      </trkpt>
      <trkpt lat="43.79597" lon="1.90622">
        <ele>285.69495</ele>
        <time>2012-09-09T08:01:44Z</time>
      </trkpt>
      <trkpt lat="43.79603" lon="1.90598">
        <ele>284.1742</ele>
        <time>2012-09-09T08:01:57Z</time>
      </trkpt>
      <trkpt lat="43.79651" lon="1.9052">
        <ele>291.25775</ele>
        <time>2012-09-09T08:02:37Z</time>
      </trkpt>
      <trkpt lat="43.79656" lon="1.90495">
        <ele>308.9715</ele>
        <time>2012-09-09T08:02:43Z</time>
      </trkpt>
      <trkpt lat="43.79669" lon="1.90476">
        <ele>310.40683</ele>
        <time>2012-09-09T08:02:49Z</time>
      </trkpt>
      <trkpt lat="43.79681" lon="1.90456">
        <ele>312.04083</ele>
        <time>2012-09-09T08:02:57Z</time>
      </trkpt>
      <trkpt lat="43.79689" lon="1.90432">
        <ele>311.38385</ele>
        <time>2012-09-09T08:03:08Z</time>
      </trkpt>
      <trkpt lat="43.79706" lon="1.9042">
        <ele>306.57172</ele>
        <time>2012-09-09T08:03:15Z</time>
      </trkpt>
      <trkpt lat="43.79719" lon="1.90402">
        <ele>305.80917</ele>
        <time>2012-09-09T08:03:21Z</time>
      </trkpt>
      <trkpt lat="43.79728" lon="1.90381">
        <ele>306.41495</ele>
        <time>2012-09-09T08:03:27Z</time>
      </trkpt>
      <trkpt lat="43.79734" lon="1.90355">
        <ele>306.1372</ele>
        <time>2012-09-09T08:03:35Z</time>
      </trkpt>
      <trkpt lat="43.79739" lon="1.90329">
        <ele>304.00333</ele>
        <time>2012-09-09T08:03:45Z</time>
      </trkpt>
      <trkpt lat="43.7974" lon="1.90304">
        <ele>308.70007</ele>
        <time>2012-09-09T08:03:52Z</time>
      </trkpt>
      <trkpt lat="43.7974" lon="1.90278">
        <ele>312.0752</ele>
        <time>2012-09-09T08:03:59Z</time>
      </trkpt>
      <trkpt lat="43.7974" lon="1.90251">
        <ele>314.47952</ele>
        <time>2012-09-09T08:04:09Z</time>
      </trkpt>
      <trkpt lat="43.79744" lon="1.90225">
        <ele>314.21478</ele>
        <time>2012-09-09T08:04:18Z</time>
      </trkpt>
      <trkpt lat="43.79747" lon="1.902">
        <ele>316.00504</ele>
        <time>2012-09-09T08:04:25Z</time>
      </trkpt>
      <trkpt lat="43.79749" lon="1.90173">
        <ele>315.04865</ele>
        <time>2012-09-09T08:04:34Z</time>
      </trkpt>
      <trkpt lat="43.79747" lon="1.90146">
        <ele>316.388</ele>
        <time>2012-09-09T08:04:46Z</time>
      </trkpt>
      <trkpt lat="43.79751" lon="1.90121">
        <ele>322.81772</ele>
        <time>2012-09-09T08:04:59Z</time>
      </trkpt>
      <trkpt lat="43.79753" lon="1.90096">
        <ele>322.9395</ele>
        <time>2012-09-09T08:05:11Z</time>
      </trkpt>
      <trkpt lat="43.79757" lon="1.9007">
        <ele>322.8216</ele>
        <time>2012-09-09T08:05:22Z</time>
      </trkpt>
      <trkpt lat="43.79773" lon="1.90056">
        <ele>328.2751</ele>
        <time>2012-09-09T08:05:37Z</time>
      </trkpt>
      <trkpt lat="43.79791" lon="1.90048">
        <ele>330.11945</ele>
        <time>2012-09-09T08:05:45Z</time>
      </trkpt>
      <trkpt lat="43.79809" lon="1.9005">
        <ele>322.9768</ele>
        <time>2012-09-09T08:05:55Z</time>
      </trkpt>
      <trkpt lat="43.79827" lon="1.90045">
        <ele>324.3715</ele>
        <time>2012-09-09T08:06:13Z</time>
      </trkpt>
      <trkpt lat="43.79841" lon="1.90028">
        <ele>335.0719</ele>
        <time>2012-09-09T08:06:26Z</time>
      </trkpt>
      <trkpt lat="43.79856" lon="1.9001">
        <ele>339.38632</ele>
        <time>2012-09-09T08:06:39Z</time>
      </trkpt>
      <trkpt lat="43.79871" lon="1.89994">
        <ele>338.10446</ele>
        <time>2012-09-09T08:06:48Z</time>
      </trkpt>
      <trkpt lat="43.79886" lon="1.89978">
        <ele>339.48462</ele>
        <time>2012-09-09T08:06:58Z</time>
      </trkpt>
      <trkpt lat="43.79935" lon="1.89887">
        <ele>345.6103</ele>
        <time>2012-09-09T08:07:37Z</time>
      </trkpt>
      <trkpt lat="43.79942" lon="1.89861">
        <ele>354.5255</ele>
        <time>2012-09-09T08:07:43Z</time>
      </trkpt>
      <trkpt lat="43.79955" lon="1.89839">
        <ele>354.9033</ele>
        <time>2012-09-09T08:07:50Z</time>
      </trkpt>
      <trkpt lat="43.79974" lon="1.89842">
        <ele>356.7465</ele>
        <time>2012-09-09T08:07:55Z</time>
      </trkpt>
      <trkpt lat="43.79996" lon="1.89846">
        <ele>355.67215</ele>
        <time>2012-09-09T08:08:00Z</time>
      </trkpt>
      <trkpt lat="43.80015" lon="1.89852">
        <ele>354.49084</ele>
        <time>2012-09-09T08:08:05Z</time>
      </trkpt>
      <trkpt lat="43.80035" lon="1.89858">
        <ele>354.16132</ele>
        <time>2012-09-09T08:08:10Z</time>
      </trkpt>
      <trkpt lat="43.80052" lon="1.89864">
        <ele>354.41074</ele>
        <time>2012-09-09T08:08:15Z</time>
      </trkpt>
      <trkpt lat="43.80071" lon="1.89859">
        <ele>353.33105</ele>
        <time>2012-09-09T08:08:20Z</time>
      </trkpt>
      <trkpt lat="43.80087" lon="1.89849">
        <ele>353.8495</ele>
        <time>2012-09-09T08:08:26Z</time>
      </trkpt>
      <trkpt lat="43.80105" lon="1.89842">
        <ele>353.63422</ele>
        <time>2012-09-09T08:08:31Z</time>
      </trkpt>
      <trkpt lat="43.80125" lon="1.89838">
        <ele>354.84738</ele>
        <time>2012-09-09T08:08:36Z</time>
      </trkpt>
      <trkpt lat="43.80146" lon="1.89825">
        <ele>351.73727</ele>
        <time>2012-09-09T08:08:40Z</time>
      </trkpt>
      <trkpt lat="43.80164" lon="1.89807">
        <ele>349.179</ele>
        <time>2012-09-09T08:08:44Z</time>
      </trkpt>
      <trkpt lat="43.80178" lon="1.89788">
        <ele>348.21924</ele>
        <time>2012-09-09T08:08:47Z</time>
      </trkpt>
      <trkpt lat="43.80195" lon="1.89762">
        <ele>345.7104</ele>
        <time>2012-09-09T08:08:51Z</time>
      </trkpt>
      <trkpt lat="43.80213" lon="1.89744">
        <ele>343.13562</ele>
        <time>2012-09-09T08:08:54Z</time>
      </trkpt>
      <trkpt lat="43.80231" lon="1.89724">
        <ele>341.59628</ele>
        <time>2012-09-09T08:08:57Z</time>
      </trkpt>
      <trkpt lat="43.80249" lon="1.89709">
        <ele>341.56717</ele>
        <time>2012-09-09T08:09:00Z</time>
      </trkpt>
      <trkpt lat="43.80268" lon="1.89692">
        <ele>341.76697</ele>
        <time>2012-09-09T08:09:04Z</time>
      </trkpt>
      <trkpt lat="43.80281" lon="1.89666">
        <ele>340.81717</ele>
        <time>2012-09-09T08:09:09Z</time>
      </trkpt>
      <trkpt lat="43.80298" lon="1.89645">
        <ele>339.57193</ele>
        <time>2012-09-09T08:09:14Z</time>
      </trkpt>
      <trkpt lat="43.8031" lon="1.89626">
        <ele>339.25223</ele>
        <time>2012-09-09T08:09:17Z</time>
      </trkpt>
      <trkpt lat="43.80324" lon="1.89609">
        <ele>339.9111</ele>
        <time>2012-09-09T08:09:20Z</time>
      </trkpt>
      <trkpt lat="43.80318" lon="1.8958">
        <ele>340.51016</ele>
        <time>2012-09-09T08:09:24Z</time>
      </trkpt>
      <trkpt lat="43.80309" lon="1.89553">
        <ele>341.62643</ele>
        <time>2012-09-09T08:09:29Z</time>
      </trkpt>
      <trkpt lat="43.80306" lon="1.89526">
        <ele>341.4123</ele>
        <time>2012-09-09T08:09:35Z</time>
      </trkpt>
      <trkpt lat="43.80312" lon="1.89502">
        <ele>340.84732</ele>
        <time>2012-09-09T08:09:41Z</time>
      </trkpt>
      <trkpt lat="43.80318" lon="1.89477">
        <ele>339.55908</ele>
        <time>2012-09-09T08:09:48Z</time>
      </trkpt>
      <trkpt lat="43.80332" lon="1.89457">
        <ele>340.42722</ele>
        <time>2012-09-09T08:09:54Z</time>
      </trkpt>
      <trkpt lat="43.80347" lon="1.89433">
        <ele>339.14377</ele>
        <time>2012-09-09T08:09:58Z</time>
      </trkpt>
      <trkpt lat="43.80359" lon="1.89408">
        <ele>337.08847</ele>
        <time>2012-09-09T08:10:02Z</time>
      </trkpt>
      <trkpt lat="43.80372" lon="1.89387">
        <ele>336.18228</ele>
        <time>2012-09-09T08:10:06Z</time>
      </trkpt>
      <trkpt lat="43.80387" lon="1.89357">
        <ele>332.49237</ele>
        <time>2012-09-09T08:10:11Z</time>
      </trkpt>
      <trkpt lat="43.80401" lon="1.8934">
        <ele>325.1855</ele>
        <time>2012-09-09T08:10:15Z</time>
      </trkpt>
      <trkpt lat="43.80419" lon="1.8933">
        <ele>327.52267</ele>
        <time>2012-09-09T08:10:25Z</time>
      </trkpt>
      <trkpt lat="43.80439" lon="1.89337">
        <ele>327.20636</ele>
        <time>2012-09-09T08:10:30Z</time>
      </trkpt>
      <trkpt lat="43.8047" lon="1.89348">
        <ele>324.51254</ele>
        <time>2012-09-09T08:10:34Z</time>
      </trkpt>
      <trkpt lat="43.80487" lon="1.89356">
        <ele>324.0522</ele>
        <time>2012-09-09T08:10:37Z</time>
      </trkpt>
      <trkpt lat="43.8051" lon="1.8936">
        <ele>323.62357</ele>
        <time>2012-09-09T08:10:40Z</time>
      </trkpt>
      <trkpt lat="43.80537" lon="1.89362">
        <ele>319.46774</ele>
        <time>2012-09-09T08:10:43Z</time>
      </trkpt>
      <trkpt lat="43.80561" lon="1.89363">
        <ele>314.32233</ele>
        <time>2012-09-09T08:10:46Z</time>
      </trkpt>
      <trkpt lat="43.80583" lon="1.89345">
        <ele>308.87817</ele>
        <time>2012-09-09T08:10:49Z</time>
      </trkpt>
      <trkpt lat="43.80592" lon="1.89316">
        <ele>297.96036</ele>
        <time>2012-09-09T08:10:54Z</time>
      </trkpt>
      <trkpt lat="43.80599" lon="1.89292">
        <ele>293.87906</ele>
        <time>2012-09-09T08:10:59Z</time>
      </trkpt>
      <trkpt lat="43.8061" lon="1.89267">
        <ele>291.5407</ele>
        <time>2012-09-09T08:11:05Z</time>
      </trkpt>
      <trkpt lat="43.80624" lon="1.89249">
        <ele>292.02353</ele>
        <time>2012-09-09T08:11:10Z</time>
      </trkpt>
      <trkpt lat="43.80632" lon="1.89223">
        <ele>291.2899</ele>
        <time>2012-09-09T08:11:16Z</time>
      </trkpt>
      <trkpt lat="43.80639" lon="1.89197">
        <ele>291.59518</ele>
        <time>2012-09-09T08:11:22Z</time>
      </trkpt>
      <trkpt lat="43.80646" lon="1.89174">
        <ele>294.1047</ele>
        <time>2012-09-09T08:11:27Z</time>
      </trkpt>
      <trkpt lat="43.80651" lon="1.89146">
        <ele>294.07788</ele>
        <time>2012-09-09T08:11:33Z</time>
      </trkpt>
      <trkpt lat="43.80657" lon="1.89119">
        <ele>294.815</ele>
        <time>2012-09-09T08:11:39Z</time>
      </trkpt>
      <trkpt lat="43.80662" lon="1.89095">
        <ele>295.43158</ele>
        <time>2012-09-09T08:11:44Z</time>
      </trkpt>
      <trkpt lat="43.80671" lon="1.89068">
        <ele>294.72433</ele>
        <time>2012-09-09T08:11:50Z</time>
      </trkpt>
      <trkpt lat="43.80684" lon="1.8905">
        <ele>295.1084</ele>
        <time>2012-09-09T08:11:55Z</time>
      </trkpt>
      <trkpt lat="43.807" lon="1.89033">
        <ele>295.94128</ele>
        <time>2012-09-09T08:12:01Z</time>
      </trkpt>
      <trkpt lat="43.80783" lon="1.8888">
        <ele>296.20737</ele>
        <time>2012-09-09T08:12:37Z</time>
      </trkpt>
      <trkpt lat="43.80794" lon="1.88855">
        <ele>297.8914</ele>
        <time>2012-09-09T08:12:41Z</time>
      </trkpt>
      <trkpt lat="43.80806" lon="1.88836">
        <ele>297.39084</ele>
        <time>2012-09-09T08:12:46Z</time>
      </trkpt>
      <trkpt lat="43.80836" lon="1.88843">
        <ele>298.08844</ele>
        <time>2012-09-09T08:12:51Z</time>
      </trkpt>
      <trkpt lat="43.80854" lon="1.88851">
        <ele>297.906</ele>
        <time>2012-09-09T08:12:53Z</time>
      </trkpt>
      <trkpt lat="43.80874" lon="1.88861">
        <ele>296.8784</ele>
        <time>2012-09-09T08:12:55Z</time>
      </trkpt>
      <trkpt lat="43.80893" lon="1.88868">
        <ele>294.00034</ele>
        <time>2012-09-09T08:12:57Z</time>
      </trkpt>
      <trkpt lat="43.8091" lon="1.88877">
        <ele>292.14395</ele>
        <time>2012-09-09T08:12:59Z</time>
      </trkpt>
      <trkpt lat="43.80936" lon="1.88894">
        <ele>289.43097</ele>
        <time>2012-09-09T08:13:01Z</time>
      </trkpt>
      <trkpt lat="43.80955" lon="1.88912">
        <ele>288.42993</ele>
        <time>2012-09-09T08:13:03Z</time>
      </trkpt>
      <trkpt lat="43.80975" lon="1.88927">
        <ele>287.60434</ele>
        <time>2012-09-09T08:13:05Z</time>
      </trkpt>
      <trkpt lat="43.80996" lon="1.88943">
        <ele>288.52325</ele>
        <time>2012-09-09T08:13:09Z</time>
      </trkpt>
      <trkpt lat="43.81012" lon="1.88924">
        <ele>289.7995</ele>
        <time>2012-09-09T08:13:17Z</time>
      </trkpt>
      <trkpt lat="43.81024" lon="1.88904">
        <ele>290.772</ele>
        <time>2012-09-09T08:13:26Z</time>
      </trkpt>
      <trkpt lat="43.81037" lon="1.88888">
        <ele>285.4915</ele>
        <time>2012-09-09T08:13:49Z</time>
      </trkpt>
      <trkpt lat="43.81058" lon="1.88876">
        <ele>277.3245</ele>
        <time>2012-09-09T08:16:30Z</time>
      </trkpt>
      <trkpt lat="43.81058" lon="1.88851">
        <ele>284.0017</ele>
        <time>2012-09-09T08:16:38Z</time>
      </trkpt>
      <trkpt lat="43.8106" lon="1.88826">
        <ele>287.0851</ele>
        <time>2012-09-09T08:16:48Z</time>
      </trkpt>
      <trkpt lat="43.81057" lon="1.88801">
        <ele>288.88788</ele>
        <time>2012-09-09T08:16:56Z</time>
      </trkpt>
      <trkpt lat="43.8107" lon="1.88781">
        <ele>291.00842</ele>
        <time>2012-09-09T08:17:03Z</time>
      </trkpt>
      <trkpt lat="43.8109" lon="1.88768">
        <ele>289.936</ele>
        <time>2012-09-09T08:17:05Z</time>
      </trkpt>
      <trkpt lat="43.81223" lon="1.88781">
        <ele>286.37024</ele>
        <time>2012-09-09T08:17:38Z</time>
      </trkpt>
      <trkpt lat="43.8125" lon="1.88782">
        <ele>277.7062</ele>
        <time>2012-09-09T08:17:41Z</time>
      </trkpt>
      <trkpt lat="43.81276" lon="1.88791">
        <ele>275.42224</ele>
        <time>2012-09-09T08:17:43Z</time>
      </trkpt>
      <trkpt lat="43.81296" lon="1.88789">
        <ele>271.95468</ele>
        <time>2012-09-09T08:17:46Z</time>
      </trkpt>
      <trkpt lat="43.81323" lon="1.88792">
        <ele>269.55902</ele>
        <time>2012-09-09T08:17:49Z</time>
      </trkpt>
      <trkpt lat="43.81347" lon="1.88794">
        <ele>267.66083</ele>
        <time>2012-09-09T08:17:52Z</time>
      </trkpt>
      <trkpt lat="43.81371" lon="1.88795">
        <ele>264.79285</ele>
        <time>2012-09-09T08:17:55Z</time>
      </trkpt>
      <trkpt lat="43.81394" lon="1.8879">
        <ele>262.03094</ele>
        <time>2012-09-09T08:17:59Z</time>
      </trkpt>
      <trkpt lat="43.81408" lon="1.8877">
        <ele>259.40524</ele>
        <time>2012-09-09T08:18:02Z</time>
      </trkpt>
      <trkpt lat="43.81424" lon="1.88751">
        <ele>256.18814</ele>
        <time>2012-09-09T08:18:05Z</time>
      </trkpt>
      <trkpt lat="43.8144" lon="1.88732">
        <ele>254.85594</ele>
        <time>2012-09-09T08:18:08Z</time>
      </trkpt>
      <trkpt lat="43.81456" lon="1.88718">
        <ele>254.33766</ele>
        <time>2012-09-09T08:18:11Z</time>
      </trkpt>
      <trkpt lat="43.81476" lon="1.88703">
        <ele>251.52832</ele>
        <time>2012-09-09T08:18:15Z</time>
      </trkpt>
      <trkpt lat="43.81499" lon="1.88693">
        <ele>250.30258</ele>
        <time>2012-09-09T08:18:18Z</time>
      </trkpt>
      <trkpt lat="43.8152" lon="1.88685">
        <ele>249.90422</ele>
        <time>2012-09-09T08:18:21Z</time>
      </trkpt>
      <trkpt lat="43.81545" lon="1.88678">
        <ele>249.86584</ele>
        <time>2012-09-09T08:18:24Z</time>
      </trkpt>
      <trkpt lat="43.8157" lon="1.8867">
        <ele>249.9184</ele>
        <time>2012-09-09T08:18:27Z</time>
      </trkpt>
      <trkpt lat="43.81588" lon="1.88662">
        <ele>250.1791</ele>
        <time>2012-09-09T08:18:29Z</time>
      </trkpt>
      <trkpt lat="43.81606" lon="1.88645">
        <ele>249.60994</ele>
        <time>2012-09-09T08:18:32Z</time>
      </trkpt>
      <trkpt lat="43.81624" lon="1.88633">
        <ele>249.68388</ele>
        <time>2012-09-09T08:18:35Z</time>
      </trkpt>
      <trkpt lat="43.81641" lon="1.88623">
        <ele>250.6682</ele>
        <time>2012-09-09T08:18:38Z</time>
      </trkpt>
      <trkpt lat="43.81662" lon="1.88618">
        <ele>251.62408</ele>
        <time>2012-09-09T08:18:41Z</time>
      </trkpt>
      <trkpt lat="43.81681" lon="1.88616">
        <ele>251.60236</ele>
        <time>2012-09-09T08:18:44Z</time>
      </trkpt>
      <trkpt lat="43.81701" lon="1.88611">
        <ele>251.80724</ele>
        <time>2012-09-09T08:18:47Z</time>
      </trkpt>
      <trkpt lat="43.81719" lon="1.88603">
        <ele>252.44524</ele>
        <time>2012-09-09T08:18:50Z</time>
      </trkpt>
      <trkpt lat="43.81741" lon="1.88606">
        <ele>252.81432</ele>
        <time>2012-09-09T08:18:54Z</time>
      </trkpt>
      <trkpt lat="43.81759" lon="1.88622">
        <ele>249.7495</ele>
        <time>2012-09-09T08:18:59Z</time>
      </trkpt>
      <trkpt lat="43.81776" lon="1.88638">
        <ele>246.54901</ele>
        <time>2012-09-09T08:19:02Z</time>
      </trkpt>
      <trkpt lat="43.81791" lon="1.88656">
        <ele>242.85495</ele>
        <time>2012-09-09T08:19:06Z</time>
      </trkpt>
      <trkpt lat="43.81806" lon="1.88672">
        <ele>241.47676</ele>
        <time>2012-09-09T08:19:10Z</time>
      </trkpt>
      <trkpt lat="43.81821" lon="1.88687">
        <ele>241.6399</ele>
        <time>2012-09-09T08:19:15Z</time>
      </trkpt>
      <trkpt lat="43.81839" lon="1.88669">
        <ele>242.50285</ele>
        <time>2012-09-09T08:19:21Z</time>
      </trkpt>
      <trkpt lat="43.81848" lon="1.88648">
        <ele>242.29582</ele>
        <time>2012-09-09T08:19:25Z</time>
      </trkpt>
      <trkpt lat="43.8186" lon="1.88625">
        <ele>242.22328</ele>
        <time>2012-09-09T08:19:29Z</time>
      </trkpt>
      <trkpt lat="43.8187" lon="1.88604">
        <ele>241.898</ele>
        <time>2012-09-09T08:19:33Z</time>
      </trkpt>
      <trkpt lat="43.81881" lon="1.8858">
        <ele>240.55014</ele>
        <time>2012-09-09T08:19:37Z</time>
      </trkpt>
      <trkpt lat="43.819" lon="1.88569">
        <ele>240.6268</ele>
        <time>2012-09-09T08:19:41Z</time>
      </trkpt>
      <trkpt lat="43.81919" lon="1.88581">
        <ele>239.99832</ele>
        <time>2012-09-09T08:19:45Z</time>
      </trkpt>
      <trkpt lat="43.81936" lon="1.88607">
        <ele>239.56783</ele>
        <time>2012-09-09T08:19:49Z</time>
      </trkpt>
      <trkpt lat="43.81949" lon="1.8863">
        <ele>239.26611</ele>
        <time>2012-09-09T08:19:52Z</time>
      </trkpt>
      <trkpt lat="43.81964" lon="1.8865">
        <ele>239.13101</ele>
        <time>2012-09-09T08:19:55Z</time>
      </trkpt>
      <trkpt lat="43.8198" lon="1.88671">
        <ele>238.59903</ele>
        <time>2012-09-09T08:19:58Z</time>
      </trkpt>
      <trkpt lat="43.82001" lon="1.88689">
        <ele>238.19022</ele>
        <time>2012-09-09T08:20:01Z</time>
      </trkpt>
      <trkpt lat="43.82015" lon="1.88706">
        <ele>237.88649</ele>
        <time>2012-09-09T08:20:04Z</time>
      </trkpt>
      <trkpt lat="43.82029" lon="1.88733">
        <ele>238.6801</ele>
        <time>2012-09-09T08:20:08Z</time>
      </trkpt>
      <trkpt lat="43.8204" lon="1.88755">
        <ele>239.58223</ele>
        <time>2012-09-09T08:20:11Z</time>
      </trkpt>
      <trkpt lat="43.82052" lon="1.88776">
        <ele>240.83</ele>
        <time>2012-09-09T08:20:14Z</time>
      </trkpt>
      <trkpt lat="43.82068" lon="1.88797">
        <ele>243.17863</ele>
        <time>2012-09-09T08:20:18Z</time>
      </trkpt>
      <trkpt lat="43.82086" lon="1.88818">
        <ele>244.13152</ele>
        <time>2012-09-09T08:20:22Z</time>
      </trkpt>
      <trkpt lat="43.82101" lon="1.88835">
        <ele>242.86642</ele>
        <time>2012-09-09T08:20:25Z</time>
      </trkpt>
      <trkpt lat="43.82118" lon="1.88854">
        <ele>241.27687</ele>
        <time>2012-09-09T08:20:29Z</time>
      </trkpt>
      <trkpt lat="43.82139" lon="1.88862">
        <ele>241.77081</ele>
        <time>2012-09-09T08:20:33Z</time>
      </trkpt>
      <trkpt lat="43.82156" lon="1.88845">
        <ele>240.37749</ele>
        <time>2012-09-09T08:20:37Z</time>
      </trkpt>
      <trkpt lat="43.82179" lon="1.88835">
        <ele>240.271</ele>
        <time>2012-09-09T08:20:41Z</time>
      </trkpt>
      <trkpt lat="43.82201" lon="1.88825">
        <ele>241.2713</ele>
        <time>2012-09-09T08:20:45Z</time>
      </trkpt>
      <trkpt lat="43.82218" lon="1.88812">
        <ele>241.96602</ele>
        <time>2012-09-09T08:20:48Z</time>
      </trkpt>
      <trkpt lat="43.82236" lon="1.88815">
        <ele>241.26222</ele>
        <time>2012-09-09T08:20:51Z</time>
      </trkpt>
      <trkpt lat="43.82258" lon="1.88812">
        <ele>240.45593</ele>
        <time>2012-09-09T08:20:54Z</time>
      </trkpt>
      <trkpt lat="43.82281" lon="1.8881">
        <ele>239.47047</ele>
        <time>2012-09-09T08:20:57Z</time>
      </trkpt>
      <trkpt lat="43.82305" lon="1.8881">
        <ele>238.42505</ele>
        <time>2012-09-09T08:21:00Z</time>
      </trkpt>
      <trkpt lat="43.82331" lon="1.88808">
        <ele>238.10431</ele>
        <time>2012-09-09T08:21:03Z</time>
      </trkpt>
      <trkpt lat="43.82355" lon="1.88808">
        <ele>237.55807</ele>
        <time>2012-09-09T08:21:06Z</time>
      </trkpt>
      <trkpt lat="43.82379" lon="1.88805">
        <ele>236.5245</ele>
        <time>2012-09-09T08:21:09Z</time>
      </trkpt>
      <trkpt lat="43.82404" lon="1.88803">
        <ele>235.04784</ele>
        <time>2012-09-09T08:21:12Z</time>
      </trkpt>
      <trkpt lat="43.82429" lon="1.88816">
        <ele>234.93893</ele>
        <time>2012-09-09T08:21:15Z</time>
      </trkpt>
      <trkpt lat="43.82438" lon="1.88846">
        <ele>233.45862</ele>
        <time>2012-09-09T08:21:18Z</time>
      </trkpt>
      <trkpt lat="43.82455" lon="1.88864">
        <ele>230.6162</ele>
        <time>2012-09-09T08:21:22Z</time>
      </trkpt>
      <trkpt lat="43.82476" lon="1.88851">
        <ele>229.29271</ele>
        <time>2012-09-09T08:21:27Z</time>
      </trkpt>
      <trkpt lat="43.82491" lon="1.88833">
        <ele>228.3641</ele>
        <time>2012-09-09T08:21:31Z</time>
      </trkpt>
      <trkpt lat="43.82504" lon="1.88807">
        <ele>229.23396</ele>
        <time>2012-09-09T08:21:36Z</time>
      </trkpt>
      <trkpt lat="43.82515" lon="1.88785">
        <ele>229.44551</ele>
        <time>2012-09-09T08:21:40Z</time>
      </trkpt>
      <trkpt lat="43.82527" lon="1.88764">
        <ele>230.03159</ele>
        <time>2012-09-09T08:21:44Z</time>
      </trkpt>
      <trkpt lat="43.82538" lon="1.88744">
        <ele>230.66801</ele>
        <time>2012-09-09T08:21:47Z</time>
      </trkpt>
      <trkpt lat="43.82551" lon="1.88721">
        <ele>232.04575</ele>
        <time>2012-09-09T08:21:51Z</time>
      </trkpt>
      <trkpt lat="43.82563" lon="1.88701">
        <ele>232.1896</ele>
        <time>2012-09-09T08:21:54Z</time>
      </trkpt>
      <trkpt lat="43.82575" lon="1.88678">
        <ele>232.00491</ele>
        <time>2012-09-09T08:21:58Z</time>
      </trkpt>
      <trkpt lat="43.82589" lon="1.88661">
        <ele>230.5332</ele>
        <time>2012-09-09T08:22:02Z</time>
      </trkpt>
      <trkpt lat="43.826" lon="1.8864">
        <ele>233.45074</ele>
        <time>2012-09-09T08:22:06Z</time>
      </trkpt>
      <trkpt lat="43.82707" lon="1.88451">
        <ele>233.24728</ele>
        <time>2012-09-09T08:22:39Z</time>
      </trkpt>
      <trkpt lat="43.82723" lon="1.88437">
        <ele>229.70833</ele>
        <time>2012-09-09T08:22:43Z</time>
      </trkpt>
      <trkpt lat="43.82737" lon="1.88418">
        <ele>224.0085</ele>
        <time>2012-09-09T08:22:47Z</time>
      </trkpt>
      <trkpt lat="43.82748" lon="1.88393">
        <ele>218.99722</ele>
        <time>2012-09-09T08:22:51Z</time>
      </trkpt>
      <trkpt lat="43.82759" lon="1.88369">
        <ele>220.68076</ele>
        <time>2012-09-09T08:22:55Z</time>
      </trkpt>
      <trkpt lat="43.82766" lon="1.88344">
        <ele>224.81227</ele>
        <time>2012-09-09T08:22:59Z</time>
      </trkpt>
      <trkpt lat="43.8278" lon="1.88317">
        <ele>225.73709</ele>
        <time>2012-09-09T08:23:03Z</time>
      </trkpt>
      <trkpt lat="43.82793" lon="1.88295">
        <ele>226.95079</ele>
        <time>2012-09-09T08:23:07Z</time>
      </trkpt>
      <trkpt lat="43.82804" lon="1.88273">
        <ele>226.6808</ele>
        <time>2012-09-09T08:23:10Z</time>
      </trkpt>
      <trkpt lat="43.82813" lon="1.88248">
        <ele>228.54861</ele>
        <time>2012-09-09T08:23:14Z</time>
      </trkpt>
      <trkpt lat="43.82829" lon="1.88222">
        <ele>230.2302</ele>
        <time>2012-09-09T08:23:19Z</time>
      </trkpt>
      <trkpt lat="43.82841" lon="1.88198">
        <ele>227.78142</ele>
        <time>2012-09-09T08:23:23Z</time>
      </trkpt>
      <trkpt lat="43.82854" lon="1.88177">
        <ele>226.27693</ele>
        <time>2012-09-09T08:23:27Z</time>
      </trkpt>
      <trkpt lat="43.82869" lon="1.8816">
        <ele>225.8262</ele>
        <time>2012-09-09T08:23:30Z</time>
      </trkpt>
      <trkpt lat="43.82882" lon="1.88141">
        <ele>224.8595</ele>
        <time>2012-09-09T08:23:33Z</time>
      </trkpt>
      <trkpt lat="43.82896" lon="1.88118">
        <ele>224.00829</ele>
        <time>2012-09-09T08:23:37Z</time>
      </trkpt>
      <trkpt lat="43.8291" lon="1.88101">
        <ele>225.44725</ele>
        <time>2012-09-09T08:23:40Z</time>
      </trkpt>
      <trkpt lat="43.82923" lon="1.88079">
        <ele>228.3751</ele>
        <time>2012-09-09T08:23:44Z</time>
      </trkpt>
      <trkpt lat="43.82935" lon="1.88061">
        <ele>229.3968</ele>
        <time>2012-09-09T08:23:48Z</time>
      </trkpt>
      <trkpt lat="43.82948" lon="1.88043">
        <ele>228.4857</ele>
        <time>2012-09-09T08:23:52Z</time>
      </trkpt>
      <trkpt lat="43.82963" lon="1.88057">
        <ele>225.20198</ele>
        <time>2012-09-09T08:23:57Z</time>
      </trkpt>
      <trkpt lat="43.82976" lon="1.88076">
        <ele>231.60968</ele>
        <time>2012-09-09T08:24:14Z</time>
      </trkpt>
      <trkpt lat="43.82991" lon="1.88094">
        <ele>232.34055</ele>
        <time>2012-09-09T08:24:31Z</time>
      </trkpt>
      <trkpt lat="43.83008" lon="1.88109">
        <ele>231.98521</ele>
        <time>2012-09-09T08:24:38Z</time>
      </trkpt>
      <trkpt lat="43.83029" lon="1.88122">
        <ele>231.08331</ele>
        <time>2012-09-09T08:24:43Z</time>
      </trkpt>
      <trkpt lat="43.83046" lon="1.88134">
        <ele>229.35292</ele>
        <time>2012-09-09T08:24:47Z</time>
      </trkpt>
      <trkpt lat="43.83063" lon="1.88142">
        <ele>229.86726</ele>
        <time>2012-09-09T08:24:49Z</time>
      </trkpt>
      <trkpt lat="43.83082" lon="1.88152">
        <ele>231.41191</ele>
        <time>2012-09-09T08:24:53Z</time>
      </trkpt>
      <trkpt lat="43.831" lon="1.88162">
        <ele>232.19205</ele>
        <time>2012-09-09T08:24:57Z</time>
      </trkpt>
      <trkpt lat="43.83119" lon="1.88172">
        <ele>231.07874</ele>
        <time>2012-09-09T08:25:01Z</time>
      </trkpt>
      <trkpt lat="43.83137" lon="1.8818">
        <ele>229.58165</ele>
        <time>2012-09-09T08:25:04Z</time>
      </trkpt>
      <trkpt lat="43.83156" lon="1.88187">
        <ele>228.0407</ele>
        <time>2012-09-09T08:25:07Z</time>
      </trkpt>
      <trkpt lat="43.83156" lon="1.88217">
        <ele>227.4646</ele>
        <time>2012-09-09T08:25:13Z</time>
      </trkpt>
      <trkpt lat="43.83153" lon="1.88244">
        <ele>227.40076</ele>
        <time>2012-09-09T08:25:19Z</time>
      </trkpt>
      <trkpt lat="43.83145" lon="1.88269">
        <ele>232.32967</ele>
        <time>2012-09-09T08:25:24Z</time>
      </trkpt>
      <trkpt lat="43.83141" lon="1.88298">
        <ele>235.42354</ele>
        <time>2012-09-09T08:25:29Z</time>
      </trkpt>
      <trkpt lat="43.83139" lon="1.88326">
        <ele>232.97267</ele>
        <time>2012-09-09T08:25:34Z</time>
      </trkpt>
      <trkpt lat="43.83147" lon="1.88349">
        <ele>229.0532</ele>
        <time>2012-09-09T08:25:41Z</time>
      </trkpt>
      <trkpt lat="43.83176" lon="1.88339">
        <ele>228.01663</ele>
        <time>2012-09-09T08:25:46Z</time>
      </trkpt>
      <trkpt lat="43.83179" lon="1.88309">
        <ele>228.88377</ele>
        <time>2012-09-09T08:25:50Z</time>
      </trkpt>
      <trkpt lat="43.83197" lon="1.88292">
        <ele>228.0445</ele>
        <time>2012-09-09T08:25:55Z</time>
      </trkpt>
      <trkpt lat="43.83215" lon="1.88272">
        <ele>228.921</ele>
        <time>2012-09-09T08:26:00Z</time>
      </trkpt>
      <trkpt lat="43.83231" lon="1.88255">
        <ele>229.05693</ele>
        <time>2012-09-09T08:26:05Z</time>
      </trkpt>
      <trkpt lat="43.83242" lon="1.88227">
        <ele>228.52866</ele>
        <time>2012-09-09T08:26:11Z</time>
      </trkpt>
      <trkpt lat="43.83246" lon="1.882">
        <ele>225.86102</ele>
        <time>2012-09-09T08:26:15Z</time>
      </trkpt>
      <trkpt lat="43.83253" lon="1.88176">
        <ele>224.98141</ele>
        <time>2012-09-09T08:26:19Z</time>
      </trkpt>
      <trkpt lat="43.83265" lon="1.8815">
        <ele>223.43016</ele>
        <time>2012-09-09T08:26:24Z</time>
      </trkpt>
      <trkpt lat="43.83278" lon="1.8813">
        <ele>220.52611</ele>
        <time>2012-09-09T08:26:29Z</time>
      </trkpt>
      <trkpt lat="43.83295" lon="1.8811">
        <ele>217.95757</ele>
        <time>2012-09-09T08:26:34Z</time>
      </trkpt>
      <trkpt lat="43.83308" lon="1.8809">
        <ele>218.38814</ele>
        <time>2012-09-09T08:26:38Z</time>
      </trkpt>
      <trkpt lat="43.83319" lon="1.88069">
        <ele>218.10562</ele>
        <time>2012-09-09T08:26:42Z</time>
      </trkpt>
      <trkpt lat="43.83333" lon="1.88045">
        <ele>215.62366</ele>
        <time>2012-09-09T08:26:46Z</time>
      </trkpt>
      <trkpt lat="43.83348" lon="1.88022">
        <ele>213.47037</ele>
        <time>2012-09-09T08:26:50Z</time>
      </trkpt>
      <trkpt lat="43.83358" lon="1.88001">
        <ele>213.92696</ele>
        <time>2012-09-09T08:26:54Z</time>
      </trkpt>
      <trkpt lat="43.83361" lon="1.87974">
        <ele>215.65318</ele>
        <time>2012-09-09T08:26:59Z</time>
      </trkpt>
      <trkpt lat="43.83377" lon="1.87958">
        <ele>220.56252</ele>
        <time>2012-09-09T08:27:04Z</time>
      </trkpt>
      <trkpt lat="43.83457" lon="1.87757">
        <ele>220.49205</ele>
        <time>2012-09-09T08:27:39Z</time>
      </trkpt>
      <trkpt lat="43.83472" lon="1.87737">
        <ele>211.81311</ele>
        <time>2012-09-09T08:27:43Z</time>
      </trkpt>
      <trkpt lat="43.8348" lon="1.87714">
        <ele>205.57329</ele>
        <time>2012-09-09T08:27:47Z</time>
      </trkpt>
      <trkpt lat="43.83493" lon="1.87695">
        <ele>206.20522</ele>
        <time>2012-09-09T08:27:51Z</time>
      </trkpt>
      <trkpt lat="43.83509" lon="1.87673">
        <ele>206.10126</ele>
        <time>2012-09-09T08:27:55Z</time>
      </trkpt>
      <trkpt lat="43.83525" lon="1.87661">
        <ele>206.95834</ele>
        <time>2012-09-09T08:27:58Z</time>
      </trkpt>
      <trkpt lat="43.83545" lon="1.8766">
        <ele>207.14806</ele>
        <time>2012-09-09T08:28:01Z</time>
      </trkpt>
      <trkpt lat="43.8357" lon="1.87669">
        <ele>207.17615</ele>
        <time>2012-09-09T08:28:05Z</time>
      </trkpt>
      <trkpt lat="43.83588" lon="1.87692">
        <ele>206.66237</ele>
        <time>2012-09-09T08:28:09Z</time>
      </trkpt>
      <trkpt lat="43.83597" lon="1.87714">
        <ele>208.73029</ele>
        <time>2012-09-09T08:28:13Z</time>
      </trkpt>
      <trkpt lat="43.83615" lon="1.87729">
        <ele>211.68184</ele>
        <time>2012-09-09T08:28:17Z</time>
      </trkpt>
      <trkpt lat="43.83631" lon="1.87742">
        <ele>213.64699</ele>
        <time>2012-09-09T08:28:21Z</time>
      </trkpt>
      <trkpt lat="43.83648" lon="1.87753">
        <ele>215.49202</ele>
        <time>2012-09-09T08:28:26Z</time>
      </trkpt>
      <trkpt lat="43.83662" lon="1.8777">
        <ele>217.64186</ele>
        <time>2012-09-09T08:28:32Z</time>
      </trkpt>
      <trkpt lat="43.83668" lon="1.87796">
        <ele>219.23883</ele>
        <time>2012-09-09T08:28:39Z</time>
      </trkpt>
      <trkpt lat="43.83679" lon="1.87816">
        <ele>217.3933</ele>
        <time>2012-09-09T08:28:46Z</time>
      </trkpt>
      <trkpt lat="43.83689" lon="1.87839">
        <ele>221.06335</ele>
        <time>2012-09-09T08:28:53Z</time>
      </trkpt>
      <trkpt lat="43.83701" lon="1.87859">
        <ele>220.44957</ele>
        <time>2012-09-09T08:29:00Z</time>
      </trkpt>
      <trkpt lat="43.83703" lon="1.87887">
        <ele>219.93974</ele>
        <time>2012-09-09T08:29:07Z</time>
      </trkpt>
      <trkpt lat="43.83687" lon="1.87906">
        <ele>220.0108</ele>
        <time>2012-09-09T08:29:12Z</time>
      </trkpt>
      <trkpt lat="43.83677" lon="1.87929">
        <ele>222.06311</ele>
        <time>2012-09-09T08:29:17Z</time>
      </trkpt>
      <trkpt lat="43.8368" lon="1.87954">
        <ele>221.35736</ele>
        <time>2012-09-09T08:29:22Z</time>
      </trkpt>
      <trkpt lat="43.83687" lon="1.87978">
        <ele>220.59003</ele>
        <time>2012-09-09T08:29:26Z</time>
      </trkpt>
      <trkpt lat="43.83691" lon="1.88003">
        <ele>220.9238</ele>
        <time>2012-09-09T08:29:30Z</time>
      </trkpt>
      <trkpt lat="43.83698" lon="1.88032">
        <ele>220.58719</ele>
        <time>2012-09-09T08:29:35Z</time>
      </trkpt>
      <trkpt lat="43.83707" lon="1.8806">
        <ele>222.00693</ele>
        <time>2012-09-09T08:29:40Z</time>
      </trkpt>
      <trkpt lat="43.83714" lon="1.88087">
        <ele>222.51703</ele>
        <time>2012-09-09T08:29:44Z</time>
      </trkpt>
      <trkpt lat="43.83725" lon="1.88113">
        <ele>221.79222</ele>
        <time>2012-09-09T08:29:49Z</time>
      </trkpt>
      <trkpt lat="43.83731" lon="1.88136">
        <ele>221.03738</ele>
        <time>2012-09-09T08:29:53Z</time>
      </trkpt>
      <trkpt lat="43.83739" lon="1.88165">
        <ele>218.79568</ele>
        <time>2012-09-09T08:29:58Z</time>
      </trkpt>
      <trkpt lat="43.83747" lon="1.88192">
        <ele>217.77246</ele>
        <time>2012-09-09T08:30:02Z</time>
      </trkpt>
      <trkpt lat="43.83767" lon="1.88202">
        <ele>216.153</ele>
        <time>2012-09-09T08:30:06Z</time>
      </trkpt>
      <trkpt lat="43.83784" lon="1.88193">
        <ele>215.82458</ele>
        <time>2012-09-09T08:30:10Z</time>
      </trkpt>
      <trkpt lat="43.83802" lon="1.88185">
        <ele>213.67287</ele>
        <time>2012-09-09T08:30:13Z</time>
      </trkpt>
      <trkpt lat="43.83825" lon="1.8818">
        <ele>211.93008</ele>
        <time>2012-09-09T08:30:17Z</time>
      </trkpt>
      <trkpt lat="43.83845" lon="1.88183">
        <ele>213.00562</ele>
        <time>2012-09-09T08:30:21Z</time>
      </trkpt>
      <trkpt lat="43.83865" lon="1.88178">
        <ele>216.87053</ele>
        <time>2012-09-09T08:30:25Z</time>
      </trkpt>
      <trkpt lat="43.83884" lon="1.88172">
        <ele>221.29068</ele>
        <time>2012-09-09T08:30:29Z</time>
      </trkpt>
      <trkpt lat="43.83907" lon="1.88164">
        <ele>220.95369</ele>
        <time>2012-09-09T08:30:33Z</time>
      </trkpt>
      <trkpt lat="43.83929" lon="1.88156">
        <ele>219.63417</ele>
        <time>2012-09-09T08:30:37Z</time>
      </trkpt>
      <trkpt lat="43.83938" lon="1.88178">
        <ele>219.94844</ele>
        <time>2012-09-09T08:30:42Z</time>
      </trkpt>
      <trkpt lat="43.83946" lon="1.88202">
        <ele>224.1468</ele>
        <time>2012-09-09T08:30:49Z</time>
      </trkpt>
      <trkpt lat="43.83949" lon="1.88234">
        <ele>225.43317</ele>
        <time>2012-09-09T08:30:53Z</time>
      </trkpt>
      <trkpt lat="43.83956" lon="1.88268">
        <ele>223.75462</ele>
        <time>2012-09-09T08:30:56Z</time>
      </trkpt>
      <trkpt lat="43.83965" lon="1.88296">
        <ele>219.20572</ele>
        <time>2012-09-09T08:30:58Z</time>
      </trkpt>
      <trkpt lat="43.83977" lon="1.88325">
        <ele>215.95322</ele>
        <time>2012-09-09T08:31:00Z</time>
      </trkpt>
      <trkpt lat="43.83989" lon="1.88356">
        <ele>213.5362</ele>
        <time>2012-09-09T08:31:02Z</time>
      </trkpt>
      <trkpt lat="43.84001" lon="1.88383">
        <ele>211.19536</ele>
        <time>2012-09-09T08:31:04Z</time>
      </trkpt>
      <trkpt lat="43.84012" lon="1.88411">
        <ele>208.11613</ele>
        <time>2012-09-09T08:31:06Z</time>
      </trkpt>
      <trkpt lat="43.84022" lon="1.88436">
        <ele>205.44032</ele>
        <time>2012-09-09T08:31:08Z</time>
      </trkpt>
      <trkpt lat="43.84035" lon="1.88468">
        <ele>202.53264</ele>
        <time>2012-09-09T08:31:11Z</time>
      </trkpt>
      <trkpt lat="43.84047" lon="1.88492">
        <ele>199.70596</ele>
        <time>2012-09-09T08:31:14Z</time>
      </trkpt>
      <trkpt lat="43.84055" lon="1.88518">
        <ele>195.31009</ele>
        <time>2012-09-09T08:31:18Z</time>
      </trkpt>
      <trkpt lat="43.8406" lon="1.88543">
        <ele>192.40358</ele>
        <time>2012-09-09T08:31:22Z</time>
      </trkpt>
      <trkpt lat="43.84068" lon="1.88566">
        <ele>191.30307</ele>
        <time>2012-09-09T08:31:25Z</time>
      </trkpt>
      <trkpt lat="43.8409" lon="1.88576">
        <ele>190.94661</ele>
        <time>2012-09-09T08:31:28Z</time>
      </trkpt>
      <trkpt lat="43.84104" lon="1.88591">
        <ele>192.4556</ele>
        <time>2012-09-09T08:31:31Z</time>
      </trkpt>
      <trkpt lat="43.84124" lon="1.88606">
        <ele>195.66603</ele>
        <time>2012-09-09T08:31:35Z</time>
      </trkpt>
      <trkpt lat="43.84143" lon="1.88602">
        <ele>196.96223</ele>
        <time>2012-09-09T08:31:38Z</time>
      </trkpt>
      <trkpt lat="43.8416" lon="1.88588">
        <ele>197.57828</ele>
        <time>2012-09-09T08:31:42Z</time>
      </trkpt>
      <trkpt lat="43.84181" lon="1.88575">
        <ele>197.31578</ele>
        <time>2012-09-09T08:31:46Z</time>
      </trkpt>
      <trkpt lat="43.84202" lon="1.88563">
        <ele>198.81712</ele>
        <time>2012-09-09T08:31:51Z</time>
      </trkpt>
      <trkpt lat="43.84221" lon="1.8855">
        <ele>200.17456</ele>
        <time>2012-09-09T08:31:55Z</time>
      </trkpt>
      <trkpt lat="43.84239" lon="1.88542">
        <ele>200.84</ele>
        <time>2012-09-09T08:31:59Z</time>
      </trkpt>
      <trkpt lat="43.84255" lon="1.88528">
        <ele>199.93414</ele>
        <time>2012-09-09T08:32:03Z</time>
      </trkpt>
      <trkpt lat="43.84274" lon="1.88513">
        <ele>200.05768</ele>
        <time>2012-09-09T08:32:07Z</time>
      </trkpt>
      <trkpt lat="43.84401" lon="1.88366">
        <ele>192.94325</ele>
        <time>2012-09-09T08:32:38Z</time>
      </trkpt>
      <trkpt lat="43.84407" lon="1.88336">
        <ele>195.92157</ele>
        <time>2012-09-09T08:32:44Z</time>
      </trkpt>
      <trkpt lat="43.84423" lon="1.8835">
        <ele>195.2103</ele>
        <time>2012-09-09T08:33:05Z</time>
      </trkpt>
      <trkpt lat="43.84436" lon="1.88369">
        <ele>199.10576</ele>
        <time>2012-09-09T08:33:12Z</time>
      </trkpt>
      <trkpt lat="43.84451" lon="1.88385">
        <ele>200.2403</ele>
        <time>2012-09-09T08:33:19Z</time>
      </trkpt>
      <trkpt lat="43.84454" lon="1.88409">
        <ele>205.3868</ele>
        <time>2012-09-09T08:33:26Z</time>
      </trkpt>
      <trkpt lat="43.84461" lon="1.88435">
        <ele>207.05812</ele>
        <time>2012-09-09T08:33:32Z</time>
      </trkpt>
      <trkpt lat="43.84467" lon="1.88459">
        <ele>211.87192</ele>
        <time>2012-09-09T08:33:38Z</time>
      </trkpt>
      <trkpt lat="43.84473" lon="1.88485">
        <ele>223.23488</ele>
        <time>2012-09-09T08:33:46Z</time>
      </trkpt>
      <trkpt lat="43.84477" lon="1.8851">
        <ele>221.23604</ele>
        <time>2012-09-09T08:33:54Z</time>
      </trkpt>
      <trkpt lat="43.84462" lon="1.88528">
        <ele>223.50018</ele>
        <time>2012-09-09T08:34:06Z</time>
      </trkpt>
      <trkpt lat="43.84443" lon="1.88531">
        <ele>231.43047</ele>
        <time>2012-09-09T08:34:20Z</time>
      </trkpt>
      <trkpt lat="43.84434" lon="1.88506">
        <ele>233.79005</ele>
        <time>2012-09-09T08:34:29Z</time>
      </trkpt>
      <trkpt lat="43.84436" lon="1.88481">
        <ele>229.63191</ele>
        <time>2012-09-09T08:34:31Z</time>
      </trkpt>
      <trkpt lat="43.84424" lon="1.88502">
        <ele>224.2569</ele>
        <time>2012-09-09T08:34:36Z</time>
      </trkpt>
      <trkpt lat="43.84413" lon="1.88525">
        <ele>218.9934</ele>
        <time>2012-09-09T08:34:40Z</time>
      </trkpt>
      <trkpt lat="43.84396" lon="1.88547">
        <ele>216.62369</ele>
        <time>2012-09-09T08:34:44Z</time>
      </trkpt>
      <trkpt lat="43.84383" lon="1.88563">
        <ele>215.95218</ele>
        <time>2012-09-09T08:34:47Z</time>
      </trkpt>
      <trkpt lat="43.84368" lon="1.88583">
        <ele>215.20795</ele>
        <time>2012-09-09T08:34:50Z</time>
      </trkpt>
      <trkpt lat="43.84354" lon="1.88612">
        <ele>214.63148</ele>
        <time>2012-09-09T08:34:53Z</time>
      </trkpt>
      <trkpt lat="43.84343" lon="1.88635">
        <ele>215.53358</ele>
        <time>2012-09-09T08:34:56Z</time>
      </trkpt>
      <trkpt lat="43.84327" lon="1.88651">
        <ele>215.55885</ele>
        <time>2012-09-09T08:35:01Z</time>
      </trkpt>
      <trkpt lat="43.84312" lon="1.88669">
        <ele>215.28503</ele>
        <time>2012-09-09T08:35:05Z</time>
      </trkpt>
      <trkpt lat="43.84295" lon="1.88684">
        <ele>215.62946</ele>
        <time>2012-09-09T08:35:10Z</time>
      </trkpt>
      <trkpt lat="43.84279" lon="1.88696">
        <ele>215.92805</ele>
        <time>2012-09-09T08:35:13Z</time>
      </trkpt>
      <trkpt lat="43.84263" lon="1.88712">
        <ele>216.46463</ele>
        <time>2012-09-09T08:35:20Z</time>
      </trkpt>
      <trkpt lat="43.84245" lon="1.88721">
        <ele>215.97696</ele>
        <time>2012-09-09T08:35:25Z</time>
      </trkpt>
      <trkpt lat="43.84227" lon="1.88731">
        <ele>216.22705</ele>
        <time>2012-09-09T08:35:30Z</time>
      </trkpt>
      <trkpt lat="43.84208" lon="1.88737">
        <ele>216.49606</ele>
        <time>2012-09-09T08:35:34Z</time>
      </trkpt>
      <trkpt lat="43.84185" lon="1.8874">
        <ele>216.1749</ele>
        <time>2012-09-09T08:35:37Z</time>
      </trkpt>
      <trkpt lat="43.84163" lon="1.88751">
        <ele>217.05768</ele>
        <time>2012-09-09T08:35:41Z</time>
      </trkpt>
      <trkpt lat="43.84147" lon="1.88761">
        <ele>217.46027</ele>
        <time>2012-09-09T08:35:44Z</time>
      </trkpt>
      <trkpt lat="43.8413" lon="1.88774">
        <ele>218.21321</ele>
        <time>2012-09-09T08:35:48Z</time>
      </trkpt>
      <trkpt lat="43.84114" lon="1.88789">
        <ele>218.01154</ele>
        <time>2012-09-09T08:35:53Z</time>
      </trkpt>
      <trkpt lat="43.84099" lon="1.88801">
        <ele>217.61719</ele>
        <time>2012-09-09T08:35:58Z</time>
      </trkpt>
      <trkpt lat="43.84082" lon="1.88816">
        <ele>216.05394</ele>
        <time>2012-09-09T08:36:04Z</time>
      </trkpt>
      <trkpt lat="43.84082" lon="1.88844">
        <ele>213.91794</ele>
        <time>2012-09-09T08:36:13Z</time>
      </trkpt>
      <trkpt lat="43.84093" lon="1.88865">
        <ele>209.20654</ele>
        <time>2012-09-09T08:36:23Z</time>
      </trkpt>
      <trkpt lat="43.84106" lon="1.88882">
        <ele>214.93965</ele>
        <time>2012-09-09T08:36:36Z</time>
      </trkpt>
      <trkpt lat="43.84115" lon="1.88905">
        <ele>222.47954</ele>
        <time>2012-09-09T08:36:56Z</time>
      </trkpt>
      <trkpt lat="43.84106" lon="1.88928">
        <ele>224.08461</ele>
        <time>2012-09-09T08:37:07Z</time>
      </trkpt>
      <trkpt lat="43.84105" lon="1.89051">
        <ele>223.67259</ele>
        <time>2012-09-09T08:37:39Z</time>
      </trkpt>
      <trkpt lat="43.84115" lon="1.89073">
        <ele>224.81857</ele>
        <time>2012-09-09T08:37:49Z</time>
      </trkpt>
      <trkpt lat="43.84131" lon="1.89089">
        <ele>231.76102</ele>
        <time>2012-09-09T08:37:57Z</time>
      </trkpt>
      <trkpt lat="43.84148" lon="1.891">
        <ele>229.5341</ele>
        <time>2012-09-09T08:38:05Z</time>
      </trkpt>
      <trkpt lat="43.84163" lon="1.89113">
        <ele>227.1021</ele>
        <time>2012-09-09T08:38:12Z</time>
      </trkpt>
      <trkpt lat="43.84181" lon="1.89127">
        <ele>227.76016</ele>
        <time>2012-09-09T08:38:19Z</time>
      </trkpt>
      <trkpt lat="43.84197" lon="1.89142">
        <ele>227.65439</ele>
        <time>2012-09-09T08:38:25Z</time>
      </trkpt>
      <trkpt lat="43.84217" lon="1.89154">
        <ele>225.42686</ele>
        <time>2012-09-09T08:38:30Z</time>
      </trkpt>
      <trkpt lat="43.84234" lon="1.89167">
        <ele>223.74796</ele>
        <time>2012-09-09T08:38:34Z</time>
      </trkpt>
      <trkpt lat="43.84252" lon="1.89179">
        <ele>222.92923</ele>
        <time>2012-09-09T08:38:38Z</time>
      </trkpt>
      <trkpt lat="43.8427" lon="1.89189">
        <ele>222.28035</ele>
        <time>2012-09-09T08:38:42Z</time>
      </trkpt>
      <trkpt lat="43.84291" lon="1.89197">
        <ele>221.72034</ele>
        <time>2012-09-09T08:38:46Z</time>
      </trkpt>
      <trkpt lat="43.8431" lon="1.89204">
        <ele>221.89433</ele>
        <time>2012-09-09T08:38:50Z</time>
      </trkpt>
      <trkpt lat="43.84328" lon="1.89209">
        <ele>222.46324</ele>
        <time>2012-09-09T08:38:53Z</time>
      </trkpt>
      <trkpt lat="43.84351" lon="1.8922">
        <ele>221.53798</ele>
        <time>2012-09-09T08:38:57Z</time>
      </trkpt>
      <trkpt lat="43.84368" lon="1.89231">
        <ele>220.30977</ele>
        <time>2012-09-09T08:39:00Z</time>
      </trkpt>
      <trkpt lat="43.84386" lon="1.89243">
        <ele>218.6885</ele>
        <time>2012-09-09T08:39:03Z</time>
      </trkpt>
      <trkpt lat="43.84406" lon="1.89262">
        <ele>217.0909</ele>
        <time>2012-09-09T08:39:07Z</time>
      </trkpt>
      <trkpt lat="43.84418" lon="1.89284">
        <ele>216.0979</ele>
        <time>2012-09-09T08:39:11Z</time>
      </trkpt>
      <trkpt lat="43.84405" lon="1.89303">
        <ele>216.14209</ele>
        <time>2012-09-09T08:39:17Z</time>
      </trkpt>
      <trkpt lat="43.84392" lon="1.89326">
        <ele>216.40941</ele>
        <time>2012-09-09T08:39:22Z</time>
      </trkpt>
      <trkpt lat="43.8441" lon="1.89315">
        <ele>218.22488</ele>
        <time>2012-09-09T08:39:30Z</time>
      </trkpt>
      <trkpt lat="43.84426" lon="1.89302">
        <ele>216.04237</ele>
        <time>2012-09-09T08:39:36Z</time>
      </trkpt>
      <trkpt lat="43.8444" lon="1.89324">
        <ele>216.64124</ele>
        <time>2012-09-09T08:39:42Z</time>
      </trkpt>
      <trkpt lat="43.84454" lon="1.89343">
        <ele>217.88722</ele>
        <time>2012-09-09T08:39:47Z</time>
      </trkpt>
      <trkpt lat="43.84468" lon="1.89361">
        <ele>218.36705</ele>
        <time>2012-09-09T08:39:51Z</time>
      </trkpt>
      <trkpt lat="43.84479" lon="1.89381">
        <ele>217.2806</ele>
        <time>2012-09-09T08:39:55Z</time>
      </trkpt>
      <trkpt lat="43.84494" lon="1.89399">
        <ele>218.16066</ele>
        <time>2012-09-09T08:39:59Z</time>
      </trkpt>
      <trkpt lat="43.84507" lon="1.89419">
        <ele>218.68716</ele>
        <time>2012-09-09T08:40:03Z</time>
      </trkpt>
      <trkpt lat="43.8452" lon="1.8944">
        <ele>218.8932</ele>
        <time>2012-09-09T08:40:07Z</time>
      </trkpt>
      <trkpt lat="43.84532" lon="1.89463">
        <ele>217.54044</ele>
        <time>2012-09-09T08:40:11Z</time>
      </trkpt>
      <trkpt lat="43.84551" lon="1.89483">
        <ele>215.43623</ele>
        <time>2012-09-09T08:40:15Z</time>
      </trkpt>
      <trkpt lat="43.84572" lon="1.89497">
        <ele>214.80435</ele>
        <time>2012-09-09T08:40:18Z</time>
      </trkpt>
      <trkpt lat="43.84589" lon="1.89514">
        <ele>213.03464</ele>
        <time>2012-09-09T08:40:21Z</time>
      </trkpt>
      <trkpt lat="43.84607" lon="1.89529">
        <ele>211.1115</ele>
        <time>2012-09-09T08:40:24Z</time>
      </trkpt>
      <trkpt lat="43.84613" lon="1.89554">
        <ele>209.30653</ele>
        <time>2012-09-09T08:40:29Z</time>
      </trkpt>
      <trkpt lat="43.84597" lon="1.89569">
        <ele>209.846</ele>
        <time>2012-09-09T08:40:34Z</time>
      </trkpt>
      <trkpt lat="43.84583" lon="1.89588">
        <ele>210.5845</ele>
        <time>2012-09-09T08:40:40Z</time>
      </trkpt>
      <trkpt lat="43.84586" lon="1.89613">
        <ele>213.64507</ele>
        <time>2012-09-09T08:40:48Z</time>
      </trkpt>
      <trkpt lat="43.84601" lon="1.89628">
        <ele>215.12596</ele>
        <time>2012-09-09T08:40:55Z</time>
      </trkpt>
      <trkpt lat="43.84617" lon="1.89645">
        <ele>221.26051</ele>
        <time>2012-09-09T08:41:02Z</time>
      </trkpt>
      <trkpt lat="43.84633" lon="1.89663">
        <ele>229.28444</ele>
        <time>2012-09-09T08:41:09Z</time>
      </trkpt>
      <trkpt lat="43.8465" lon="1.89683">
        <ele>230.68375</ele>
        <time>2012-09-09T08:41:13Z</time>
      </trkpt>
      <trkpt lat="43.84663" lon="1.89701">
        <ele>232.18822</ele>
        <time>2012-09-09T08:41:17Z</time>
      </trkpt>
      <trkpt lat="43.84678" lon="1.89717">
        <ele>232.45331</ele>
        <time>2012-09-09T08:41:21Z</time>
      </trkpt>
      <trkpt lat="43.84693" lon="1.89735">
        <ele>233.1398</ele>
        <time>2012-09-09T08:41:26Z</time>
      </trkpt>
      <trkpt lat="43.84705" lon="1.89757">
        <ele>235.5997</ele>
        <time>2012-09-09T08:41:30Z</time>
      </trkpt>
      <trkpt lat="43.84722" lon="1.89774">
        <ele>238.14209</ele>
        <time>2012-09-09T08:41:34Z</time>
      </trkpt>
      <trkpt lat="43.84741" lon="1.8979">
        <ele>238.956</ele>
        <time>2012-09-09T08:41:39Z</time>
      </trkpt>
      <trkpt lat="43.84758" lon="1.89803">
        <ele>235.12012</ele>
        <time>2012-09-09T08:41:44Z</time>
      </trkpt>
      <trkpt lat="43.84772" lon="1.89782">
        <ele>232.21591</ele>
        <time>2012-09-09T08:41:50Z</time>
      </trkpt>
      <trkpt lat="43.84791" lon="1.89798">
        <ele>231.39722</ele>
        <time>2012-09-09T08:41:54Z</time>
      </trkpt>
      <trkpt lat="43.84812" lon="1.89797">
        <ele>231.28323</ele>
        <time>2012-09-09T08:41:59Z</time>
      </trkpt>
      <trkpt lat="43.84821" lon="1.89773">
        <ele>228.6818</ele>
        <time>2012-09-09T08:42:03Z</time>
      </trkpt>
      <trkpt lat="43.8483" lon="1.89747">
        <ele>226.58018</ele>
        <time>2012-09-09T08:42:07Z</time>
      </trkpt>
      <trkpt lat="43.84939" lon="1.8985">
        <ele>222.66039</ele>
        <time>2012-09-09T08:42:40Z</time>
      </trkpt>
      <trkpt lat="43.84955" lon="1.89866">
        <ele>216.12234</ele>
        <time>2012-09-09T08:42:43Z</time>
      </trkpt>
      <trkpt lat="43.84964" lon="1.89891">
        <ele>209.08911</ele>
        <time>2012-09-09T08:42:46Z</time>
      </trkpt>
      <trkpt lat="43.84986" lon="1.899">
        <ele>209.43448</ele>
        <time>2012-09-09T08:42:49Z</time>
      </trkpt>
      <trkpt lat="43.84998" lon="1.89921">
        <ele>208.96611</ele>
        <time>2012-09-09T08:42:52Z</time>
      </trkpt>
      <trkpt lat="43.85013" lon="1.8994">
        <ele>206.87477</ele>
        <time>2012-09-09T08:42:55Z</time>
      </trkpt>
      <trkpt lat="43.85031" lon="1.8996">
        <ele>204.88623</ele>
        <time>2012-09-09T08:42:58Z</time>
      </trkpt>
      <trkpt lat="43.85048" lon="1.89979">
        <ele>202.61763</ele>
        <time>2012-09-09T08:43:01Z</time>
      </trkpt>
      <trkpt lat="43.85066" lon="1.89997">
        <ele>200.29181</ele>
        <time>2012-09-09T08:43:04Z</time>
      </trkpt>
      <trkpt lat="43.85082" lon="1.90015">
        <ele>198.19029</ele>
        <time>2012-09-09T08:43:07Z</time>
      </trkpt>
      <trkpt lat="43.851" lon="1.90029">
        <ele>194.26309</ele>
        <time>2012-09-09T08:43:10Z</time>
      </trkpt>
      <trkpt lat="43.85116" lon="1.90045">
        <ele>192.28287</ele>
        <time>2012-09-09T08:43:13Z</time>
      </trkpt>
      <trkpt lat="43.85138" lon="1.90061">
        <ele>192.57584</ele>
        <time>2012-09-09T08:43:17Z</time>
      </trkpt>
      <trkpt lat="43.85161" lon="1.90066">
        <ele>192.85876</ele>
        <time>2012-09-09T08:43:21Z</time>
      </trkpt>
      <trkpt lat="43.85169" lon="1.90089">
        <ele>191.15094</ele>
        <time>2012-09-09T08:43:27Z</time>
      </trkpt>
      <trkpt lat="43.85157" lon="1.90113">
        <ele>190.0157</ele>
        <time>2012-09-09T08:43:32Z</time>
      </trkpt>
      <trkpt lat="43.85146" lon="1.90135">
        <ele>191.80824</ele>
        <time>2012-09-09T08:43:38Z</time>
      </trkpt>
      <trkpt lat="43.85126" lon="1.90133">
        <ele>193.83858</ele>
        <time>2012-09-09T08:43:43Z</time>
      </trkpt>
      <trkpt lat="43.85106" lon="1.9013">
        <ele>196.0866</ele>
        <time>2012-09-09T08:43:48Z</time>
      </trkpt>
      <trkpt lat="43.85086" lon="1.90132">
        <ele>198.45786</ele>
        <time>2012-09-09T08:43:53Z</time>
      </trkpt>
      <trkpt lat="43.85068" lon="1.90133">
        <ele>201.39186</ele>
        <time>2012-09-09T08:43:59Z</time>
      </trkpt>
      <trkpt lat="43.85049" lon="1.90145">
        <ele>201.8183</ele>
        <time>2012-09-09T08:44:05Z</time>
      </trkpt>
      <trkpt lat="43.85031" lon="1.90159">
        <ele>202.53873</ele>
        <time>2012-09-09T08:44:11Z</time>
      </trkpt>
      <trkpt lat="43.85011" lon="1.90171">
        <ele>201.59468</ele>
        <time>2012-09-09T08:44:15Z</time>
      </trkpt>
      <trkpt lat="43.84998" lon="1.9019">
        <ele>201.75143</ele>
        <time>2012-09-09T08:44:19Z</time>
      </trkpt>
      <trkpt lat="43.84985" lon="1.90211">
        <ele>202.49873</ele>
        <time>2012-09-09T08:44:24Z</time>
      </trkpt>
      <trkpt lat="43.8497" lon="1.90229">
        <ele>201.22726</ele>
        <time>2012-09-09T08:44:30Z</time>
      </trkpt>
      <trkpt lat="43.84952" lon="1.90241">
        <ele>203.18552</ele>
        <time>2012-09-09T08:44:36Z</time>
      </trkpt>
      <trkpt lat="43.84936" lon="1.90255">
        <ele>204.19933</ele>
        <time>2012-09-09T08:44:42Z</time>
      </trkpt>
      <trkpt lat="43.84921" lon="1.90275">
        <ele>206.11758</ele>
        <time>2012-09-09T08:44:50Z</time>
      </trkpt>
      <trkpt lat="43.84925" lon="1.903">
        <ele>204.87321</ele>
        <time>2012-09-09T08:45:04Z</time>
      </trkpt>
      <trkpt lat="43.84943" lon="1.90298">
        <ele>207.96744</ele>
        <time>2012-09-09T08:45:20Z</time>
      </trkpt>
      <trkpt lat="43.84961" lon="1.90302">
        <ele>211.43877</ele>
        <time>2012-09-09T08:45:28Z</time>
      </trkpt>
      <trkpt lat="43.84979" lon="1.90301">
        <ele>214.29964</ele>
        <time>2012-09-09T08:45:36Z</time>
      </trkpt>
      <trkpt lat="43.84998" lon="1.90299">
        <ele>217.27808</ele>
        <time>2012-09-09T08:45:44Z</time>
      </trkpt>
      <trkpt lat="43.84989" lon="1.90322">
        <ele>212.38232</ele>
        <time>2012-09-09T08:46:01Z</time>
      </trkpt>
      <trkpt lat="43.84974" lon="1.90339">
        <ele>211.58629</ele>
        <time>2012-09-09T08:46:09Z</time>
      </trkpt>
      <trkpt lat="43.8496" lon="1.9036">
        <ele>215.0149</ele>
        <time>2012-09-09T08:46:17Z</time>
      </trkpt>
      <trkpt lat="43.84945" lon="1.90382">
        <ele>216.19597</ele>
        <time>2012-09-09T08:46:23Z</time>
      </trkpt>
      <trkpt lat="43.8493" lon="1.90399">
        <ele>214.94621</ele>
        <time>2012-09-09T08:46:28Z</time>
      </trkpt>
      <trkpt lat="43.84912" lon="1.90413">
        <ele>213.6706</ele>
        <time>2012-09-09T08:46:35Z</time>
      </trkpt>
      <trkpt lat="43.84901" lon="1.90436">
        <ele>212.51967</ele>
        <time>2012-09-09T08:46:41Z</time>
      </trkpt>
      <trkpt lat="43.84886" lon="1.90455">
        <ele>208.15338</ele>
        <time>2012-09-09T08:46:47Z</time>
      </trkpt>
      <trkpt lat="43.84872" lon="1.90474">
        <ele>207.44087</ele>
        <time>2012-09-09T08:46:53Z</time>
      </trkpt>
      <trkpt lat="43.84859" lon="1.90494">
        <ele>208.57132</ele>
        <time>2012-09-09T08:46:58Z</time>
      </trkpt>
      <trkpt lat="43.84835" lon="1.90513">
        <ele>213.83624</ele>
        <time>2012-09-09T08:47:02Z</time>
      </trkpt>
      <trkpt lat="43.84816" lon="1.9052">
        <ele>211.37466</ele>
        <time>2012-09-09T08:47:05Z</time>
      </trkpt>
      <trkpt lat="43.8468" lon="1.90511">
        <ele>210.48735</ele>
        <time>2012-09-09T08:47:41Z</time>
      </trkpt>
      <trkpt lat="43.84664" lon="1.90529">
        <ele>209.01015</ele>
        <time>2012-09-09T08:47:47Z</time>
      </trkpt>
      <trkpt lat="43.84649" lon="1.90544">
        <ele>209.98521</ele>
        <time>2012-09-09T08:47:53Z</time>
      </trkpt>
      <trkpt lat="43.8463" lon="1.90554">
        <ele>212.215</ele>
        <time>2012-09-09T08:47:59Z</time>
      </trkpt>
      <trkpt lat="43.84615" lon="1.9057">
        <ele>216.97757</ele>
        <time>2012-09-09T08:48:05Z</time>
      </trkpt>
      <trkpt lat="43.84597" lon="1.90588">
        <ele>218.20963</ele>
        <time>2012-09-09T08:48:10Z</time>
      </trkpt>
      <trkpt lat="43.84581" lon="1.90604">
        <ele>217.43507</ele>
        <time>2012-09-09T08:48:14Z</time>
      </trkpt>
      <trkpt lat="43.84569" lon="1.90624">
        <ele>216.04938</ele>
        <time>2012-09-09T08:48:18Z</time>
      </trkpt>
      <trkpt lat="43.84557" lon="1.90645">
        <ele>215.69962</ele>
        <time>2012-09-09T08:48:22Z</time>
      </trkpt>
      <trkpt lat="43.84545" lon="1.90664">
        <ele>215.70088</ele>
        <time>2012-09-09T08:48:27Z</time>
      </trkpt>
      <trkpt lat="43.84526" lon="1.90657">
        <ele>218.35828</ele>
        <time>2012-09-09T08:48:36Z</time>
      </trkpt>
      <trkpt lat="43.84509" lon="1.90643">
        <ele>217.42857</ele>
        <time>2012-09-09T08:48:41Z</time>
      </trkpt>
      <trkpt lat="43.8449" lon="1.90639">
        <ele>216.28276</ele>
        <time>2012-09-09T08:48:46Z</time>
      </trkpt>
      <trkpt lat="43.84474" lon="1.90626">
        <ele>215.10773</ele>
        <time>2012-09-09T08:48:51Z</time>
      </trkpt>
      <trkpt lat="43.84462" lon="1.90605">
        <ele>215.17029</ele>
        <time>2012-09-09T08:48:56Z</time>
      </trkpt>
      <trkpt lat="43.84451" lon="1.90584">
        <ele>215.88231</ele>
        <time>2012-09-09T08:49:01Z</time>
      </trkpt>
      <trkpt lat="43.8444" lon="1.90561">
        <ele>217.1233</ele>
        <time>2012-09-09T08:49:05Z</time>
      </trkpt>
      <trkpt lat="43.84429" lon="1.90536">
        <ele>218.46178</ele>
        <time>2012-09-09T08:49:10Z</time>
      </trkpt>
      <trkpt lat="43.84419" lon="1.90514">
        <ele>219.4594</ele>
        <time>2012-09-09T08:49:14Z</time>
      </trkpt>
      <trkpt lat="43.84407" lon="1.90494">
        <ele>220.69653</ele>
        <time>2012-09-09T08:49:18Z</time>
      </trkpt>
      <trkpt lat="43.84392" lon="1.90512">
        <ele>219.10074</ele>
        <time>2012-09-09T08:49:23Z</time>
      </trkpt>
      <trkpt lat="43.84382" lon="1.90539">
        <ele>219.20258</ele>
        <time>2012-09-09T08:49:27Z</time>
      </trkpt>
      <trkpt lat="43.84378" lon="1.90566">
        <ele>219.86995</ele>
        <time>2012-09-09T08:49:31Z</time>
      </trkpt>
      <trkpt lat="43.84375" lon="1.90591">
        <ele>218.74323</ele>
        <time>2012-09-09T08:49:35Z</time>
      </trkpt>
      <trkpt lat="43.8437" lon="1.90615">
        <ele>217.6254</ele>
        <time>2012-09-09T08:49:39Z</time>
      </trkpt>
      <trkpt lat="43.84363" lon="1.90645">
        <ele>214.94978</ele>
        <time>2012-09-09T08:49:44Z</time>
      </trkpt>
      <trkpt lat="43.84355" lon="1.90669">
        <ele>211.93645</ele>
        <time>2012-09-09T08:49:48Z</time>
      </trkpt>
      <trkpt lat="43.84349" lon="1.90696">
        <ele>210.26036</ele>
        <time>2012-09-09T08:49:52Z</time>
      </trkpt>
      <trkpt lat="43.8434" lon="1.90722">
        <ele>211.24254</ele>
        <time>2012-09-09T08:49:56Z</time>
      </trkpt>
      <trkpt lat="43.84327" lon="1.90741">
        <ele>212.60095</ele>
        <time>2012-09-09T08:50:00Z</time>
      </trkpt>
      <trkpt lat="43.84312" lon="1.90758">
        <ele>215.3308</ele>
        <time>2012-09-09T08:50:05Z</time>
      </trkpt>
      <trkpt lat="43.84295" lon="1.90771">
        <ele>218.08504</ele>
        <time>2012-09-09T08:50:10Z</time>
      </trkpt>
      <trkpt lat="43.84277" lon="1.90765">
        <ele>223.22726</ele>
        <time>2012-09-09T08:50:18Z</time>
      </trkpt>
      <trkpt lat="43.84265" lon="1.90744">
        <ele>224.99777</ele>
        <time>2012-09-09T08:50:23Z</time>
      </trkpt>
      <trkpt lat="43.84245" lon="1.90745">
        <ele>223.52187</ele>
        <time>2012-09-09T08:50:30Z</time>
      </trkpt>
      <trkpt lat="43.84227" lon="1.90737">
        <ele>224.22237</ele>
        <time>2012-09-09T08:50:38Z</time>
      </trkpt>
      <trkpt lat="43.84211" lon="1.90716">
        <ele>226.56572</ele>
        <time>2012-09-09T08:50:44Z</time>
      </trkpt>
      <trkpt lat="43.84197" lon="1.90696">
        <ele>227.80829</ele>
        <time>2012-09-09T08:50:48Z</time>
      </trkpt>
      <trkpt lat="43.84179" lon="1.90675">
        <ele>228.93878</ele>
        <time>2012-09-09T08:50:53Z</time>
      </trkpt>
      <trkpt lat="43.84164" lon="1.90655">
        <ele>230.41891</ele>
        <time>2012-09-09T08:50:57Z</time>
      </trkpt>
      <trkpt lat="43.84151" lon="1.90636">
        <ele>231.80363</ele>
        <time>2012-09-09T08:51:01Z</time>
      </trkpt>
      <trkpt lat="43.84136" lon="1.90621">
        <ele>232.94257</ele>
        <time>2012-09-09T08:51:05Z</time>
      </trkpt>
      <trkpt lat="43.84123" lon="1.90639">
        <ele>233.02007</ele>
        <time>2012-09-09T08:51:10Z</time>
      </trkpt>
      <trkpt lat="43.84111" lon="1.90662">
        <ele>233.98604</ele>
        <time>2012-09-09T08:51:14Z</time>
      </trkpt>
      <trkpt lat="43.84099" lon="1.90682">
        <ele>232.94637</ele>
        <time>2012-09-09T08:51:18Z</time>
      </trkpt>
      <trkpt lat="43.84088" lon="1.90703">
        <ele>231.69592</ele>
        <time>2012-09-09T08:51:22Z</time>
      </trkpt>
      <trkpt lat="43.84076" lon="1.90724">
        <ele>230.68504</ele>
        <time>2012-09-09T08:51:26Z</time>
      </trkpt>
      <trkpt lat="43.84064" lon="1.90744">
        <ele>230.6648</ele>
        <time>2012-09-09T08:51:30Z</time>
      </trkpt>
      <trkpt lat="43.84051" lon="1.90764">
        <ele>229.9662</ele>
        <time>2012-09-09T08:51:34Z</time>
      </trkpt>
      <trkpt lat="43.84038" lon="1.90785">
        <ele>230.32524</ele>
        <time>2012-09-09T08:51:38Z</time>
      </trkpt>
      <trkpt lat="43.84026" lon="1.90804">
        <ele>230.20837</ele>
        <time>2012-09-09T08:51:42Z</time>
      </trkpt>
      <trkpt lat="43.84012" lon="1.90823">
        <ele>230.01515</ele>
        <time>2012-09-09T08:51:46Z</time>
      </trkpt>
      <trkpt lat="43.83997" lon="1.90846">
        <ele>229.04373</ele>
        <time>2012-09-09T08:51:51Z</time>
      </trkpt>
      <trkpt lat="43.83986" lon="1.90866">
        <ele>228.46461</ele>
        <time>2012-09-09T08:51:55Z</time>
      </trkpt>
      <trkpt lat="43.83993" lon="1.90892">
        <ele>227.8004</ele>
        <time>2012-09-09T08:52:00Z</time>
      </trkpt>
      <trkpt lat="43.84007" lon="1.90913">
        <ele>228.19388</ele>
        <time>2012-09-09T08:52:04Z</time>
      </trkpt>
      <trkpt lat="43.84022" lon="1.90935">
        <ele>227.88556</ele>
        <time>2012-09-09T08:52:08Z</time>
      </trkpt>
      <trkpt lat="43.84124" lon="1.9107">
        <ele>224.30438</ele>
        <time>2012-09-09T08:52:28Z</time>
      </trkpt>
      <trkpt lat="43.84132" lon="1.91099">
        <ele>220.40654</ele>
        <time>2012-09-09T08:52:31Z</time>
      </trkpt>
      <trkpt lat="43.84145" lon="1.91128">
        <ele>219.55745</ele>
        <time>2012-09-09T08:52:34Z</time>
      </trkpt>
      <trkpt lat="43.84157" lon="1.9115">
        <ele>218.0258</ele>
        <time>2012-09-09T08:52:37Z</time>
      </trkpt>
      <trkpt lat="43.84172" lon="1.91175">
        <ele>216.06636</ele>
        <time>2012-09-09T08:52:41Z</time>
      </trkpt>
      <trkpt lat="43.84189" lon="1.91197">
        <ele>216.99287</ele>
        <time>2012-09-09T08:52:45Z</time>
      </trkpt>
      <trkpt lat="43.84203" lon="1.91221">
        <ele>217.9251</ele>
        <time>2012-09-09T08:52:49Z</time>
      </trkpt>
      <trkpt lat="43.84206" lon="1.91249">
        <ele>222.233</ele>
        <time>2012-09-09T08:52:55Z</time>
      </trkpt>
      <trkpt lat="43.84196" lon="1.91275">
        <ele>224.20345</ele>
        <time>2012-09-09T08:53:00Z</time>
      </trkpt>
      <trkpt lat="43.84188" lon="1.91298">
        <ele>223.7468</ele>
        <time>2012-09-09T08:53:04Z</time>
      </trkpt>
      <trkpt lat="43.84178" lon="1.91323">
        <ele>223.58589</ele>
        <time>2012-09-09T08:53:08Z</time>
      </trkpt>
      <trkpt lat="43.84168" lon="1.91349">
        <ele>224.6264</ele>
        <time>2012-09-09T08:53:12Z</time>
      </trkpt>
      <trkpt lat="43.84159" lon="1.91373">
        <ele>225.50952</ele>
        <time>2012-09-09T08:53:16Z</time>
      </trkpt>
      <trkpt lat="43.84147" lon="1.91399">
        <ele>227.49481</ele>
        <time>2012-09-09T08:53:20Z</time>
      </trkpt>
      <trkpt lat="43.84138" lon="1.91425">
        <ele>229.94016</ele>
        <time>2012-09-09T08:53:24Z</time>
      </trkpt>
      <trkpt lat="43.84128" lon="1.91454">
        <ele>231.68263</ele>
        <time>2012-09-09T08:53:28Z</time>
      </trkpt>
      <trkpt lat="43.84119" lon="1.91478">
        <ele>231.85701</ele>
        <time>2012-09-09T08:53:32Z</time>
      </trkpt>
      <trkpt lat="43.84109" lon="1.91503">
        <ele>230.96413</ele>
        <time>2012-09-09T08:53:36Z</time>
      </trkpt>
      <trkpt lat="43.84099" lon="1.91528">
        <ele>231.38943</ele>
        <time>2012-09-09T08:53:40Z</time>
      </trkpt>
      <trkpt lat="43.84089" lon="1.91553">
        <ele>230.38416</ele>
        <time>2012-09-09T08:53:44Z</time>
      </trkpt>
      <trkpt lat="43.84079" lon="1.91578">
        <ele>230.87546</ele>
        <time>2012-09-09T08:53:48Z</time>
      </trkpt>
      <trkpt lat="43.8407" lon="1.91603">
        <ele>229.57895</ele>
        <time>2012-09-09T08:53:52Z</time>
      </trkpt>
      <trkpt lat="43.84066" lon="1.9163">
        <ele>230.10077</ele>
        <time>2012-09-09T08:53:56Z</time>
      </trkpt>
      <trkpt lat="43.84082" lon="1.91649">
        <ele>230.77089</ele>
        <time>2012-09-09T08:54:01Z</time>
      </trkpt>
      <trkpt lat="43.84099" lon="1.91668">
        <ele>231.10915</ele>
        <time>2012-09-09T08:54:05Z</time>
      </trkpt>
      <trkpt lat="43.84112" lon="1.91693">
        <ele>231.02638</ele>
        <time>2012-09-09T08:54:10Z</time>
      </trkpt>
      <trkpt lat="43.84124" lon="1.91715">
        <ele>230.0142</ele>
        <time>2012-09-09T08:54:14Z</time>
      </trkpt>
      <trkpt lat="43.8414" lon="1.91737">
        <ele>225.82051</ele>
        <time>2012-09-09T08:54:18Z</time>
      </trkpt>
      <trkpt lat="43.84155" lon="1.91757">
        <ele>225.2561</ele>
        <time>2012-09-09T08:54:22Z</time>
      </trkpt>
      <trkpt lat="43.84168" lon="1.91782">
        <ele>224.9412</ele>
        <time>2012-09-09T08:54:26Z</time>
      </trkpt>
      <trkpt lat="43.84183" lon="1.91807">
        <ele>224.9685</ele>
        <time>2012-09-09T08:54:30Z</time>
      </trkpt>
      <trkpt lat="43.84194" lon="1.91832">
        <ele>225.36581</ele>
        <time>2012-09-09T08:54:34Z</time>
      </trkpt>
      <trkpt lat="43.84207" lon="1.91857">
        <ele>226.09192</ele>
        <time>2012-09-09T08:54:38Z</time>
      </trkpt>
      <trkpt lat="43.84221" lon="1.91879">
        <ele>227.42674</ele>
        <time>2012-09-09T08:54:42Z</time>
      </trkpt>
      <trkpt lat="43.84234" lon="1.919">
        <ele>230.10417</ele>
        <time>2012-09-09T08:54:46Z</time>
      </trkpt>
      <trkpt lat="43.84254" lon="1.91913">
        <ele>229.6252</ele>
        <time>2012-09-09T08:54:49Z</time>
      </trkpt>
      <trkpt lat="43.84268" lon="1.91935">
        <ele>228.8279</ele>
        <time>2012-09-09T08:54:53Z</time>
      </trkpt>
      <trkpt lat="43.84287" lon="1.91945">
        <ele>225.77478</ele>
        <time>2012-09-09T08:54:58Z</time>
      </trkpt>
      <trkpt lat="43.84302" lon="1.91928">
        <ele>224.98805</ele>
        <time>2012-09-09T08:55:03Z</time>
      </trkpt>
      <trkpt lat="43.84314" lon="1.91908">
        <ele>224.64232</ele>
        <time>2012-09-09T08:55:07Z</time>
      </trkpt>
      <trkpt lat="43.84327" lon="1.91883">
        <ele>226.10713</ele>
        <time>2012-09-09T08:55:11Z</time>
      </trkpt>
      <trkpt lat="43.8434" lon="1.91859">
        <ele>225.7925</ele>
        <time>2012-09-09T08:55:15Z</time>
      </trkpt>
      <trkpt lat="43.84352" lon="1.91834">
        <ele>225.37614</ele>
        <time>2012-09-09T08:55:19Z</time>
      </trkpt>
      <trkpt lat="43.84366" lon="1.91816">
        <ele>223.70065</ele>
        <time>2012-09-09T08:55:23Z</time>
      </trkpt>
      <trkpt lat="43.84387" lon="1.91831">
        <ele>221.53189</ele>
        <time>2012-09-09T08:55:28Z</time>
      </trkpt>
      <trkpt lat="43.84406" lon="1.91844">
        <ele>218.67728</ele>
        <time>2012-09-09T08:55:32Z</time>
      </trkpt>
      <trkpt lat="43.84424" lon="1.91843">
        <ele>218.4576</ele>
        <time>2012-09-09T08:55:35Z</time>
      </trkpt>
      <trkpt lat="43.8444" lon="1.9183">
        <ele>216.7993</ele>
        <time>2012-09-09T08:55:38Z</time>
      </trkpt>
      <trkpt lat="43.8446" lon="1.91821">
        <ele>217.50095</ele>
        <time>2012-09-09T08:55:42Z</time>
      </trkpt>
      <trkpt lat="43.84481" lon="1.91837">
        <ele>218.8003</ele>
        <time>2012-09-09T08:55:46Z</time>
      </trkpt>
      <trkpt lat="43.84497" lon="1.91859">
        <ele>218.70793</ele>
        <time>2012-09-09T08:55:49Z</time>
      </trkpt>
      <trkpt lat="43.84515" lon="1.91878">
        <ele>217.24242</ele>
        <time>2012-09-09T08:55:52Z</time>
      </trkpt>
      <trkpt lat="43.84536" lon="1.91897">
        <ele>216.84602</ele>
        <time>2012-09-09T08:55:55Z</time>
      </trkpt>
      <trkpt lat="43.84551" lon="1.91916">
        <ele>216.61963</ele>
        <time>2012-09-09T08:55:57Z</time>
      </trkpt>
      <trkpt lat="43.84566" lon="1.91929">
        <ele>215.5798</ele>
        <time>2012-09-09T08:55:59Z</time>
      </trkpt>
      <trkpt lat="43.84584" lon="1.91943">
        <ele>212.74489</ele>
        <time>2012-09-09T08:56:01Z</time>
      </trkpt>
      <trkpt lat="43.84602" lon="1.91956">
        <ele>210.16899</ele>
        <time>2012-09-09T08:56:03Z</time>
      </trkpt>
      <trkpt lat="43.84618" lon="1.91968">
        <ele>208.48882</ele>
        <time>2012-09-09T08:56:05Z</time>
      </trkpt>
      <trkpt lat="43.84633" lon="1.91987">
        <ele>208.30655</ele>
        <time>2012-09-09T08:56:11Z</time>
      </trkpt>
      <trkpt lat="43.84617" lon="1.92007">
        <ele>210.34953</ele>
        <time>2012-09-09T08:56:22Z</time>
      </trkpt>
      <trkpt lat="43.84607" lon="1.9203">
        <ele>209.14906</ele>
        <time>2012-09-09T08:56:27Z</time>
      </trkpt>
      <trkpt lat="43.84599" lon="1.92052">
        <ele>208.27844</ele>
        <time>2012-09-09T08:56:32Z</time>
      </trkpt>
      <trkpt lat="43.84585" lon="1.92076">
        <ele>207.80992</ele>
        <time>2012-09-09T08:56:37Z</time>
      </trkpt>
      <trkpt lat="43.8457" lon="1.92096">
        <ele>211.28253</ele>
        <time>2012-09-09T08:56:42Z</time>
      </trkpt>
      <trkpt lat="43.84558" lon="1.92115">
        <ele>216.45328</ele>
        <time>2012-09-09T08:56:47Z</time>
      </trkpt>
      <trkpt lat="43.84547" lon="1.92141">
        <ele>216.82979</ele>
        <time>2012-09-09T08:56:53Z</time>
      </trkpt>
      <trkpt lat="43.8454" lon="1.92166">
        <ele>217.16156</ele>
        <time>2012-09-09T08:56:59Z</time>
      </trkpt>
      <trkpt lat="43.84531" lon="1.92192">
        <ele>217.40793</ele>
        <time>2012-09-09T08:57:05Z</time>
      </trkpt>
      <trkpt lat="43.84589" lon="1.9217">
        <ele>218.0208</ele>
        <time>2012-09-09T08:57:42Z</time>
      </trkpt>
      <trkpt lat="43.84605" lon="1.92186">
        <ele>230.85335</ele>
        <time>2012-09-09T08:57:54Z</time>
      </trkpt>
      <trkpt lat="43.84623" lon="1.92189">
        <ele>236.98387</ele>
        <time>2012-09-09T08:58:02Z</time>
      </trkpt>
      <trkpt lat="43.84636" lon="1.92172">
        <ele>230.20007</ele>
        <time>2012-09-09T08:58:20Z</time>
      </trkpt>
      <trkpt lat="43.84634" lon="1.92147">
        <ele>227.3425</ele>
        <time>2012-09-09T08:58:25Z</time>
      </trkpt>
      <trkpt lat="43.84626" lon="1.92124">
        <ele>227.24939</ele>
        <time>2012-09-09T08:58:29Z</time>
      </trkpt>
      <trkpt lat="43.84613" lon="1.92105">
        <ele>227.09036</ele>
        <time>2012-09-09T08:58:35Z</time>
      </trkpt>
      <trkpt lat="43.84623" lon="1.92083">
        <ele>220.96231</ele>
        <time>2012-09-09T08:58:48Z</time>
      </trkpt>
      <trkpt lat="43.84633" lon="1.92062">
        <ele>212.49957</ele>
        <time>2012-09-09T08:58:55Z</time>
      </trkpt>
      <trkpt lat="43.84647" lon="1.92047">
        <ele>220.92917</ele>
        <time>2012-09-09T08:59:43Z</time>
      </trkpt>
      <trkpt lat="43.84649" lon="1.92021">
        <ele>220.16444</ele>
        <time>2012-09-09T08:59:48Z</time>
      </trkpt>
      <trkpt lat="43.84659" lon="1.91999">
        <ele>217.07976</ele>
        <time>2012-09-09T08:59:54Z</time>
      </trkpt>
      <trkpt lat="43.84678" lon="1.9199">
        <ele>213.89664</ele>
        <time>2012-09-09T09:00:03Z</time>
      </trkpt>
      <trkpt lat="43.84693" lon="1.91972">
        <ele>212.32596</ele>
        <time>2012-09-09T09:00:08Z</time>
      </trkpt>
      <trkpt lat="43.84708" lon="1.91951">
        <ele>212.42432</ele>
        <time>2012-09-09T09:00:13Z</time>
      </trkpt>
      <trkpt lat="43.8472" lon="1.91933">
        <ele>211.0591</ele>
        <time>2012-09-09T09:00:18Z</time>
      </trkpt>
      <trkpt lat="43.84732" lon="1.91909">
        <ele>210.39148</ele>
        <time>2012-09-09T09:00:24Z</time>
      </trkpt>
      <trkpt lat="43.84742" lon="1.91885">
        <ele>209.61438</ele>
        <time>2012-09-09T09:00:30Z</time>
      </trkpt>
      <trkpt lat="43.84751" lon="1.91864">
        <ele>210.87367</ele>
        <time>2012-09-09T09:00:37Z</time>
      </trkpt>
      <trkpt lat="43.84739" lon="1.9184">
        <ele>209.39441</ele>
        <time>2012-09-09T09:00:41Z</time>
      </trkpt>
      <trkpt lat="43.84722" lon="1.9183">
        <ele>208.14862</ele>
        <time>2012-09-09T09:00:45Z</time>
      </trkpt>
      <trkpt lat="43.847" lon="1.91814">
        <ele>208.85645</ele>
        <time>2012-09-09T09:00:48Z</time>
      </trkpt>
      <trkpt lat="43.84685" lon="1.91794">
        <ele>210.32538</ele>
        <time>2012-09-09T09:00:51Z</time>
      </trkpt>
      <trkpt lat="43.84691" lon="1.91771">
        <ele>212.99529</ele>
        <time>2012-09-09T09:00:56Z</time>
      </trkpt>
      <trkpt lat="43.84703" lon="1.91742">
        <ele>214.47017</ele>
        <time>2012-09-09T09:01:01Z</time>
      </trkpt>
      <trkpt lat="43.84716" lon="1.91719">
        <ele>212.90933</ele>
        <time>2012-09-09T09:01:06Z</time>
      </trkpt>
      <trkpt lat="43.84727" lon="1.91695">
        <ele>211.56706</ele>
        <time>2012-09-09T09:01:11Z</time>
      </trkpt>
      <trkpt lat="43.84737" lon="1.91673">
        <ele>206.04028</ele>
        <time>2012-09-09T09:01:18Z</time>
      </trkpt>
      <trkpt lat="43.84736" lon="1.91645">
        <ele>205.09775</ele>
        <time>2012-09-09T09:01:26Z</time>
      </trkpt>
      <trkpt lat="43.84741" lon="1.91621">
        <ele>209.90984</ele>
        <time>2012-09-09T09:01:32Z</time>
      </trkpt>
      <trkpt lat="43.84746" lon="1.91594">
        <ele>214.48642</ele>
        <time>2012-09-09T09:01:37Z</time>
      </trkpt>
      <trkpt lat="43.8475" lon="1.91567">
        <ele>215.58559</ele>
        <time>2012-09-09T09:01:45Z</time>
      </trkpt>
      <trkpt lat="43.84761" lon="1.91545">
        <ele>213.52307</ele>
        <time>2012-09-09T09:01:51Z</time>
      </trkpt>
      <trkpt lat="43.8477" lon="1.91521">
        <ele>210.89415</ele>
        <time>2012-09-09T09:01:56Z</time>
      </trkpt>
      <trkpt lat="43.84779" lon="1.91496">
        <ele>209.54393</ele>
        <time>2012-09-09T09:02:01Z</time>
      </trkpt>
      <trkpt lat="43.84788" lon="1.91474">
        <ele>211.083</ele>
        <time>2012-09-09T09:02:06Z</time>
      </trkpt>
      <trkpt lat="43.84913" lon="1.91452">
        <ele>213.12428</ele>
        <time>2012-09-09T09:02:42Z</time>
      </trkpt>
      <trkpt lat="43.84906" lon="1.91476">
        <ele>222.88268</ele>
        <time>2012-09-09T09:02:46Z</time>
      </trkpt>
      <trkpt lat="43.84898" lon="1.91499">
        <ele>221.53125</ele>
        <time>2012-09-09T09:02:51Z</time>
      </trkpt>
      <trkpt lat="43.84888" lon="1.91525">
        <ele>215.6707</ele>
        <time>2012-09-09T09:02:56Z</time>
      </trkpt>
      <trkpt lat="43.8488" lon="1.91549">
        <ele>208.55098</ele>
        <time>2012-09-09T09:03:02Z</time>
      </trkpt>
      <trkpt lat="43.84872" lon="1.91574">
        <ele>206.40822</ele>
        <time>2012-09-09T09:03:08Z</time>
      </trkpt>
      <trkpt lat="43.84862" lon="1.91596">
        <ele>207.12569</ele>
        <time>2012-09-09T09:03:13Z</time>
      </trkpt>
      <trkpt lat="43.84851" lon="1.91617">
        <ele>209.17505</ele>
        <time>2012-09-09T09:03:18Z</time>
      </trkpt>
      <trkpt lat="43.84838" lon="1.91639">
        <ele>209.07727</ele>
        <time>2012-09-09T09:03:24Z</time>
      </trkpt>
      <trkpt lat="43.84823" lon="1.91658">
        <ele>210.81644</ele>
        <time>2012-09-09T09:03:30Z</time>
      </trkpt>
      <trkpt lat="43.84814" lon="1.91683">
        <ele>207.60541</ele>
        <time>2012-09-09T09:03:37Z</time>
      </trkpt>
      <trkpt lat="43.84805" lon="1.91705">
        <ele>207.34633</ele>
        <time>2012-09-09T09:03:43Z</time>
      </trkpt>
      <trkpt lat="43.84788" lon="1.91719">
        <ele>208.49548</ele>
        <time>2012-09-09T09:03:50Z</time>
      </trkpt>
      <trkpt lat="43.84774" lon="1.91735">
        <ele>209.49414</ele>
        <time>2012-09-09T09:03:59Z</time>
      </trkpt>
      <trkpt lat="43.84757" lon="1.91752">
        <ele>212.1117</ele>
        <time>2012-09-09T09:04:08Z</time>
      </trkpt>
      <trkpt lat="43.8474" lon="1.9176">
        <ele>212.88173</ele>
        <time>2012-09-09T09:04:15Z</time>
      </trkpt>
      <trkpt lat="43.84726" lon="1.91776">
        <ele>213.54228</ele>
        <time>2012-09-09T09:04:22Z</time>
      </trkpt>
      <trkpt lat="43.84722" lon="1.91802">
        <ele>212.96677</ele>
        <time>2012-09-09T09:04:35Z</time>
      </trkpt>
      <trkpt lat="43.8474" lon="1.91798">
        <ele>215.0843</ele>
        <time>2012-09-09T09:04:55Z</time>
      </trkpt>
      <trkpt lat="43.84758" lon="1.91794">
        <ele>215.14143</ele>
        <time>2012-09-09T09:05:11Z</time>
      </trkpt>
      <trkpt lat="43.84768" lon="1.91758">
        <ele>229.69038</ele>
        <time>2012-09-09T09:05:51Z</time>
      </trkpt>
      <trkpt lat="43.84784" lon="1.91737">
        <ele>227.86041</ele>
        <time>2012-09-09T09:05:56Z</time>
      </trkpt>
      <trkpt lat="43.84802" lon="1.91727">
        <ele>223.42332</ele>
        <time>2012-09-09T09:06:01Z</time>
      </trkpt>
      <trkpt lat="43.84821" lon="1.91726">
        <ele>221.39377</ele>
        <time>2012-09-09T09:06:17Z</time>
      </trkpt>
      <trkpt lat="43.84829" lon="1.91702">
        <ele>215.73387</ele>
        <time>2012-09-09T09:06:22Z</time>
      </trkpt>
      <trkpt lat="43.84839" lon="1.91679">
        <ele>214.58728</ele>
        <time>2012-09-09T09:06:26Z</time>
      </trkpt>
      <trkpt lat="43.84853" lon="1.91658">
        <ele>213.4421</ele>
        <time>2012-09-09T09:06:31Z</time>
      </trkpt>
      <trkpt lat="43.84865" lon="1.91635">
        <ele>212.4845</ele>
        <time>2012-09-09T09:06:36Z</time>
      </trkpt>
      <trkpt lat="43.84874" lon="1.91611">
        <ele>213.79134</ele>
        <time>2012-09-09T09:06:41Z</time>
      </trkpt>
      <trkpt lat="43.84885" lon="1.91587">
        <ele>214.6836</ele>
        <time>2012-09-09T09:06:45Z</time>
      </trkpt>
      <trkpt lat="43.84894" lon="1.91565">
        <ele>211.42606</ele>
        <time>2012-09-09T09:06:49Z</time>
      </trkpt>
      <trkpt lat="43.84903" lon="1.9154">
        <ele>205.29106</ele>
        <time>2012-09-09T09:06:53Z</time>
      </trkpt>
      <trkpt lat="43.84912" lon="1.91517">
        <ele>201.31201</ele>
        <time>2012-09-09T09:06:57Z</time>
      </trkpt>
      <trkpt lat="43.84926" lon="1.91499">
        <ele>203.85023</ele>
        <time>2012-09-09T09:07:03Z</time>
      </trkpt>
      <trkpt lat="43.8494" lon="1.9148">
        <ele>206.18114</ele>
        <time>2012-09-09T09:07:09Z</time>
      </trkpt>
      <trkpt lat="43.84878" lon="1.91338">
        <ele>210.40189</ele>
        <time>2012-09-09T09:07:41Z</time>
      </trkpt>
      <trkpt lat="43.8486" lon="1.91324">
        <ele>214.65236</ele>
        <time>2012-09-09T09:07:44Z</time>
      </trkpt>
      <trkpt lat="43.84845" lon="1.91307">
        <ele>220.68437</ele>
        <time>2012-09-09T09:07:53Z</time>
      </trkpt>
      <trkpt lat="43.84831" lon="1.9129">
        <ele>221.26935</ele>
        <time>2012-09-09T09:08:00Z</time>
      </trkpt>
      <trkpt lat="43.84818" lon="1.9127">
        <ele>219.35565</ele>
        <time>2012-09-09T09:08:06Z</time>
      </trkpt>
      <trkpt lat="43.84808" lon="1.91247">
        <ele>221.22726</ele>
        <time>2012-09-09T09:08:11Z</time>
      </trkpt>
      <trkpt lat="43.84797" lon="1.91221">
        <ele>222.16826</ele>
        <time>2012-09-09T09:08:17Z</time>
      </trkpt>
      <trkpt lat="43.84788" lon="1.91198">
        <ele>221.30057</ele>
        <time>2012-09-09T09:08:22Z</time>
      </trkpt>
      <trkpt lat="43.84778" lon="1.91174">
        <ele>223.39783</ele>
        <time>2012-09-09T09:08:29Z</time>
      </trkpt>
      <trkpt lat="43.84766" lon="1.91151">
        <ele>222.12274</ele>
        <time>2012-09-09T09:08:35Z</time>
      </trkpt>
      <trkpt lat="43.84752" lon="1.91129">
        <ele>224.6016</ele>
        <time>2012-09-09T09:08:40Z</time>
      </trkpt>
      <trkpt lat="43.8474" lon="1.91106">
        <ele>226.08066</ele>
        <time>2012-09-09T09:08:45Z</time>
      </trkpt>
      <trkpt lat="43.84727" lon="1.91085">
        <ele>226.12256</ele>
        <time>2012-09-09T09:08:50Z</time>
      </trkpt>
      <trkpt lat="43.84716" lon="1.91065">
        <ele>225.34113</ele>
        <time>2012-09-09T09:08:54Z</time>
      </trkpt>
      <trkpt lat="43.84715" lon="1.91036">
        <ele>224.49243</ele>
        <time>2012-09-09T09:09:00Z</time>
      </trkpt>
      <trkpt lat="43.84728" lon="1.9102">
        <ele>222.4515</ele>
        <time>2012-09-09T09:09:04Z</time>
      </trkpt>
      <trkpt lat="43.84741" lon="1.90997">
        <ele>220.73349</ele>
        <time>2012-09-09T09:09:08Z</time>
      </trkpt>
      <trkpt lat="43.84752" lon="1.90974">
        <ele>219.67036</ele>
        <time>2012-09-09T09:09:12Z</time>
      </trkpt>
      <trkpt lat="43.84764" lon="1.90947">
        <ele>218.78554</ele>
        <time>2012-09-09T09:09:16Z</time>
      </trkpt>
      <trkpt lat="43.84773" lon="1.90925">
        <ele>217.85953</ele>
        <time>2012-09-09T09:09:19Z</time>
      </trkpt>
      <trkpt lat="43.84787" lon="1.90898">
        <ele>218.78407</ele>
        <time>2012-09-09T09:09:23Z</time>
      </trkpt>
      <trkpt lat="43.84799" lon="1.90874">
        <ele>217.97922</ele>
        <time>2012-09-09T09:09:26Z</time>
      </trkpt>
      <trkpt lat="43.8481" lon="1.90854">
        <ele>216.49435</ele>
        <time>2012-09-09T09:09:29Z</time>
      </trkpt>
      <trkpt lat="43.84819" lon="1.90831">
        <ele>215.6898</ele>
        <time>2012-09-09T09:09:32Z</time>
      </trkpt>
      <trkpt lat="43.84829" lon="1.90808">
        <ele>213.81914</ele>
        <time>2012-09-09T09:09:35Z</time>
      </trkpt>
      <trkpt lat="43.84839" lon="1.90783">
        <ele>213.14714</ele>
        <time>2012-09-09T09:09:38Z</time>
      </trkpt>
      <trkpt lat="43.8485" lon="1.9076">
        <ele>214.01988</ele>
        <time>2012-09-09T09:09:41Z</time>
      </trkpt>
      <trkpt lat="43.8486" lon="1.90738">
        <ele>214.3537</ele>
        <time>2012-09-09T09:09:44Z</time>
      </trkpt>
      <trkpt lat="43.84876" lon="1.90721">
        <ele>213.85703</ele>
        <time>2012-09-09T09:09:47Z</time>
      </trkpt>
      <trkpt lat="43.84888" lon="1.90697">
        <ele>212.69281</ele>
        <time>2012-09-09T09:09:50Z</time>
      </trkpt>
      <trkpt lat="43.84903" lon="1.90673">
        <ele>213.07977</ele>
        <time>2012-09-09T09:09:53Z</time>
      </trkpt>
      <trkpt lat="43.84915" lon="1.90654">
        <ele>212.71648</ele>
        <time>2012-09-09T09:09:56Z</time>
      </trkpt>
      <trkpt lat="43.84928" lon="1.90634">
        <ele>212.09288</ele>
        <time>2012-09-09T09:09:59Z</time>
      </trkpt>
      <trkpt lat="43.84942" lon="1.90608">
        <ele>212.48096</ele>
        <time>2012-09-09T09:10:03Z</time>
      </trkpt>
      <trkpt lat="43.84955" lon="1.90584">
        <ele>213.12093</ele>
        <time>2012-09-09T09:10:07Z</time>
      </trkpt>
      <trkpt lat="43.8497" lon="1.90562">
        <ele>214.59647</ele>
        <time>2012-09-09T09:10:11Z</time>
      </trkpt>
      <trkpt lat="43.84986" lon="1.90539">
        <ele>215.27583</ele>
        <time>2012-09-09T09:10:15Z</time>
      </trkpt>
      <trkpt lat="43.85003" lon="1.90525">
        <ele>215.39919</ele>
        <time>2012-09-09T09:10:18Z</time>
      </trkpt>
      <trkpt lat="43.85026" lon="1.9052">
        <ele>215.9263</ele>
        <time>2012-09-09T09:10:22Z</time>
      </trkpt>
      <trkpt lat="43.8504" lon="1.90495">
        <ele>216.68922</ele>
        <time>2012-09-09T09:10:25Z</time>
      </trkpt>
      <trkpt lat="43.85058" lon="1.90476">
        <ele>216.34857</ele>
        <time>2012-09-09T09:10:28Z</time>
      </trkpt>
      <trkpt lat="43.85077" lon="1.90455">
        <ele>213.58763</ele>
        <time>2012-09-09T09:10:32Z</time>
      </trkpt>
      <trkpt lat="43.85092" lon="1.9044">
        <ele>213.26353</ele>
        <time>2012-09-09T09:10:35Z</time>
      </trkpt>
      <trkpt lat="43.85113" lon="1.90422">
        <ele>212.81346</ele>
        <time>2012-09-09T09:10:39Z</time>
      </trkpt>
      <trkpt lat="43.8513" lon="1.90399">
        <ele>211.62222</ele>
        <time>2012-09-09T09:10:43Z</time>
      </trkpt>
      <trkpt lat="43.85142" lon="1.90381">
        <ele>211.32031</ele>
        <time>2012-09-09T09:10:46Z</time>
      </trkpt>
      <trkpt lat="43.85157" lon="1.90362">
        <ele>211.26639</ele>
        <time>2012-09-09T09:10:49Z</time>
      </trkpt>
      <trkpt lat="43.85174" lon="1.90343">
        <ele>211.15457</ele>
        <time>2012-09-09T09:10:52Z</time>
      </trkpt>
      <trkpt lat="43.85194" lon="1.90326">
        <ele>211.9574</ele>
        <time>2012-09-09T09:10:55Z</time>
      </trkpt>
      <trkpt lat="43.85212" lon="1.90304">
        <ele>212.90858</ele>
        <time>2012-09-09T09:10:58Z</time>
      </trkpt>
      <trkpt lat="43.85218" lon="1.90279">
        <ele>212.29233</ele>
        <time>2012-09-09T09:11:00Z</time>
      </trkpt>
      <trkpt lat="43.85236" lon="1.90262">
        <ele>211.7077</ele>
        <time>2012-09-09T09:11:03Z</time>
      </trkpt>
      <trkpt lat="43.85253" lon="1.90246">
        <ele>211.51262</ele>
        <time>2012-09-09T09:11:06Z</time>
      </trkpt>
      <trkpt lat="43.85272" lon="1.90231">
        <ele>210.82877</ele>
        <time>2012-09-09T09:11:09Z</time>
      </trkpt>
      <trkpt lat="43.85293" lon="1.90214">
        <ele>210.60051</ele>
        <time>2012-09-09T09:11:13Z</time>
      </trkpt>
      <trkpt lat="43.85312" lon="1.90195">
        <ele>210.67477</ele>
        <time>2012-09-09T09:11:17Z</time>
      </trkpt>
      <trkpt lat="43.85329" lon="1.9018">
        <ele>210.79874</ele>
        <time>2012-09-09T09:11:20Z</time>
      </trkpt>
      <trkpt lat="43.85343" lon="1.90162">
        <ele>211.36978</ele>
        <time>2012-09-09T09:11:23Z</time>
      </trkpt>
      <trkpt lat="43.8536" lon="1.90147">
        <ele>212.27788</ele>
        <time>2012-09-09T09:11:26Z</time>
      </trkpt>
      <trkpt lat="43.85383" lon="1.90133">
        <ele>212.55862</ele>
        <time>2012-09-09T09:11:30Z</time>
      </trkpt>
      <trkpt lat="43.85403" lon="1.90117">
        <ele>211.18411</ele>
        <time>2012-09-09T09:11:33Z</time>
      </trkpt>
      <trkpt lat="43.85421" lon="1.90103">
        <ele>209.66986</ele>
        <time>2012-09-09T09:11:36Z</time>
      </trkpt>
      <trkpt lat="43.85434" lon="1.90083">
        <ele>208.8143</ele>
        <time>2012-09-09T09:11:38Z</time>
      </trkpt>
      <trkpt lat="43.85444" lon="1.9006">
        <ele>208.50804</ele>
        <time>2012-09-09T09:11:40Z</time>
      </trkpt>
      <trkpt lat="43.85459" lon="1.90039">
        <ele>209.14246</ele>
        <time>2012-09-09T09:11:43Z</time>
      </trkpt>
      <trkpt lat="43.85473" lon="1.90011">
        <ele>208.91948</ele>
        <time>2012-09-09T09:11:46Z</time>
      </trkpt>
      <trkpt lat="43.85485" lon="1.89988">
        <ele>207.80977</ele>
        <time>2012-09-09T09:11:49Z</time>
      </trkpt>
      <trkpt lat="43.85489" lon="1.8996">
        <ele>206.40569</ele>
        <time>2012-09-09T09:11:52Z</time>
      </trkpt>
      <trkpt lat="43.85494" lon="1.89935">
        <ele>205.62897</ele>
        <time>2012-09-09T09:11:55Z</time>
      </trkpt>
      <trkpt lat="43.85502" lon="1.89908">
        <ele>205.20644</ele>
        <time>2012-09-09T09:11:59Z</time>
      </trkpt>
      <trkpt lat="43.85515" lon="1.89887">
        <ele>204.16833</ele>
        <time>2012-09-09T09:12:02Z</time>
      </trkpt>
      <trkpt lat="43.8553" lon="1.89868">
        <ele>204.54758</ele>
        <time>2012-09-09T09:12:05Z</time>
      </trkpt>
      <trkpt lat="43.85547" lon="1.8985">
        <ele>204.0107</ele>
        <time>2012-09-09T09:12:08Z</time>
      </trkpt>
      <trkpt lat="43.85565" lon="1.89832">
        <ele>202.91545</ele>
        <time>2012-09-09T09:12:11Z</time>
      </trkpt>
      <trkpt lat="43.85675" lon="1.89601">
        <ele>199.2616</ele>
        <time>2012-09-09T09:12:42Z</time>
      </trkpt>
      <trkpt lat="43.85665" lon="1.89579">
        <ele>195.3291</ele>
        <time>2012-09-09T09:12:45Z</time>
      </trkpt>
      <trkpt lat="43.85647" lon="1.89561">
        <ele>195.34196</ele>
        <time>2012-09-09T09:12:48Z</time>
      </trkpt>
      <trkpt lat="43.85635" lon="1.89538">
        <ele>195.44583</ele>
        <time>2012-09-09T09:12:51Z</time>
      </trkpt>
      <trkpt lat="43.85621" lon="1.89517">
        <ele>195.09615</ele>
        <time>2012-09-09T09:12:55Z</time>
      </trkpt>
      <trkpt lat="43.85609" lon="1.89493">
        <ele>194.19174</ele>
        <time>2012-09-09T09:12:59Z</time>
      </trkpt>
      <trkpt lat="43.85602" lon="1.89469">
        <ele>192.79387</ele>
        <time>2012-09-09T09:13:05Z</time>
      </trkpt>
      <trkpt lat="43.85592" lon="1.89445">
        <ele>193.94087</ele>
        <time>2012-09-09T09:13:12Z</time>
      </trkpt>
      <trkpt lat="43.85581" lon="1.89423">
        <ele>195.96774</ele>
        <time>2012-09-09T09:13:18Z</time>
      </trkpt>
      <trkpt lat="43.85572" lon="1.894">
        <ele>197.223</ele>
        <time>2012-09-09T09:13:23Z</time>
      </trkpt>
      <trkpt lat="43.85588" lon="1.89384">
        <ele>195.86044</ele>
        <time>2012-09-09T09:13:28Z</time>
      </trkpt>
      <trkpt lat="43.85607" lon="1.89376">
        <ele>195.75116</ele>
        <time>2012-09-09T09:13:32Z</time>
      </trkpt>
      <trkpt lat="43.85624" lon="1.89367">
        <ele>195.02869</ele>
        <time>2012-09-09T09:13:36Z</time>
      </trkpt>
      <trkpt lat="43.85639" lon="1.89349">
        <ele>195.25603</ele>
        <time>2012-09-09T09:13:41Z</time>
      </trkpt>
      <trkpt lat="43.85654" lon="1.89329">
        <ele>196.24278</ele>
        <time>2012-09-09T09:13:46Z</time>
      </trkpt>
      <trkpt lat="43.85664" lon="1.89304">
        <ele>196.20107</ele>
        <time>2012-09-09T09:13:51Z</time>
      </trkpt>
      <trkpt lat="43.85665" lon="1.89278">
        <ele>194.06519</ele>
        <time>2012-09-09T09:13:55Z</time>
      </trkpt>
      <trkpt lat="43.85678" lon="1.89257">
        <ele>191.20677</ele>
        <time>2012-09-09T09:14:00Z</time>
      </trkpt>
      <trkpt lat="43.85691" lon="1.89236">
        <ele>188.38608</ele>
        <time>2012-09-09T09:14:05Z</time>
      </trkpt>
      <trkpt lat="43.85705" lon="1.89214">
        <ele>187.64494</ele>
        <time>2012-09-09T09:14:10Z</time>
      </trkpt>
      <trkpt lat="43.85718" lon="1.89189">
        <ele>187.58069</ele>
        <time>2012-09-09T09:14:15Z</time>
      </trkpt>
      <trkpt lat="43.85728" lon="1.89164">
        <ele>187.93451</ele>
        <time>2012-09-09T09:14:19Z</time>
      </trkpt>
      <trkpt lat="43.85739" lon="1.89141">
        <ele>188.23279</ele>
        <time>2012-09-09T09:14:23Z</time>
      </trkpt>
      <trkpt lat="43.85755" lon="1.89118">
        <ele>188.21663</ele>
        <time>2012-09-09T09:14:27Z</time>
      </trkpt>
      <trkpt lat="43.85767" lon="1.89097">
        <ele>186.86482</ele>
        <time>2012-09-09T09:14:30Z</time>
      </trkpt>
      <trkpt lat="43.85779" lon="1.89077">
        <ele>185.3289</ele>
        <time>2012-09-09T09:14:33Z</time>
      </trkpt>
      <trkpt lat="43.85792" lon="1.89056">
        <ele>184.2497</ele>
        <time>2012-09-09T09:14:36Z</time>
      </trkpt>
      <trkpt lat="43.85804" lon="1.89037">
        <ele>183.90921</ele>
        <time>2012-09-09T09:14:39Z</time>
      </trkpt>
      <trkpt lat="43.85819" lon="1.89019">
        <ele>184.01794</ele>
        <time>2012-09-09T09:14:42Z</time>
      </trkpt>
      <trkpt lat="43.85832" lon="1.89">
        <ele>184.28882</ele>
        <time>2012-09-09T09:14:45Z</time>
      </trkpt>
      <trkpt lat="43.85844" lon="1.8898">
        <ele>184.37967</ele>
        <time>2012-09-09T09:14:48Z</time>
      </trkpt>
      <trkpt lat="43.85854" lon="1.88958">
        <ele>184.80705</ele>
        <time>2012-09-09T09:14:51Z</time>
      </trkpt>
      <trkpt lat="43.85871" lon="1.88941">
        <ele>185.56473</ele>
        <time>2012-09-09T09:14:55Z</time>
      </trkpt>
      <trkpt lat="43.85888" lon="1.88956">
        <ele>185.33064</ele>
        <time>2012-09-09T09:14:59Z</time>
      </trkpt>
      <trkpt lat="43.85905" lon="1.88975">
        <ele>183.27884</ele>
        <time>2012-09-09T09:15:03Z</time>
      </trkpt>
      <trkpt lat="43.85923" lon="1.88998">
        <ele>181.72807</ele>
        <time>2012-09-09T09:15:07Z</time>
      </trkpt>
      <trkpt lat="43.85937" lon="1.89018">
        <ele>181.76965</ele>
        <time>2012-09-09T09:15:10Z</time>
      </trkpt>
      <trkpt lat="43.85952" lon="1.89038">
        <ele>182.25908</ele>
        <time>2012-09-09T09:15:13Z</time>
      </trkpt>
      <trkpt lat="43.85961" lon="1.8906">
        <ele>182.64992</ele>
        <time>2012-09-09T09:15:16Z</time>
      </trkpt>
      <trkpt lat="43.85945" lon="1.89076">
        <ele>182.05081</ele>
        <time>2012-09-09T09:15:21Z</time>
      </trkpt>
      <trkpt lat="43.85933" lon="1.89101">
        <ele>181.63081</ele>
        <time>2012-09-09T09:15:26Z</time>
      </trkpt>
      <trkpt lat="43.85921" lon="1.89121">
        <ele>181.32771</ele>
        <time>2012-09-09T09:15:30Z</time>
      </trkpt>
      <trkpt lat="43.85904" lon="1.89136">
        <ele>181.00668</ele>
        <time>2012-09-09T09:15:35Z</time>
      </trkpt>
      <trkpt lat="43.85886" lon="1.89143">
        <ele>181.61346</ele>
        <time>2012-09-09T09:15:41Z</time>
      </trkpt>
      <trkpt lat="43.85868" lon="1.89153">
        <ele>183.07172</ele>
        <time>2012-09-09T09:15:48Z</time>
      </trkpt>
      <trkpt lat="43.85858" lon="1.89176">
        <ele>184.58781</ele>
        <time>2012-09-09T09:15:55Z</time>
      </trkpt>
      <trkpt lat="43.85854" lon="1.89203">
        <ele>185.60658</ele>
        <time>2012-09-09T09:16:00Z</time>
      </trkpt>
      <trkpt lat="43.8585" lon="1.89228">
        <ele>185.71106</ele>
        <time>2012-09-09T09:16:04Z</time>
      </trkpt>
      <trkpt lat="43.8584" lon="1.89253">
        <ele>187.35712</ele>
        <time>2012-09-09T09:16:09Z</time>
      </trkpt>
      <trkpt lat="43.85828" lon="1.89276">
        <ele>188.55998</ele>
        <time>2012-09-09T09:16:16Z</time>
      </trkpt>
      <trkpt lat="43.85839" lon="1.89296">
        <ele>188.81514</ele>
        <time>2012-09-09T09:16:25Z</time>
      </trkpt>
      <trkpt lat="43.85857" lon="1.89306">
        <ele>182.82133</ele>
        <time>2012-09-09T09:16:37Z</time>
      </trkpt>
      <trkpt lat="43.85874" lon="1.89314">
        <ele>187.99336</ele>
        <time>2012-09-09T09:17:12Z</time>
      </trkpt>
      <trkpt lat="43.85899" lon="1.89367">
        <ele>187.44502</ele>
        <time>2012-09-09T09:17:43Z</time>
      </trkpt>
      <trkpt lat="43.85911" lon="1.89387">
        <ele>224.48788</ele>
        <time>2012-09-09T09:18:23Z</time>
      </trkpt>
      <trkpt lat="43.85929" lon="1.89382">
        <ele>215.16573</ele>
        <time>2012-09-09T09:18:50Z</time>
      </trkpt>
      <trkpt lat="43.85947" lon="1.89389">
        <ele>210.89131</ele>
        <time>2012-09-09T09:18:59Z</time>
      </trkpt>
      <trkpt lat="43.85965" lon="1.89403">
        <ele>212.47614</ele>
        <time>2012-09-09T09:19:07Z</time>
      </trkpt>
      <trkpt lat="43.85983" lon="1.89418">
        <ele>216.5988</ele>
        <time>2012-09-09T09:19:13Z</time>
      </trkpt>
      <trkpt lat="43.86" lon="1.89429">
        <ele>222.56856</ele>
        <time>2012-09-09T09:19:18Z</time>
      </trkpt>
      <trkpt lat="43.86018" lon="1.89441">
        <ele>230.74806</ele>
        <time>2012-09-09T09:19:24Z</time>
      </trkpt>
      <trkpt lat="43.86037" lon="1.89453">
        <ele>235.33188</ele>
        <time>2012-09-09T09:19:30Z</time>
      </trkpt>
      <trkpt lat="43.86056" lon="1.89461">
        <ele>233.06909</ele>
        <time>2012-09-09T09:19:35Z</time>
      </trkpt>
      <trkpt lat="43.86076" lon="1.89453">
        <ele>228.15414</ele>
        <time>2012-09-09T09:19:38Z</time>
      </trkpt>
      <trkpt lat="43.86092" lon="1.89433">
        <ele>223.94733</ele>
        <time>2012-09-09T09:19:43Z</time>
      </trkpt>
      <trkpt lat="43.86112" lon="1.89423">
        <ele>219.5997</ele>
        <time>2012-09-09T09:19:48Z</time>
      </trkpt>
      <trkpt lat="43.86126" lon="1.89447">
        <ele>216.86084</ele>
        <time>2012-09-09T09:19:52Z</time>
      </trkpt>
      <trkpt lat="43.8614" lon="1.89468">
        <ele>214.53035</ele>
        <time>2012-09-09T09:19:55Z</time>
      </trkpt>
      <trkpt lat="43.86159" lon="1.89483">
        <ele>212.37688</ele>
        <time>2012-09-09T09:19:58Z</time>
      </trkpt>
      <trkpt lat="43.86182" lon="1.89495">
        <ele>211.03868</ele>
        <time>2012-09-09T09:20:01Z</time>
      </trkpt>
      <trkpt lat="43.86201" lon="1.89497">
        <ele>210.29051</ele>
        <time>2012-09-09T09:20:03Z</time>
      </trkpt>
      <trkpt lat="43.86223" lon="1.89503">
        <ele>209.2913</ele>
        <time>2012-09-09T09:20:06Z</time>
      </trkpt>
      <trkpt lat="43.86248" lon="1.89507">
        <ele>208.66821</ele>
        <time>2012-09-09T09:20:09Z</time>
      </trkpt>
      <trkpt lat="43.86273" lon="1.89513">
        <ele>206.45377</ele>
        <time>2012-09-09T09:20:12Z</time>
      </trkpt>
      <trkpt lat="43.86293" lon="1.89517">
        <ele>203.94925</ele>
        <time>2012-09-09T09:20:15Z</time>
      </trkpt>
      <trkpt lat="43.86317" lon="1.89527">
        <ele>203.80827</ele>
        <time>2012-09-09T09:20:18Z</time>
      </trkpt>
      <trkpt lat="43.8634" lon="1.89534">
        <ele>202.43942</ele>
        <time>2012-09-09T09:20:21Z</time>
      </trkpt>
      <trkpt lat="43.86364" lon="1.89538">
        <ele>200.63226</ele>
        <time>2012-09-09T09:20:24Z</time>
      </trkpt>
      <trkpt lat="43.86385" lon="1.89546">
        <ele>199.65579</ele>
        <time>2012-09-09T09:20:27Z</time>
      </trkpt>
      <trkpt lat="43.86406" lon="1.89552">
        <ele>198.91885</ele>
        <time>2012-09-09T09:20:30Z</time>
      </trkpt>
      <trkpt lat="43.86426" lon="1.8956">
        <ele>198.59546</ele>
        <time>2012-09-09T09:20:33Z</time>
      </trkpt>
      <trkpt lat="43.86445" lon="1.89566">
        <ele>198.47308</ele>
        <time>2012-09-09T09:20:36Z</time>
      </trkpt>
      <trkpt lat="43.86462" lon="1.89571">
        <ele>198.16208</ele>
        <time>2012-09-09T09:20:39Z</time>
      </trkpt>
      <trkpt lat="43.86486" lon="1.89578">
        <ele>197.37668</ele>
        <time>2012-09-09T09:20:43Z</time>
      </trkpt>
      <trkpt lat="43.86506" lon="1.89585">
        <ele>196.8598</ele>
        <time>2012-09-09T09:20:47Z</time>
      </trkpt>
      <trkpt lat="43.86529" lon="1.89593">
        <ele>196.43456</ele>
        <time>2012-09-09T09:20:51Z</time>
      </trkpt>
      <trkpt lat="43.86548" lon="1.89599">
        <ele>195.23645</ele>
        <time>2012-09-09T09:20:54Z</time>
      </trkpt>
      <trkpt lat="43.86568" lon="1.89603">
        <ele>194.80287</ele>
        <time>2012-09-09T09:20:57Z</time>
      </trkpt>
      <trkpt lat="43.86586" lon="1.8961">
        <ele>194.6106</ele>
        <time>2012-09-09T09:21:00Z</time>
      </trkpt>
      <trkpt lat="43.86606" lon="1.89618">
        <ele>194.05414</ele>
        <time>2012-09-09T09:21:04Z</time>
      </trkpt>
      <trkpt lat="43.86624" lon="1.89624">
        <ele>193.03847</ele>
        <time>2012-09-09T09:21:07Z</time>
      </trkpt>
      <trkpt lat="43.86646" lon="1.89633">
        <ele>194.60826</ele>
        <time>2012-09-09T09:21:11Z</time>
      </trkpt>
      <trkpt lat="43.8667" lon="1.8964">
        <ele>194.9362</ele>
        <time>2012-09-09T09:21:15Z</time>
      </trkpt>
      <trkpt lat="43.86692" lon="1.8965">
        <ele>195.79231</ele>
        <time>2012-09-09T09:21:19Z</time>
      </trkpt>
      <trkpt lat="43.86713" lon="1.8966">
        <ele>197.19522</ele>
        <time>2012-09-09T09:21:23Z</time>
      </trkpt>
      <trkpt lat="43.86731" lon="1.89662">
        <ele>197.7558</ele>
        <time>2012-09-09T09:21:26Z</time>
      </trkpt>
      <trkpt lat="43.86749" lon="1.89668">
        <ele>199.14699</ele>
        <time>2012-09-09T09:21:29Z</time>
      </trkpt>
      <trkpt lat="43.86767" lon="1.89674">
        <ele>198.80888</ele>
        <time>2012-09-09T09:21:32Z</time>
      </trkpt>
      <trkpt lat="43.86787" lon="1.89678">
        <ele>197.61624</ele>
        <time>2012-09-09T09:21:35Z</time>
      </trkpt>
      <trkpt lat="43.86805" lon="1.89685">
        <ele>195.94435</ele>
        <time>2012-09-09T09:21:38Z</time>
      </trkpt>
      <trkpt lat="43.86827" lon="1.89691">
        <ele>195.38708</ele>
        <time>2012-09-09T09:21:42Z</time>
      </trkpt>
      <trkpt lat="43.86851" lon="1.89698">
        <ele>194.8971</ele>
        <time>2012-09-09T09:21:46Z</time>
      </trkpt>
      <trkpt lat="43.86868" lon="1.89705">
        <ele>194.61752</ele>
        <time>2012-09-09T09:21:49Z</time>
      </trkpt>
      <trkpt lat="43.86892" lon="1.89713">
        <ele>191.81453</ele>
        <time>2012-09-09T09:21:53Z</time>
      </trkpt>
      <trkpt lat="43.8691" lon="1.89723">
        <ele>190.65613</ele>
        <time>2012-09-09T09:21:56Z</time>
      </trkpt>
      <trkpt lat="43.86928" lon="1.89732">
        <ele>189.469</ele>
        <time>2012-09-09T09:21:59Z</time>
      </trkpt>
      <trkpt lat="43.86947" lon="1.89736">
        <ele>188.58223</ele>
        <time>2012-09-09T09:22:02Z</time>
      </trkpt>
      <trkpt lat="43.86965" lon="1.89741">
        <ele>185.59563</ele>
        <time>2012-09-09T09:22:05Z</time>
      </trkpt>
      <trkpt lat="43.86977" lon="1.89714">
        <ele>184.1221</ele>
        <time>2012-09-09T09:22:10Z</time>
      </trkpt>
      <trkpt lat="43.86958" lon="1.89418">
        <ele>185.22964</ele>
        <time>2012-09-09T09:22:43Z</time>
      </trkpt>
      <trkpt lat="43.86948" lon="1.89392">
        <ele>186.81876</ele>
        <time>2012-09-09T09:22:46Z</time>
      </trkpt>
      <trkpt lat="43.8694" lon="1.89362">
        <ele>190.19617</ele>
        <time>2012-09-09T09:22:50Z</time>
      </trkpt>
      <trkpt lat="43.86937" lon="1.89334">
        <ele>191.23276</ele>
        <time>2012-09-09T09:22:53Z</time>
      </trkpt>
      <trkpt lat="43.86935" lon="1.89299">
        <ele>192.99864</ele>
        <time>2012-09-09T09:22:57Z</time>
      </trkpt>
      <trkpt lat="43.86932" lon="1.89272">
        <ele>195.11505</ele>
        <time>2012-09-09T09:23:00Z</time>
      </trkpt>
      <trkpt lat="43.86928" lon="1.8924">
        <ele>194.57664</ele>
        <time>2012-09-09T09:23:04Z</time>
      </trkpt>
      <trkpt lat="43.86925" lon="1.8921">
        <ele>192.99535</ele>
        <time>2012-09-09T09:23:08Z</time>
      </trkpt>
      <trkpt lat="43.86913" lon="1.8919">
        <ele>192.55585</ele>
        <time>2012-09-09T09:23:11Z</time>
      </trkpt>
      <trkpt lat="43.86903" lon="1.89167">
        <ele>191.66106</ele>
        <time>2012-09-09T09:23:14Z</time>
      </trkpt>
      <trkpt lat="43.86895" lon="1.89143">
        <ele>190.7367</ele>
        <time>2012-09-09T09:23:17Z</time>
      </trkpt>
      <trkpt lat="43.86889" lon="1.89118">
        <ele>190.25189</ele>
        <time>2012-09-09T09:23:19Z</time>
      </trkpt>
      <trkpt lat="43.86886" lon="1.89088">
        <ele>189.8292</ele>
        <time>2012-09-09T09:23:21Z</time>
      </trkpt>
      <trkpt lat="43.86892" lon="1.89059">
        <ele>189.34142</ele>
        <time>2012-09-09T09:23:23Z</time>
      </trkpt>
      <trkpt lat="43.86899" lon="1.8903">
        <ele>188.8233</ele>
        <time>2012-09-09T09:23:25Z</time>
      </trkpt>
      <trkpt lat="43.86907" lon="1.89">
        <ele>187.80061</ele>
        <time>2012-09-09T09:23:27Z</time>
      </trkpt>
      <trkpt lat="43.86927" lon="1.88979">
        <ele>186.40034</ele>
        <time>2012-09-09T09:23:29Z</time>
      </trkpt>
      <trkpt lat="43.86952" lon="1.88971">
        <ele>184.2627</ele>
        <time>2012-09-09T09:23:31Z</time>
      </trkpt>
      <trkpt lat="43.86975" lon="1.88981">
        <ele>181.35735</ele>
        <time>2012-09-09T09:23:35Z</time>
      </trkpt>
      <trkpt lat="43.86994" lon="1.8899">
        <ele>180.78981</ele>
        <time>2012-09-09T09:23:38Z</time>
      </trkpt>
      <trkpt lat="43.87018" lon="1.88994">
        <ele>180.1128</ele>
        <time>2012-09-09T09:23:42Z</time>
      </trkpt>
      <trkpt lat="43.87033" lon="1.88979">
        <ele>178.1572</ele>
        <time>2012-09-09T09:23:44Z</time>
      </trkpt>
      <trkpt lat="43.87051" lon="1.88961">
        <ele>173.9757</ele>
        <time>2012-09-09T09:23:47Z</time>
      </trkpt>
      <trkpt lat="43.87067" lon="1.88935">
        <ele>171.38037</ele>
        <time>2012-09-09T09:23:50Z</time>
      </trkpt>
      <trkpt lat="43.87081" lon="1.88914">
        <ele>169.64484</ele>
        <time>2012-09-09T09:23:53Z</time>
      </trkpt>
      <trkpt lat="43.871" lon="1.88897">
        <ele>168.86613</ele>
        <time>2012-09-09T09:23:57Z</time>
      </trkpt>
      <trkpt lat="43.87116" lon="1.88879">
        <ele>169.34822</ele>
        <time>2012-09-09T09:24:00Z</time>
      </trkpt>
      <trkpt lat="43.87133" lon="1.88864">
        <ele>170.01408</ele>
        <time>2012-09-09T09:24:03Z</time>
      </trkpt>
      <trkpt lat="43.87152" lon="1.88846">
        <ele>170.89273</ele>
        <time>2012-09-09T09:24:07Z</time>
      </trkpt>
      <trkpt lat="43.87171" lon="1.88843">
        <ele>167.01958</ele>
        <time>2012-09-09T09:24:11Z</time>
      </trkpt>
      <trkpt lat="43.87187" lon="1.88855">
        <ele>164.47144</ele>
        <time>2012-09-09T09:24:15Z</time>
      </trkpt>
      <trkpt lat="43.87196" lon="1.88832">
        <ele>161.24054</ele>
        <time>2012-09-09T09:24:27Z</time>
      </trkpt>
      <trkpt lat="43.87189" lon="1.88809">
        <ele>161.19957</ele>
        <time>2012-09-09T09:24:36Z</time>
      </trkpt>
      <trkpt lat="43.87096" lon="1.88683">
        <ele>160.95624</ele>
        <time>2012-09-09T09:25:17Z</time>
      </trkpt>
      <trkpt lat="43.87087" lon="1.88661">
        <ele>158.44212</ele>
        <time>2012-09-09T09:25:28Z</time>
      </trkpt>
      <trkpt lat="43.87076" lon="1.8864">
        <ele>160.43709</ele>
        <time>2012-09-09T09:25:38Z</time>
      </trkpt>
      <trkpt lat="43.87061" lon="1.88622">
        <ele>162.09628</ele>
        <time>2012-09-09T09:25:50Z</time>
      </trkpt>
      <trkpt lat="43.87058" lon="1.88648">
        <ele>163.9646</ele>
        <time>2012-09-09T09:26:11Z</time>
      </trkpt>
      <trkpt lat="43.87066" lon="1.88672">
        <ele>166.77042</ele>
        <time>2012-09-09T09:26:21Z</time>
      </trkpt>
      <trkpt lat="43.87049" lon="1.8868">
        <ele>160.7727</ele>
        <time>2012-09-09T09:26:56Z</time>
      </trkpt>
      <trkpt lat="43.87005" lon="1.88698">
        <ele>169.40906</ele>
        <time>2012-09-09T09:27:42Z</time>
      </trkpt>
      <trkpt lat="43.86986" lon="1.88703">
        <ele>175.49815</ele>
        <time>2012-09-09T09:27:51Z</time>
      </trkpt>
      <trkpt lat="43.86968" lon="1.88701">
        <ele>180.08716</ele>
        <time>2012-09-09T09:28:07Z</time>
      </trkpt>
      <trkpt lat="43.86954" lon="1.88685">
        <ele>182.48994</ele>
        <time>2012-09-09T09:28:25Z</time>
      </trkpt>
      <trkpt lat="43.86939" lon="1.88665">
        <ele>184.41316</ele>
        <time>2012-09-09T09:29:29Z</time>
      </trkpt>
      <trkpt lat="43.86923" lon="1.8865">
        <ele>182.17326</ele>
        <time>2012-09-09T09:29:35Z</time>
      </trkpt>
      <trkpt lat="43.86916" lon="1.88625">
        <ele>183.88698</ele>
        <time>2012-09-09T09:29:43Z</time>
      </trkpt>
      <trkpt lat="43.86901" lon="1.88606">
        <ele>185.05907</ele>
        <time>2012-09-09T09:29:50Z</time>
      </trkpt>
      <trkpt lat="43.86886" lon="1.88587">
        <ele>186.16249</ele>
        <time>2012-09-09T09:29:57Z</time>
      </trkpt>
      <trkpt lat="43.86872" lon="1.8857">
        <ele>186.46971</ele>
        <time>2012-09-09T09:30:03Z</time>
      </trkpt>
      <trkpt lat="43.86861" lon="1.8855">
        <ele>185.88647</ele>
        <time>2012-09-09T09:30:09Z</time>
      </trkpt>
      <trkpt lat="43.86843" lon="1.88537">
        <ele>185.5755</ele>
        <time>2012-09-09T09:30:14Z</time>
      </trkpt>
      <trkpt lat="43.86825" lon="1.88539">
        <ele>183.6726</ele>
        <time>2012-09-09T09:30:19Z</time>
      </trkpt>
      <trkpt lat="43.86811" lon="1.8856">
        <ele>180.77403</ele>
        <time>2012-09-09T09:30:25Z</time>
      </trkpt>
      <trkpt lat="43.86802" lon="1.88585">
        <ele>178.38554</ele>
        <time>2012-09-09T09:30:30Z</time>
      </trkpt>
      <trkpt lat="43.86781" lon="1.88581">
        <ele>178.8973</ele>
        <time>2012-09-09T09:30:38Z</time>
      </trkpt>
      <trkpt lat="43.86757" lon="1.88578">
        <ele>180.94418</ele>
        <time>2012-09-09T09:30:43Z</time>
      </trkpt>
      <trkpt lat="43.86735" lon="1.88575">
        <ele>188.96185</ele>
        <time>2012-09-09T09:30:48Z</time>
      </trkpt>
      <trkpt lat="43.86716" lon="1.8857">
        <ele>192.6265</ele>
        <time>2012-09-09T09:30:53Z</time>
      </trkpt>
      <trkpt lat="43.86701" lon="1.88557">
        <ele>196.01602</ele>
        <time>2012-09-09T09:30:59Z</time>
      </trkpt>
      <trkpt lat="43.86682" lon="1.88553">
        <ele>193.50742</ele>
        <time>2012-09-09T09:31:04Z</time>
      </trkpt>
      <trkpt lat="43.86665" lon="1.88567">
        <ele>192.52226</ele>
        <time>2012-09-09T09:31:09Z</time>
      </trkpt>
      <trkpt lat="43.86644" lon="1.88567">
        <ele>191.6554</ele>
        <time>2012-09-09T09:31:17Z</time>
      </trkpt>
      <trkpt lat="43.86627" lon="1.88547">
        <ele>191.03822</ele>
        <time>2012-09-09T09:31:21Z</time>
      </trkpt>
      <trkpt lat="43.86611" lon="1.88527">
        <ele>191.86502</ele>
        <time>2012-09-09T09:31:26Z</time>
      </trkpt>
      <trkpt lat="43.86594" lon="1.88508">
        <ele>192.10576</ele>
        <time>2012-09-09T09:31:31Z</time>
      </trkpt>
      <trkpt lat="43.86587" lon="1.88481">
        <ele>192.68388</ele>
        <time>2012-09-09T09:31:36Z</time>
      </trkpt>
      <trkpt lat="43.86583" lon="1.88455">
        <ele>192.84433</ele>
        <time>2012-09-09T09:31:41Z</time>
      </trkpt>
      <trkpt lat="43.8658" lon="1.88427">
        <ele>192.85915</ele>
        <time>2012-09-09T09:31:46Z</time>
      </trkpt>
      <trkpt lat="43.86571" lon="1.88405">
        <ele>188.24364</ele>
        <time>2012-09-09T09:31:52Z</time>
      </trkpt>
      <trkpt lat="43.86555" lon="1.8842">
        <ele>183.82405</ele>
        <time>2012-09-09T09:32:45Z</time>
      </trkpt>
    </trkseg>
  </trk>
</gpx>